[[{"header":{"parameterUnit":"m.s-1","parameterCategory":1,"la1":31.0,"la2":29.5877,"lo1":-88.7671,"lo2":-86.6584,"dx":0.0162,"dy":0.0185,"nx":115,"ny":88,"refTime":"2022-11-12T06:00:00:Z","depth":0,"parameterNumber":2,"parameterNumberName":"U-component_of_WINDS"},"data":[0.0,0.0,0.0,0.0,0.0,0.0,0.0,0.0,0.0,0.0,0.0,0.0,0.0,0.0,0.0,0.0,0.0,0.0,0.0,0.0,0.0,0.0,0.0,0.0,0.0,0.0,0.0,0.0,0.0,0.0,0.0,0.0,0.0,0.0,0.0,0.0,0.0,0.0,0.0,0.0,0.0,0.0,0.0,0.0,0.0,0.0,0.0,0.0,0.0,0.0,0.0,0.0,0.0,0.0,0.0,0.0,0.0,0.0,0.0,0.0,0.0,0.0,0.0,0.0,0.0,0.0,0.0,0.0,0.0,0.0,0.0,0.0,0.0,0.0,0.0,0.0,0.0,0.0,0.0,0.0,0.0,0.0,0.0,0.0,0.0,0.0,0.0,0.0,0.0,0.0,0.0,0.0,0.0,0.0,0.0,0.0,0.0,0.0,0.0,0.0,0.0,0.0,0.0,0.0,0.0,0.0,0.0,0.0,0.0,0.0,0.0,0.0,0.0,0.0,0.0,0.0,0.0,0.0,0.0,0.0,0.0,0.0,0.0,0.0,0.0,0.0,0.0,0.0,0.0,0.0,0.0,0.0,0.0,0.0,0.0,0.0,0.0,0.0,0.0,0.0,0.0,0.0,0.0,0.0,0.0,0.0,0.0,0.0,0.0,0.0,0.0,0.0,0.0,0.0,0.0,0.0,0.0,0.0,0.0,0.0,0.0,0.0,0.0,0.0,0.0,0.0,0.0,0.0,0.0,0.0,0.0,0.0,0.0,0.0,0.0,0.0,0.0,0.0,0.0,0.0,0.0,0.0,0.0,0.0,0.0,0.0,0.0,0.0,0.0,0.0,0.0,0.0,0.0,0.0,0.0,0.0,0.0,0.0,0.0,0.0,0.0,0.0,0.0,0.0,0.0,0.0,0.0,0.0,0.0,0.0,0.0,0.0,0.0,0.0,0.0,0.0,0.0,0.0,0.0,0.0,0.0,0.0,0.0,0.0,0.0,0.0,0.0,0.0,0.0,0.0,0.0,0.0,0.0,0.0,0.0,0.0,0.0,0.0,0.0,0.0,0.0,0.0,0.0,0.0,0.0,0.0,0.0,0.0,0.0,0.0,0.0,0.0,0.0,0.0,0.0,0.0,0.0,0.0,0.0,0.0,0.0,0.0,0.0,0.0,0.0,0.0,0.0,0.0,0.0,0.0,0.0,0.0,0.0,0.0,0.0,0.0,0.0,0.0,0.0,0.0,0.0,0.0,0.0,0.0,0.0,0.0,0.0,0.0,0.0,0.0,0.0,0.0,0.0,0.0,0.0,0.0,0.0,0.0,0.0,0.0,0.0,0.0,0.0,0.0,0.0,0.0,0.0,0.0,0.0,0.0,0.0,0.0,0.0,0.0,0.0,0.0,0.0,0.0,0.0,0.0,0.0,0.0,0.0,0.0,0.0,0.0,0.0,0.0,0.0,0.0,0.0,0.0,0.0,0.0,0.0,0.0,0.0,0.0,0.0,0.0,0.0,0.0,0.0,0.0,0.0,0.0,0.0,0.0,0.0,0.0,0.0,0.0,0.0,0.0,0.0,0.0,0.0,0.0,0.0,0.0,0.0,0.0,0.0,0.0,0.0,0.0,0.0,0.0,0.0,0.0,0.0,0.0,0.0,0.0,0.0,0.0,0.0,0.0,0.0,0.0,0.0,0.0,0.0,0.0,0.0,0.0,0.0,0.0,0.0,0.0,0.0,0.0,0.0,0.0,0.0,0.0,0.0,0.0,0.0,0.0,0.0,0.0,0.0,0.0,0.0,0.0,0.0,0.0,0.0,0.0,0.0,0.0,0.0,0.0,0.0,0.0,0.0,0.0,0.0,0.0,0.0,0.0,0.0,0.0,0.0,0.0,0.0,0.0,0.0,0.0,0.0,0.0,0.0,0.0,0.0,0.0,0.0,0.0,0.0,0.0,0.0,0.0,0.0,0.0,0.0,0.0,0.0,0.0,0.0,0.0,0.0,0.0,0.0,0.0,0.0,0.0,0.0,0.0,0.0,0.0,0.0,0.0,0.0,0.0,0.0,0.0,0.0,0.0,0.0,0.0,0.0,0.0,0.0,0.0,0.0,0.0,0.0,0.0,0.0,0.0,0.0,0.0,0.0,0.0,0.0,0.0,0.0,0.0,0.0,0.0,0.0,0.0,0.0,0.0,0.0,0.0,0.0,0.0,0.0,0.0,0.0,0.0,0.0,0.0,0.0,0.0,0.0,0.0,0.0,0.0,0.0,0.0,0.0,0.0,0.0,0.0,0.0,0.0,0.0,0.0,0.0,0.0,0.0,0.0,0.0,0.0,0.0,0.0,0.0,0.0,0.0,0.0,0.0,0.0,0.0,0.0,0.0,0.0,0.0,0.0,0.0,0.0,0.0,0.0,0.0,0.0,0.0,0.0,0.0,0.0,0.0,0.0,0.0,0.0,0.0,0.0,0.0,0.0,0.0,0.0,0.0,0.0,0.0,0.0,0.0,0.0,0.0,0.0,0.0,0.0,0.0,0.0,0.0,0.0,0.0,0.0,0.0,0.0,0.0,0.0,0.0,0.0,0.0,0.0,0.0,0.0,0.0,0.0,0.0,0.0,0.0,0.0,0.0,0.0,0.0,0.0,0.0,0.0,0.0,0.0,0.0,0.0,0.0,0.0,0.0,0.0,0.0,0.0,0.0,0.0,0.0,0.0,0.0,0.0,0.0,0.0,0.0,0.0,0.0,0.0,0.0,0.0,0.0,0.0,0.0,0.0,0.0,0.0,0.0,0.0,0.0,0.0,0.0,0.0,0.0,0.0,0.0,0.0,0.0,0.0,0.0,0.0,0.0,0.0,0.0,0.0,0.0,0.0,0.0,0.0,0.0,0.0,0.0,0.0,0.0,0.0,0.0,0.0,0.0,0.0,0.0,0.0,0.0,0.0,0.0,0.0,0.0,0.0,0.0,0.0,0.0,0.0,0.0,0.0,0.0,0.0,0.0,0.0,0.0,0.0,0.0,0.0,0.0,0.0,0.0,0.0,0.0,0.0,0.0,0.0,0.0,0.0,0.0,0.0,0.0,0.0,0.0,0.0,0.0,0.0,0.0,0.0,0.0,0.0,0.0,0.0,0.0,0.0,0.0,0.0,0.0,0.0,0.0,0.0,0.0,0.0,0.0,0.0,0.0,0.0,0.0,0.0,0.0,0.0,0.0,0.0,0.0,0.0,0.0,0.0,0.0,0.0,0.0,0.0,0.0,0.0,0.0,0.0,0.0,0.0,0.0,0.0,0.0,0.0,0.0,0.0,0.0,0.0,0.0,0.0,0.0,0.0,0.0,0.0,0.0,0.0,0.0,0.0,0.0,0.0,0.0,0.0,0.0,0.0,0.0,0.0,0.0,0.0,0.0,0.0,0.0,0.0,0.0,0.0,0.0,0.0,0.0,0.0,0.0,0.0,0.0,0.0,0.0,0.0,0.0,0.0,0.0,0.0,0.0,0.0,0.0,0.0,0.0,0.0,0.0,0.0,0.0,0.0,0.0,0.0,0.0,0.0,0.0,0.0,0.0,0.0,0.0,0.0,0.0,0.0,0.0,0.0,0.0,0.0,0.0,0.0,0.0,0.0,0.0,0.0,0.0,0.0,0.0,0.0,0.0,0.0,0.0,0.0,0.0,0.0,0.0,0.0,0.0,0.0,0.0,0.0,0.0,0.0,0.0,0.0,0.0,0.0,0.0,0.0,0.0,0.0,0.0,0.0,0.0,0.0,0.0,0.0,0.0,0.0,0.0,0.0,0.0,0.0,0.0,0.0,0.0,0.0,0.0,0.0,0.0,0.0,0.0,0.0,0.0,0.0,0.0,0.0,0.0,0.0,0.0,0.0,0.0,0.0,0.0,0.0,0.0,0.0,0.0,0.0,0.0,0.0,0.0,0.0,0.0,0.0,0.0,0.0,0.0,0.0,0.0,0.0,0.0,0.0,0.0,0.0,0.0,0.0,0.0,0.0,0.0,0.0,0.0,0.0,0.0,0.0,0.0,0.0,0.0,0.0,0.0,0.0,0.0,0.0,0.0,0.0,0.0,0.0,0.0,0.0,0.0,0.0,0.0,0.0,0.0,0.0,0.0,0.0,0.0,0.0,0.0,0.0,0.0,0.0,0.0,0.0,0.0,0.0,0.0,0.0,0.0,0.0,0.0,0.0,0.0,0.0,0.0,0.0,0.0,0.0,0.0,0.0,0.0,0.0,0.0,0.0,0.0,0.0,4.0078,0.0,0.0,0.0,3.9726,0.0,0.0,0.0,0.0,0.0,0.0,0.0,0.0,0.0,0.0,0.0,0.0,0.0,0.0,0.0,0.0,0.0,0.0,0.0,0.0,0.0,0.0,0.0,0.0,0.0,0.0,0.0,0.0,0.0,0.0,0.0,0.0,0.0,0.0,0.0,0.0,0.0,0.0,0.0,0.0,0.0,0.0,0.0,0.0,0.0,0.0,0.0,0.0,0.0,0.0,0.0,0.0,0.0,0.0,0.0,0.0,0.0,0.0,0.0,0.0,0.0,0.0,0.0,0.0,0.0,0.0,0.0,0.0,0.0,0.0,0.0,0.0,0.0,0.0,0.0,0.0,0.0,0.0,0.0,0.0,0.0,0.0,0.0,0.0,0.0,0.0,0.0,0.0,0.0,0.0,0.0,0.0,0.0,0.0,0.0,0.0,0.0,0.0,0.0,0.0,0.0,0.0,0.0,0.0,0.0,0.0,0.0,0.0,0.0,0.0,4.082,4.1172,4.082,4.0586,4.0586,0.0,0.0,0.0,0.0,0.0,0.0,0.0,0.0,0.0,0.0,0.0,0.0,0.0,0.0,0.0,0.0,0.0,0.0,0.0,0.0,0.0,0.0,0.0,0.0,0.0,0.0,0.0,0.0,0.0,0.0,0.0,0.0,0.0,0.0,0.0,0.0,0.0,0.0,0.0,0.0,0.0,0.0,0.0,0.0,0.0,0.0,0.0,0.0,0.0,0.0,0.0,0.0,0.0,0.0,0.0,0.0,0.0,0.0,0.0,0.0,0.0,0.0,0.0,0.0,0.0,0.0,0.0,0.0,0.0,0.0,0.0,0.0,0.0,0.0,0.0,0.0,0.0,0.0,0.0,0.0,0.0,0.0,0.0,0.0,0.0,0.0,0.0,0.0,0.0,0.0,0.0,0.0,0.0,0.0,0.0,0.0,0.0,0.0,0.0,0.0,0.0,0.0,0.0,0.0,0.0,0.0,0.0,0.0,0.0,0.0,0.0,0.0,4.1211,4.1211,4.1211,0.0,0.0,0.0,0.0,0.0,0.0,0.0,0.0,0.0,0.0,0.0,0.0,0.0,0.0,0.0,0.0,0.0,0.0,0.0,0.0,0.0,0.0,0.0,0.0,0.0,0.0,0.0,0.0,0.0,0.0,0.0,0.0,0.0,0.0,0.0,0.0,0.0,0.0,0.0,0.0,0.0,0.0,0.0,0.0,0.0,0.0,0.0,0.0,0.0,0.0,0.0,0.0,0.0,0.0,0.0,0.0,0.0,0.0,0.0,0.0,0.0,0.0,0.0,0.0,0.0,0.0,0.0,0.0,0.0,0.0,0.0,0.0,0.0,0.0,0.0,0.0,0.0,0.0,0.0,0.0,0.0,0.0,0.0,0.0,0.0,0.0,0.0,0.0,0.0,0.0,0.0,0.0,0.0,0.0,0.0,0.0,0.0,0.0,0.0,0.0,0.0,0.0,0.0,0.0,0.0,0.0,0.0,0.0,0.0,0.0,4.1211,4.1211,4.1211,0.0,4.1211,0.0,0.0,0.0,0.0,0.0,0.0,0.0,0.0,0.0,0.0,0.0,0.0,0.0,0.0,0.0,0.0,0.0,0.0,0.0,0.0,0.0,0.0,0.0,0.0,0.0,0.0,0.0,0.0,0.0,0.0,0.0,0.0,0.0,0.0,0.0,0.0,0.0,0.0,0.0,0.0,0.0,0.0,0.0,0.0,0.0,0.0,0.0,0.0,0.0,0.0,0.0,0.0,0.0,0.0,0.0,0.0,0.0,0.0,0.0,0.0,0.0,0.0,0.0,0.0,0.0,0.0,0.0,0.0,0.0,0.0,0.0,0.0,0.0,0.0,0.0,0.0,0.0,0.0,0.0,0.0,0.0,0.0,0.0,0.0,0.0,0.0,0.0,0.0,0.0,0.0,0.0,0.0,0.0,0.0,0.0,0.0,0.0,0.0,0.0,0.0,0.0,0.0,0.0,0.0,0.0,0.0,0.0,0.0,0.0,0.0,4.1914,4.1914,4.1914,4.1914,0.0,0.0,0.0,0.0,0.0,0.0,0.0,0.0,0.0,0.0,0.0,0.0,0.0,0.0,0.0,0.0,0.0,0.0,0.0,0.0,0.0,0.0,0.0,0.0,0.0,0.0,0.0,0.0,0.0,0.0,0.0,0.0,0.0,0.0,0.0,0.0,0.0,0.0,0.0,0.0,0.0,0.0,0.0,0.0,0.0,0.0,0.0,0.0,0.0,0.0,0.0,0.0,0.0,0.0,0.0,0.0,0.0,0.0,0.0,0.0,0.0,0.0,0.0,0.0,0.0,0.0,0.0,0.0,0.0,0.0,0.0,0.0,0.0,0.0,0.0,0.0,0.0,0.0,0.0,0.0,0.0,0.0,0.0,0.0,0.0,0.0,0.0,0.0,0.0,0.0,0.0,0.0,0.0,0.0,0.0,0.0,0.0,0.0,0.0,0.0,0.0,0.0,0.0,0.0,0.0,0.0,0.0,0.0,0.0,0.0,4.1796,4.2537,4.2732,4.2538,4.2382,4.2382,0.0,0.0,0.0,0.0,0.0,0.0,0.0,0.0,0.0,0.0,0.0,0.0,0.0,0.0,0.0,0.0,0.0,0.0,0.0,0.0,0.0,0.0,0.0,0.0,0.0,0.0,0.0,0.0,0.0,0.0,0.0,0.0,0.0,0.0,0.0,0.0,0.0,0.0,0.0,0.0,0.0,0.0,0.0,0.0,0.0,0.0,0.0,0.0,0.0,0.0,0.0,0.0,0.0,0.0,0.0,0.0,0.0,0.0,0.0,0.0,0.0,0.0,0.0,0.0,0.0,0.0,0.0,0.0,0.0,0.0,0.0,0.0,0.0,0.0,0.0,0.0,0.0,0.0,0.0,0.0,0.0,0.0,0.0,0.0,0.0,0.0,0.0,0.0,0.0,0.0,0.0,0.0,0.0,0.0,0.0,0.0,0.0,0.0,0.0,0.0,0.0,0.0,0.0,0.0,0.0,0.0,0.0,0.0,4.2187,4.2371,4.2825,4.3646,4.2841,4.2416,0.0,0.0,0.0,0.0,0.0,0.0,0.0,0.0,0.0,0.0,0.0,0.0,0.0,0.0,0.0,0.0,0.0,0.0,0.0,0.0,0.0,0.0,0.0,0.0,0.0,0.0,0.0,0.0,0.0,0.0,0.0,0.0,0.0,0.0,0.0,0.0,0.0,0.0,0.0,0.0,0.0,0.0,0.0,0.0,0.0,0.0,0.0,0.0,0.0,0.0,0.0,0.0,0.0,0.0,0.0,0.0,0.0,0.0,0.0,0.0,0.0,0.0,0.0,0.0,0.0,0.0,0.0,0.0,0.0,0.0,0.0,0.0,0.0,0.0,0.0,0.0,0.0,0.0,0.0,0.0,0.0,0.0,0.0,0.0,0.0,0.0,0.0,0.0,0.0,0.0,0.0,0.0,0.0,0.0,0.0,0.0,0.0,0.0,0.0,0.0,0.0,0.0,0.0,0.0,0.0,0.0,0.0,0.0,0.0,4.2446,4.4036,4.532,4.6144,4.5369,4.4397,0.0,0.0,0.0,0.0,0.0,0.0,0.0,0.0,0.0,0.0,0.0,0.0,0.0,0.0,0.0,0.0,0.0,0.0,0.0,0.0,0.0,0.0,0.0,0.0,0.0,0.0,0.0,0.0,0.0,0.0,0.0,0.0,0.0,0.0,0.0,0.0,0.0,0.0,0.0,0.0,0.0,0.0,0.0,0.0,0.0,0.0,0.0,0.0,0.0,0.0,0.0,0.0,0.0,0.0,0.0,0.0,0.0,0.0,0.0,0.0,0.0,0.0,0.0,0.0,0.0,0.0,0.0,0.0,0.0,0.0,0.0,0.0,0.0,0.0,0.0,0.0,0.0,0.0,0.0,0.0,0.0,0.0,0.0,0.0,0.0,0.0,0.0,0.0,0.0,0.0,0.0,0.0,0.0,0.0,0.0,0.0,0.0,0.0,0.0,0.0,0.0,0.0,0.0,0.0,0.0,0.0,0.0,0.0,0.0,4.4494,4.6482,4.7808,4.8353,4.7302,4.5899,0.0,0.0,0.0,0.0,0.0,0.0,0.0,0.0,0.0,0.0,0.0,0.0,0.0,0.0,0.0,0.0,0.0,0.0,0.0,0.0,0.0,0.0,0.0,0.0,0.0,0.0,0.0,0.0,0.0,0.0,0.0,0.0,0.0,0.0,0.0,0.0,0.0,0.0,0.0,0.0,0.0,0.0,0.0,0.0,0.0,0.0,0.0,0.0,0.0,0.0,0.0,0.0,0.0,0.0,0.0,0.0,0.0,0.0,0.0,0.0,0.0,0.0,0.0,0.0,0.0,0.0,0.0,0.0,0.0,0.0,0.0,0.0,0.0,0.0,0.0,0.0,0.0,0.0,0.0,0.0,0.0,0.0,0.0,0.0,0.0,0.0,0.0,0.0,0.0,0.0,0.0,0.0,0.0,0.0,0.0,0.0,0.0,0.0,0.0,0.0,0.0,0.0,0.0,0.0,0.0,0.0,0.0,0.0,4.5489,4.867,4.967,5.02,5.01,4.8553,4.6767,0.0,0.0,0.0,0.0,0.0,0.0,0.0,0.0,0.0,0.0,0.0,0.0,0.0,0.0,0.0,0.0,0.0,0.0,0.0,0.0,0.0,0.0,0.0,0.0,0.0,0.0,0.0,0.0,0.0,0.0,0.0,0.0,0.0,0.0,0.0,0.0,0.0,0.0,0.0,0.0,0.0,0.0,0.0,0.0,0.0,0.0,0.0,0.0,0.0,0.0,0.0,0.0,0.0,0.0,0.0,0.0,0.0,0.0,0.0,0.0,0.0,0.0,0.0,0.0,0.0,0.0,0.0,0.0,0.0,0.0,0.0,0.0,0.0,0.0,0.0,0.0,0.0,0.0,0.0,0.0,0.0,0.0,0.0,0.0,0.0,0.0,0.0,0.0,0.0,0.0,0.0,0.0,0.0,0.0,0.0,0.0,0.0,0.0,0.0,0.0,0.0,0.0,0.0,0.0,0.0,0.0,0.0,0.0,0.0,5.2299,5.3171,5.3312,5.2647,5.16,4.9614,0.0,0.0,0.0,0.0,0.0,0.0,0.0,0.0,0.0,0.0,0.0,0.0,0.0,0.0,0.0,0.0,0.0,0.0,0.0,0.0,0.0,0.0,0.0,0.0,0.0,0.0,0.0,0.0,0.0,0.0,0.0,0.0,0.0,0.0,0.0,0.0,0.0,0.0,0.0,0.0,0.0,0.0,0.0,0.0,0.0,0.0,0.0,0.0,0.0,0.0,0.0,0.0,0.0,0.0,0.0,0.0,0.0,0.0,0.0,0.0,0.0,0.0,0.0,0.0,0.0,0.0,0.0,0.0,0.0,0.0,0.0,0.0,0.0,0.0,0.0,0.0,0.0,0.0,0.0,0.0,0.0,0.0,0.0,0.0,0.0,0.0,0.0,0.0,0.0,0.0,0.0,0.0,0.0,0.0,0.0,0.0,0.0,0.0,0.0,0.0,0.0,0.0,0.0,0.0,0.0,0.0,0.0,0.0,0.0,5.7558,5.7235,5.6761,5.6132,5.4724,5.2498,4.938,0.0,0.0,0.0,0.0,0.0,0.0,0.0,0.0,0.0,0.0,0.0,0.0,0.0,0.0,0.0,0.0,0.0,0.0,0.0,0.0,0.0,0.0,0.0,0.0,0.0,0.0,0.0,0.0,0.0,0.0,0.0,0.0,0.0,0.0,0.0,0.0,0.0,0.0,0.0,0.0,0.0,0.0,0.0,0.0,0.0,0.0,0.0,0.0,0.0,0.0,0.0,0.0,0.0,0.0,0.0,0.0,0.0,0.0,0.0,0.0,0.0,0.0,0.0,0.0,0.0,0.0,0.0,0.0,0.0,0.0,0.0,0.0,0.0,0.0,0.0,0.0,0.0,0.0,0.0,0.0,0.0,0.0,0.0,0.0,0.0,0.0,0.0,0.0,0.0,0.0,0.0,0.0,0.0,0.0,0.0,0.0,0.0,0.0,0.0,0.0,0.0,0.0,0.0,0.0,0.0,0.0,0.0,0.0,6.4132,6.1899,6.0536,6.0239,5.7836,5.5254,0.0,0.0,0.0,0.0,0.0,0.0,0.0,0.0,0.0,0.0,0.0,0.0,0.0,0.0,0.0,0.0,0.0,0.0,0.0,0.0,0.0,0.0,0.0,0.0,0.0,0.0,0.0,0.0,0.0,0.0,0.0,0.0,0.0,0.0,0.0,0.0,0.0,0.0,0.0,0.0,0.0,0.0,0.0,0.0,0.0,0.0,0.0,0.0,0.0,0.0,0.0,0.0,0.0,0.0,0.0,0.0,0.0,0.0,0.0,0.0,0.0,0.0,0.0,0.0,0.0,0.0,0.0,0.0,0.0,0.0,0.0,0.0,0.0,0.0,0.0,0.0,0.0,0.0,0.0,0.0,0.0,0.0,0.0,0.0,0.0,0.0,0.0,0.0,0.0,0.0,0.0,0.0,0.0,0.0,0.0,0.0,0.0,0.0,0.0,0.0,0.0,0.0,0.0,0.0,0.0,0.0,0.0,0.0,0.0,6.7438,6.6895,6.5304,6.2881,6.0906,5.8105,0.0,0.0,0.0,0.0,0.0,0.0,0.0,0.0,0.0,0.0,0.0,0.0,0.0,0.0,0.0,0.0,0.0,0.0,0.0,0.0,0.0,0.0,0.0,0.0,0.0,0.0,0.0,0.0,0.0,0.0,0.0,0.0,0.0,0.0,0.0,0.0,0.0,0.0,0.0,0.0,0.0,0.0,0.0,0.0,0.0,0.0,0.0,0.0,0.0,0.0,0.0,0.0,0.0,0.0,0.0,0.0,0.0,0.0,0.0,0.0,0.0,0.0,0.0,0.0,0.0,0.0,0.0,0.0,0.0,0.0,0.0,0.0,0.0,0.0,0.0,0.0,0.0,0.0,0.0,0.0,0.0,0.0,0.0,0.0,0.0,0.0,0.0,0.0,0.0,0.0,0.0,0.0,0.0,0.0,0.0,0.0,0.0,0.0,0.0,0.0,0.0,0.0,0.0,0.0,0.0,0.0,0.0,0.0,6.6689,7.0416,7.073,6.9549,6.6929,6.4196,6.1062,0.0,0.0,0.0,0.0,0.0,0.0,0.0,0.0,0.0,0.0,0.0,0.0,0.0,0.0,0.0,0.0,0.0,0.0,0.0,0.0,0.0,0.0,0.0,0.0,0.0,0.0,0.0,0.0,0.0,0.0,0.0,0.0,0.0,0.0,0.0,0.0,0.0,0.0,0.0,0.0,0.0,0.0,0.0,0.0,0.0,0.0,0.0,0.0,0.0,0.0,0.0,0.0,0.0,0.0,0.0,0.0,0.0,0.0,0.0,0.0,0.0,0.0,0.0,0.0,0.0,0.0,0.0,0.0,0.0,0.0,0.0,0.0,0.0,0.0,0.0,0.0,0.0,0.0,0.0,0.0,0.0,0.0,0.0,0.0,0.0,0.0,0.0,0.0,0.0,0.0,0.0,0.0,0.0,0.0,0.0,0.0,0.0,0.0,0.0,0.0,0.0,0.0,0.0,0.0,0.0,0.0,0.0,0.0,6.9657,7.2908,7.3668,7.3262,7.1596,6.7426,6.388,0.0,0.0,0.0,0.0,0.0,0.0,0.0,0.0,0.0,0.0,0.0,0.0,0.0,0.0,0.0,0.0,0.0,0.0,0.0,0.0,0.0,0.0,0.0,0.0,0.0,0.0,0.0,0.0,0.0,0.0,0.0,0.0,0.0,0.0,0.0,0.0,0.0,0.0,0.0,0.0,0.0,0.0,0.0,0.0,0.0,0.0,0.0,0.0,0.0,0.0,0.0,0.0,0.0,0.0,0.0,0.0,0.0,0.0,0.0,0.0,0.0,0.0,0.0,0.0,0.0,0.0,0.0,0.0,0.0,0.0,0.0,0.0,0.0,0.0,0.0,0.0,0.0,0.0,0.0,0.0,0.0,0.0,0.0,0.0,0.0,0.0,0.0,0.0,0.0,0.0,0.0,0.0,0.0,0.0,0.0,0.0,0.0,0.0,0.0,0.0,0.0,0.0,0.0,0.0,0.0,0.0,0.0,0.0,7.1638,7.5462,7.5633,7.5506,7.5039,7.026,6.5617,0.0,0.0,0.0,0.0,0.0,0.0,0.0,0.0,0.0,0.0,0.0,0.0,0.0,0.0,0.0,0.0,0.0,0.0,0.0,0.0,0.0,0.0,0.0,0.0,0.0,0.0,0.0,0.0,0.0,0.0,0.0,0.0,0.0,0.0,0.0,0.0,0.0,0.0,0.0,0.0,0.0,0.0,0.0,0.0,0.0,0.0,0.0,0.0,4.9648,0.0,0.0,0.0,0.0,0.0,0.0,0.0,0.0,0.0,0.0,0.0,0.0,0.0,0.0,0.0,0.0,0.0,0.0,0.0,0.0,0.0,0.0,0.0,0.0,0.0,0.0,0.0,0.0,0.0,0.0,0.0,0.0,0.0,0.0,0.0,0.0,0.0,0.0,0.0,0.0,0.0,0.0,0.0,0.0,0.0,0.0,0.0,0.0,0.0,0.0,0.0,0.0,0.0,0.0,0.0,0.0,0.0,0.0,0.0,7.3503,7.6805,7.72,7.692,7.5968,7.269,6.8467,0.0,0.0,0.0,0.0,0.0,0.0,0.0,0.0,0.0,0.0,0.0,0.0,0.0,0.0,0.0,0.0,0.0,0.0,0.0,0.0,0.0,0.0,0.0,0.0,0.0,0.0,0.0,0.0,0.0,0.0,0.0,0.0,0.0,0.0,0.0,0.0,0.0,0.0,0.0,0.0,0.0,0.0,0.0,0.0,0.0,0.0,0.0,0.0,0.0,0.0,0.0,0.0,0.0,0.0,0.0,0.0,0.0,0.0,0.0,0.0,0.0,0.0,0.0,0.0,0.0,0.0,0.0,0.0,0.0,0.0,0.0,0.0,0.0,0.0,0.0,0.0,0.0,0.0,0.0,0.0,0.0,0.0,0.0,0.0,0.0,0.0,0.0,0.0,0.0,0.0,0.0,0.0,0.0,0.0,0.0,0.0,0.0,0.0,0.0,0.0,0.0,0.0,0.0,0.0,0.0,0.0,0.0,7.2239,7.5584,7.7973,7.8821,7.8399,7.6826,7.5051,7.1701,6.663,0.0,0.0,0.0,0.0,0.0,0.0,0.0,0.0,0.0,0.0,0.0,0.0,0.0,0.0,0.0,0.0,0.0,0.0,0.0,0.0,0.0,0.0,0.0,0.0,0.0,0.0,0.0,0.0,0.0,0.0,0.0,0.0,0.0,0.0,0.0,0.0,0.0,0.0,4.7891,5.125,0.0,0.0,0.0,0.0,0.0,0.0,0.0,0.0,5.4765,0.0,0.0,0.0,0.0,0.0,0.0,0.0,0.0,0.0,0.0,0.0,0.0,0.0,0.0,0.0,0.0,0.0,0.0,0.0,0.0,0.0,0.0,0.0,0.0,0.0,0.0,0.0,0.0,0.0,0.0,0.0,0.0,0.0,0.0,0.0,0.0,0.0,0.0,0.0,0.0,0.0,0.0,0.0,0.0,0.0,0.0,0.0,0.0,0.0,0.0,0.0,0.0,0.0,0.0,0.0,0.0,6.975,7.4518,7.817,8.0635,8.1403,8.1291,8.025,7.7942,7.4285,6.9166,0.0,0.0,0.0,0.0,0.0,0.0,0.0,0.0,0.0,0.0,0.0,0.0,0.0,0.0,0.0,0.0,0.0,0.0,0.0,0.0,0.0,0.0,0.0,0.0,0.0,0.0,0.0,0.0,0.0,0.0,0.0,0.0,0.0,0.0,0.0,0.0,0.0,0.0,0.0,5.4219,5.5898,0.0,0.0,0.0,0.0,0.0,0.0,0.0,0.0,5.6484,0.0,0.0,0.0,0.0,0.0,0.0,0.0,0.0,0.0,0.0,0.0,0.0,0.0,0.0,0.0,0.0,0.0,0.0,0.0,0.0,0.0,0.0,0.0,0.0,0.0,0.0,0.0,0.0,0.0,0.0,0.0,0.0,0.0,0.0,0.0,0.0,0.0,0.0,0.0,0.0,0.0,0.0,0.0,0.0,0.0,0.0,0.0,0.0,0.0,0.0,0.0,0.0,0.0,0.0,0.0,7.072,7.565,7.9165,8.1192,8.2426,8.2405,8.1135,7.9019,7.5326,0.0,0.0,0.0,0.0,0.0,0.0,0.0,0.0,0.0,0.0,0.0,0.0,0.0,0.0,0.0,0.0,0.0,0.0,0.0,0.0,0.0,0.0,0.0,0.0,0.0,0.0,0.0,0.0,0.0,0.0,0.0,0.0,0.0,0.0,0.0,0.0,0.0,0.0,0.0,0.0,5.707,5.9258,5.9219,0.0,0.0,0.0,0.0,0.0,0.0,6.0469,5.914,0.0,0.0,0.0,0.0,0.0,0.0,0.0,0.0,0.0,0.0,0.0,0.0,0.0,0.0,0.0,0.0,0.0,0.0,0.0,0.0,0.0,0.0,0.0,0.0,0.0,0.0,0.0,0.0,0.0,0.0,0.0,0.0,0.0,0.0,0.0,0.0,0.0,0.0,0.0,0.0,0.0,0.0,0.0,0.0,0.0,0.0,0.0,0.0,0.0,0.0,0.0,0.0,0.0,0.0,0.0,7.2004,7.6783,8.0044,8.1677,8.31,8.3135,8.1631,7.9748,7.6055,0.0,0.0,0.0,0.0,0.0,0.0,0.0,0.0,0.0,0.0,0.0,0.0,0.0,0.0,0.0,0.0,0.0,0.0,0.0,0.0,0.0,0.0,0.0,0.0,0.0,0.0,0.0,0.0,0.0,0.0,0.0,0.0,0.0,0.0,0.0,0.0,0.0,0.0,0.0,0.0,0.0,6.2305,6.2461,6.3515,0.0,0.0,0.0,0.0,6.4961,6.3633,0.0,0.0,0.0,0.0,0.0,0.0,0.0,0.0,0.0,0.0,0.0,0.0,0.0,0.0,0.0,0.0,0.0,0.0,0.0,0.0,0.0,0.0,0.0,0.0,0.0,0.0,0.0,0.0,0.0,0.0,0.0,0.0,0.0,0.0,0.0,0.0,0.0,0.0,0.0,0.0,0.0,0.0,0.0,0.0,0.0,0.0,0.0,0.0,0.0,0.0,0.0,0.0,0.0,0.0,0.0,0.0,7.4558,7.8832,8.1781,8.3374,8.4287,8.4283,8.3293,8.0939,7.7205,0.0,0.0,0.0,0.0,0.0,0.0,0.0,0.0,0.0,0.0,0.0,0.0,0.0,0.0,0.0,0.0,0.0,0.0,0.0,0.0,0.0,0.0,0.0,0.0,0.0,0.0,0.0,0.0,0.0,0.0,0.0,0.0,0.0,0.0,0.0,0.0,0.0,0.0,0.0,0.0,0.0,6.4258,6.5039,6.7226,6.8476,0.0,0.0,6.7617,6.7734,6.6289,0.0,0.0,0.0,0.0,0.0,0.0,0.0,0.0,0.0,0.0,0.0,0.0,0.0,0.0,0.0,0.0,0.0,0.0,0.0,0.0,0.0,0.0,0.0,0.0,0.0,0.0,0.0,0.0,0.0,0.0,0.0,0.0,0.0,0.0,0.0,0.0,0.0,0.0,0.0,0.0,0.0,0.0,0.0,0.0,0.0,0.0,0.0,0.0,0.0,0.0,0.0,0.0,0.0,0.0,0.0,7.0348,7.5653,7.9841,8.2767,8.4344,8.5146,8.4937,8.3638,8.2058,7.8361,0.0,0.0,0.0,0.0,0.0,0.0,0.0,0.0,0.0,0.0,0.0,0.0,0.0,0.0,0.0,0.0,0.0,0.0,0.0,0.0,0.0,0.0,0.0,0.0,0.0,0.0,0.0,0.0,0.0,0.0,0.0,0.0,0.0,0.0,0.0,0.0,0.0,0.0,0.0,0.0,0.0,0.0,6.8242,6.9883,0.0,0.0,0.0,7.0858,7.233,0.0,0.0,0.0,0.0,0.0,0.0,0.0,0.0,0.0,0.0,0.0,0.0,0.0,0.0,0.0,0.0,0.0,0.0,0.0,0.0,0.0,0.0,0.0,0.0,0.0,0.0,0.0,0.0,0.0,0.0,0.0,0.0,0.0,0.0,0.0,0.0,0.0,0.0,0.0,0.0,0.0,0.0,0.0,0.0,0.0,0.0,0.0,0.0,0.0,0.0,0.0,0.0,0.0,0.0,0.0,0.0,0.0,7.6455,8.0662,8.3597,8.5172,8.6012,8.5709,8.4251,8.2982,0.0,0.0,0.0,0.0,0.0,0.0,0.0,0.0,0.0,0.0,0.0,0.0,0.0,0.0,0.0,0.0,0.0,0.0,0.0,0.0,0.0,0.0,0.0,0.0,0.0,0.0,0.0,4.1601,0.0,0.0,0.0,0.0,0.0,0.0,0.0,0.0,0.0,0.0,0.0,0.0,0.0,0.0,6.8552,7.1286,7.2616,7.3828,0.0,0.0,7.421,7.5906,7.3122,7.028,0.0,0.0,0.0,0.0,0.0,0.0,0.0,0.0,0.0,0.0,0.0,0.0,0.0,0.0,0.0,0.0,0.0,0.0,0.0,0.0,0.0,0.0,0.0,0.0,0.0,0.0,0.0,0.0,0.0,0.0,0.0,0.0,0.0,0.0,0.0,0.0,0.0,0.0,0.0,0.0,0.0,0.0,0.0,0.0,0.0,0.0,0.0,0.0,0.0,0.0,0.0,0.0,0.0,0.0,0.0,7.7306,8.1579,8.4477,8.598,8.6863,8.6861,8.5938,8.3557,8.0246,0.0,0.0,0.0,0.0,0.0,0.0,0.0,0.0,0.0,0.0,0.0,0.0,0.0,0.0,0.0,0.0,0.0,0.0,0.0,0.0,0.0,0.0,0.0,0.0,0.0,0.0,0.0,0.0,0.0,0.0,0.0,0.0,0.0,0.0,0.0,0.0,0.0,0.0,0.0,0.0,0.0,7.0467,7.3863,7.5773,7.7146,0.0,0.0,7.7775,7.7133,7.5477,7.3391,7.0937,0.0,0.0,0.0,0.0,0.0,0.0,0.0,0.0,0.0,0.0,0.0,0.0,0.0,0.0,0.0,0.0,0.0,0.0,0.0,0.0,0.0,0.0,0.0,0.0,0.0,0.0,0.0,0.0,0.0,0.0,0.0,0.0,0.0,0.0,0.0,0.0,0.0,0.0,0.0,0.0,0.0,0.0,0.0,0.0,0.0,0.0,0.0,0.0,0.0,0.0,0.0,0.0,0.0,7.3169,7.8957,8.2692,8.5315,8.6869,8.775,8.7519,8.613,8.4668,8.19,0.0,0.0,0.0,0.0,0.0,0.0,0.0,0.0,0.0,0.0,0.0,0.0,0.0,0.0,0.0,0.0,0.0,0.0,0.0,0.0,0.0,0.0,0.0,0.0,0.0,0.0,0.0,0.0,5.2109,5.3359,5.4219,0.0,0.0,0.0,0.0,0.0,0.0,0.0,0.0,0.0,0.0,7.2803,7.5733,7.8092,0.0,0.0,7.9986,7.9908,7.9558,7.8063,7.6224,7.4208,7.1729,0.0,0.0,0.0,0.0,0.0,0.0,0.0,0.0,0.0,0.0,0.0,0.0,0.0,0.0,0.0,0.0,0.0,0.0,0.0,0.0,0.0,0.0,0.0,0.0,0.0,0.0,0.0,0.0,0.0,0.0,0.0,0.0,0.0,0.0,0.0,0.0,0.0,0.0,0.0,0.0,0.0,0.0,0.0,0.0,0.0,0.0,0.0,0.0,0.0,0.0,0.0,0.0,7.4746,8.0346,8.3895,8.6522,8.8096,8.875,8.8479,8.728,8.5936,8.3476,0.0,0.0,0.0,0.0,0.0,0.0,0.0,0.0,0.0,0.0,0.0,0.0,0.0,0.0,0.0,0.0,0.0,0.0,0.0,0.0,0.0,0.0,0.0,0.0,0.0,0.0,0.0,0.0,5.5039,5.5586,5.5664,0.0,0.0,0.0,0.0,0.0,0.0,0.0,0.0,0.0,0.0,7.5412,7.8202,8.0417,8.1823,8.2075,8.2114,8.1951,8.1428,8.0333,7.8859,7.6893,0.0,0.0,0.0,0.0,0.0,0.0,0.0,0.0,0.0,0.0,0.0,0.0,0.0,0.0,0.0,0.0,0.0,0.0,0.0,0.0,0.0,0.0,0.0,0.0,0.0,0.0,0.0,0.0,0.0,0.0,4.4279,0.0,0.0,0.0,0.0,0.0,0.0,0.0,0.0,0.0,0.0,0.0,0.0,0.0,0.0,0.0,0.0,0.0,0.0,0.0,0.0,0.0,0.0,7.6252,8.1235,8.5323,8.8212,8.9782,8.9855,8.9857,8.9739,8.7397,8.486,8.2174,0.0,0.0,0.0,0.0,0.0,0.0,0.0,0.0,0.0,0.0,0.0,0.0,0.0,0.0,0.0,0.0,0.0,0.0,0.0,0.0,0.0,0.0,0.0,0.0,0.0,0.0,5.7539,5.8594,5.8398,0.0,0.0,0.0,0.0,0.0,0.0,0.0,0.0,0.0,0.0,7.5385,7.8246,8.1467,8.284,8.3712,8.4437,8.463,8.4119,8.2456,8.2147,8.126,0.0,0.0,0.0,0.0,0.0,0.0,0.0,0.0,0.0,0.0,0.0,0.0,0.0,0.0,0.0,0.0,0.0,0.0,0.0,0.0,0.0,0.0,0.0,0.0,0.0,0.0,0.0,5.1623,5.1045,0.0,0.0,0.0,0.0,0.0,0.0,0.0,0.0,0.0,0.0,0.0,6.5819,6.5854,0.0,0.0,0.0,0.0,0.0,0.0,0.0,0.0,0.0,0.0,0.0,0.0,7.7322,8.2809,8.5891,8.8506,9.0667,9.0744,9.078,9.0744,8.832,8.4976,8.0783,0.0,0.0,0.0,0.0,0.0,0.0,0.0,0.0,0.0,0.0,0.0,0.0,0.0,0.0,0.0,0.0,0.0,0.0,0.0,0.0,0.0,0.0,0.0,0.0,0.0,5.8437,0.0,0.0,0.0,0.0,0.0,0.0,0.0,0.0,0.0,0.0,0.0,7.0674,7.5151,7.7942,8.0358,8.2574,8.4147,8.5,0.0,0.0,0.0,0.0,0.0,0.0,0.0,0.0,0.0,0.0,0.0,0.0,0.0,0.0,6.816,6.4179,6.3437,6.3476,6.3476,0.0,0.0,0.0,0.0,0.0,0.0,0.0,0.0,0.0,0.0,0.0,0.0,0.0,0.0,5.682,0.0,5.57,0.0,0.0,0.0,0.0,0.0,0.0,0.0,0.0,6.8399,6.9935,7.101,7.1047,7.1049,0.0,7.1049,6.9316,0.0,0.0,0.0,0.0,0.0,0.0,0.0,0.0,7.9597,8.4509,8.735,8.9671,9.1556,9.1941,9.1941,9.1595,8.8902,8.5555,8.1702,7.8819,7.5515,0.0,0.0,0.0,0.0,0.0,0.0,0.0,0.0,0.0,0.0,0.0,0.0,0.0,0.0,0.0,0.0,0.0,0.0,0.0,0.0,0.0,0.0,0.0,6.2302,0.0,0.0,0.0,0.0,0.0,0.0,0.0,0.0,0.0,6.7445,7.0621,7.4259,7.7843,8.0765,8.3033,8.4364,0.0,0.0,0.0,0.0,0.0,0.0,0.0,8.5053,8.3963,8.2625,8.117,7.9552,7.7895,7.6699,7.6425,0.0,0.0,6.9605,6.8748,6.8748,6.8709,6.9412,7.0193,7.074,7.1093,7.1875,0.0,0.0,0.0,0.0,0.0,0.0,0.0,0.0,6.2329,6.2289,0.0,6.2212,0.0,0.0,0.0,0.0,0.0,6.5743,0.0,0.0,7.324,7.4549,7.6053,7.613,7.6128,7.6169,7.613,7.6092,7.5747,7.1233,0.0,0.0,0.0,0.0,0.0,0.0,8.3008,8.6251,8.9477,9.1631,9.2559,9.3292,9.3292,9.2366,8.9286,8.6748,8.4895,8.1704,7.8394,7.5009,7.1626,0.0,0.0,0.0,0.0,0.0,0.0,0.0,0.0,0.0,0.0,0.0,0.0,0.0,0.0,0.0,0.0,0.0,0.0,0.0,0.0,6.541,0.0,0.0,0.0,0.0,0.0,0.0,0.0,0.0,0.0,0.0,7.1149,7.4647,7.8121,8.0646,0.0,0.0,0.0,0.0,8.9436,8.9321,8.9421,8.8872,8.7242,8.701,8.651,8.4964,0.0,0.0,8.1298,8.1006,8.0695,7.9911,7.9181,7.78,7.5405,7.467,7.4593,7.4632,7.5257,7.5961,7.6119,7.6518,7.7344,6.9588,0.0,0.0,0.0,0.0,6.6513,6.6934,6.6665,6.7245,6.7167,6.6588,6.6588,0.0,0.0,0.0,0.0,0.0,0.0,7.3512,7.5903,7.7323,7.8588,7.9629,7.9633,7.9629,7.9633,7.9631,7.9631,7.9554,7.8188,7.6454,7.4541,0.0,0.0,0.0,0.0,8.4691,8.7944,9.0137,9.2212,9.4256,9.391,9.3022,9.1592,9.0631,8.8746,8.5861,8.4243,8.1858,7.8473,7.5088,0.0,0.0,0.0,0.0,0.0,0.0,0.0,0.0,0.0,0.0,0.0,0.0,0.0,0.0,0.0,0.0,0.0,0.0,0.0,6.8838,6.9876,6.9912,0.0,0.0,0.0,0.0,0.0,0.0,0.0,0.0,0.0,7.7696,7.8982,8.0922,0.0,0.0,8.7108,8.8384,8.9021,8.9345,8.9265,0.0,0.0,0.0,8.8614,8.8487,8.8075,8.6858,8.5425,8.3818,8.3525,8.3463,8.3189,8.2976,8.2564,8.1812,7.9273,7.7693,7.8082,7.8862,7.9684,8.0272,8.0576,8.0989,7.5808,7.2948,7.1758,7.0756,7.0184,7.149,7.1796,7.1333,7.1871,7.1814,7.1385,7.1383,7.1095,7.0671,7.1552,0.0,0.0,0.0,7.7667,7.9325,8.0323,8.1244,8.2058,8.2095,8.2095,8.2095,8.2097,8.2287,8.2593,8.2935,8.2499,8.1352,0.0,0.0,8.2726,8.4714,8.7042,8.9671,9.1352,9.3097,9.4951,9.4489,9.3715,9.2712,9.1746,9.0246,8.8207,8.6322,8.4279,8.1896,7.8548,7.5201,0.0,0.0,0.0,0.0,0.0,0.0,0.0,0.0,0.0,0.0,0.0,5.3824,5.6439,0.0,0.0,0.0,6.6729,7.0044,7.2826,7.3416,0.0,0.0,0.0,0.0,0.0,0.0,0.0,7.493,7.7177,7.9665,8.2446,8.3088,8.4058,8.6013,8.7559,8.8908,9.0011,0.0,9.0663,9.0584,9.0606,9.0398,8.9782,8.9691,8.9632,8.9399,8.8589,8.7545,8.6292,8.6023,8.5803,8.5189,8.4985,8.5005,8.5005,8.2898,8.1276,8.1567,8.2049,8.2599,8.3156,8.3225,8.348,8.0983,8.0314,7.7419,7.5751,7.5093,7.5791,7.6098,7.6098,7.6098,7.6183,7.6298,7.631,7.6319,7.6438,7.7324,0.0,7.8944,7.9785,8.1129,8.2712,8.2712,8.3174,8.3984,8.4024,8.3984,8.4024,8.3986,8.4403,8.5207,8.5936,8.6707,8.7442,8.5364,8.4594,8.529,8.7707,8.9748,9.1285,9.2943,9.4217,9.5066,9.5102,9.5064,9.4951,9.2712,9.14,9.1129,8.8167,8.6051,8.4972,8.1933,7.8665,7.528,0.0,0.0,0.0,0.0,0.0,0.0,0.0,0.0,0.0,0.0,0.0,0.0,0.0,0.0,0.0,7.2253,0.0,7.5439,7.621,0.0,0.0,0.0,7.5297,7.4743,7.5408,7.6642,7.8469,0.0,0.0,8.566,0.0,8.7315,8.734,8.9324,9.1018,9.1678,9.2393,9.2874,9.2718,9.2788,9.225,9.0931,9.0593,9.032,8.9581,8.9423,8.9108,8.8356,8.8172,8.7577,8.6247,8.5896,8.5944,8.5903,8.5835,8.5713,8.5129,8.501,8.5025,8.5243,8.5296,8.5538,8.2624,8.2708,8.1419,8.0271,7.9316,7.9508,7.9587,7.9589,7.9585,7.9599,7.9623,7.9699,7.978,7.994,8.0748,8.1599,8.2406,8.3285,8.4591,8.6134,8.6173,8.6634,8.7485,8.7485,8.7487,8.7485,8.7485,8.7598,8.7788,8.7983,8.8175,8.8408,8.9077,8.8882,8.7908,8.9693,9.115,9.2174,9.383,9.5141,9.5942,9.598,9.5675,9.5027,9.4407,9.3174,9.1285,9.0436,8.8705,8.5938,8.4472,8.2164,7.8738,7.5355,0.0,0.0,0.0,0.0,0.0,0.0,0.0,0.0,0.0,6.2787,6.6705,0.0,7.2205,0.0,7.6639,7.802,7.8002,7.8192,0.0,0.0,7.8035,7.8297,7.8918,7.919,8.0212,8.2572,8.3794,8.5236,8.7335,8.8863,9.0023,9.0521,9.1072,9.1724,9.2348,9.3182,9.3701,9.3622,9.3645,9.3556,9.3091,9.2532,9.1637,9.029,9.008,8.9827,8.9038,8.8909,8.8721,8.8348,8.8333,8.8343,8.8283,8.84,8.8351,8.8266,8.784,8.7675,8.8341,8.8483,8.8565,8.4673,8.4943,8.4671,8.4236,8.361,8.2614,8.2385,8.276,8.2763,8.2817,8.2913,8.3103,8.3215,8.3338,8.4192,8.4826,8.5328,8.617,8.7096,8.7944,8.7981,8.8254,8.8677,8.8677,8.8677,8.8677,8.8677,8.887,8.9248,8.9633,8.9979,9.0404,9.1672,9.1866,9.0986,9.1828,9.2941,9.4172,9.5831,9.6946,9.7365,9.7016,9.6596,9.6136,9.5369,9.4333,9.2943,9.1787,9.0321,8.8438,8.6513,8.4431,8.215,7.885,7.5472,0.0,0.0,0.0,0.0,0.0,0.0,0.0,0.0,0.0,0.0,0.0,7.6651,7.9108,8.0184,8.0787,8.1032,8.1036,8.1021,8.1043,8.1025,8.1451,8.2489,8.2605,8.3439,8.5588,8.6277,8.7379,8.9358,9.0456,9.1483,9.2601,9.3032,9.3335,9.3705,9.4182,9.4459,9.4386,9.4427,9.4292,9.3943,9.3514,9.2783,9.1645,9.1328,9.1077,9.029,9.012,9.0014,8.9672,8.9623,8.9661,8.9622,8.9653,8.9821,9.0159,9.0035,8.973,8.9637,8.961,8.9664,8.6636,8.6793,8.6971,8.714,8.7218,8.526,8.4809,8.545,8.5507,8.5612,8.5848,8.614,8.6273,8.6376,8.7207,8.7634,8.7788,8.8523,8.8985,8.9175,8.9175,8.9254,8.9331,8.9334,8.9334,8.9334,8.9331,8.9712,9.0398,9.1169,9.19,9.2672,9.3484,9.3869,9.3869,9.4059,9.4982,9.6593,9.806,9.8793,9.8793,9.8057,9.7596,9.744,9.61,9.5218,9.4951,9.2749,9.14,9.109,8.8246,8.612,8.506,8.2115,7.8973,0.0,7.4055,0.0,0.0,0.0,0.0,0.0,0.0,0.0,0.0,7.7819,8.0752,8.2814,8.3068,8.3341,8.3981,8.4039,8.4064,8.4152,8.4187,8.4591,8.5529,8.5683,8.6296,8.7929,8.8198,8.9193,9.1321,9.1765,9.2441,9.3884,9.4556,9.4947,9.5204,9.5224,9.5253,9.5174,9.5161,9.493,9.4163,9.4019,9.374,9.2937,9.2727,9.2571,9.1848,9.1696,9.1486,9.0862,9.0797,9.0755,9.0685,9.074,9.0968,9.1701,9.1802,9.1358,9.0247,9.005,9.0158,8.6962,8.727,8.6803,8.7007,8.7608,8.7289,8.7046,8.6916,8.702,8.7258,8.7524,8.7698,8.7895,8.8034,8.8325,8.8786,8.9434,8.9626,9.0436,9.1789,9.1791,9.2135,9.2715,9.2751,9.2753,9.2753,9.2751,9.283,9.2982,9.3136,9.3289,9.3482,9.433,9.4758,9.4835,0.0,0.0,0.0,9.8639,9.8793,9.8793,9.8639,9.8214,9.7516,9.7211,0.0,9.5064,9.3869,9.2595,9.1244,8.9895,0.0,0.0,0.0,0.0,0.0,0.0,0.0,0.0,0.0,0.0,0.0,7.8804,7.8996,7.8927,8.1971,8.4153,8.4644,8.5289,8.5688,8.5738,8.5722,8.6022,8.6706,8.6759,8.7132,8.8077,8.8184,8.8604,8.9603,9.0306,9.1168,9.2326,9.3087,9.3836,9.4754,9.5018,9.5358,9.6003,9.6045,9.6045,9.6048,9.5975,9.5713,9.4871,9.4774,9.4516,9.3735,9.3506,9.3421,9.3234,9.3182,9.3248,9.2943,9.3133,9.3115,9.3132,9.3239,9.3168,9.346,9.3501,9.3058,9.1565,9.1778,9.2315,8.8774,0.0,8.8796,8.8965,0.0,8.9392,8.9319,8.9084,8.8551,8.859,8.9003,8.9243,8.9462,8.9727,9.0253,9.0743,9.1206,9.1592,9.2246,9.3059,9.3095,9.3292,9.3674,9.3674,9.3674,9.3674,9.3674,9.3674,9.3713,9.4138,9.433,9.4371,9.5213,9.5831,9.629,9.7906,9.9024,9.9447,9.9783,9.9985,9.9946,9.9562,9.8942,9.8096,0.0,0.0,0.0,0.0,0.0,0.0,0.0,0.0,0.0,0.0,0.0,8.3666,8.2364,8.1483,8.1062,8.1046,8.1396,8.228,8.3531,8.3968,8.3199,8.5107,8.6446,8.6888,8.7325,8.7502,8.7445,8.7447,8.7594,8.8015,8.8073,8.8421,8.9267,8.9777,9.0385,9.1238,9.2038,9.2847,9.3738,9.4202,9.4821,9.5557,9.5711,9.5989,9.6671,9.6523,9.6283,9.6283,9.6283,9.617,9.5788,9.5636,9.5324,9.4584,9.4324,9.414,9.3787,9.3708,9.3697,9.3717,9.3767,9.3803,9.3813,9.3825,9.3853,9.3855,9.3855,9.366,9.2817,9.3093,9.343,9.0378,9.0434,9.0725,9.083,9.0806,9.083,9.0861,9.0855,0.0,0.0,0.0,9.0729,9.1038,9.1349,9.2162,9.2617,9.2749,9.3405,9.3753,9.3907,9.3948,9.402,9.4174,9.4177,9.4136,9.4172,9.4174,9.4174,9.4177,9.4869,9.5218,9.5292,9.5942,9.6783,9.7747,9.9276,10.0156,10.0305,10.0877,10.1206,10.115,10.0453,9.969,9.8858,9.8099,9.7308,9.6552,9.5523,9.4681,9.3946,9.2479,9.1163,9.0177,8.8812,8.7632,8.6594,8.5249,8.4484,8.4484,8.4482,8.4815,8.5516,8.7105,8.7711,8.6876,8.7353,8.8096,8.8919,8.8944,8.9024,8.9327,8.9374,8.9434,8.9544,8.9578,8.9897,9.0527,9.1204,9.1903,9.2663,9.3375,9.4177,9.4803,9.5111,9.5485,9.6136,9.6386,9.6826,9.7413,9.7062,9.6598,9.6596,9.6478,9.6285,9.6283,9.6245,9.6007,9.5375,9.5217,9.4936,9.4379,9.4142,9.4142,9.4307,9.4169,9.4231,9.4208,9.4301,9.4174,9.4177,9.4172,9.4136,9.4149,9.4283,9.4388,8.9941,9.0101,9.0239,9.0243,9.0164,9.0263,9.0414,9.0593,9.0946,9.144,9.1991,9.2284,9.2562,9.2891,9.3239,9.3458,9.3557,9.364,9.41,0.0,9.4794,9.5215,9.5899,9.5939,9.5937,9.5937,9.5903,9.5939,9.5939,9.6055,9.6129,9.6132,9.6245,9.7096,9.8553,9.947,10.0314,10.1044,10.1147,10.1132,10.1035,10.0917,10.0499,9.9741,9.8875,9.8079,9.7358,9.5831,9.4951,9.4794,9.3878,9.2642,9.1126,9.0782,8.9981,8.8483,8.8102,8.7985,8.7985,8.7989,8.8053,8.8241,8.9729,9.0036,8.8523,8.8482,8.8891,8.9675,8.9827,9.0355,9.1699,9.1877,9.2087,9.2752,9.2947,9.3028,9.3022,9.3185,9.3348,9.3536,9.4283,9.4833,9.5102,9.5638,9.6055,9.6365,9.6908,9.7639,9.8255,9.7853,9.7379,9.7216,9.6747,9.636,9.6362,9.6324,9.6206,9.6127,9.6045,9.5966,9.5769,9.569,9.569,9.5848,9.5738,9.5781,9.5824,9.5937,9.5785,9.5708,9.5708,9.5747,9.5747,9.5831,9.5709,9.1072,9.1172,9.1303,9.137,9.131,9.1383,9.1539,9.1836,9.2205,9.2232,9.2078,9.2409,9.2781,9.32,9.3879,9.4223,9.4322,9.4878,9.5326,9.5675,9.5711,9.5905,9.6245,9.6283,9.6283,9.6283,9.6283,9.6283,9.6283,9.6283,9.6283,9.6362,9.7211,9.8293,9.9478,10.0229,10.0763,10.1085,10.1024,10.0965,10.0872,10.0872,10.0514,9.9675,9.8984,9.8227,9.7469,9.6334,9.5475,9.5,9.4638,9.3821,9.2629,9.2547,9.2219,9.1447,9.0983,9.0947,9.1368,9.1392,9.1433,9.1407,9.2117,9.2251,9.148,9.1387,9.1572,9.1936,9.1977,9.2251,9.3061,9.3147,9.3298,9.3663,9.3699,9.3699,9.3738,9.4158,9.4385,9.4468,9.5168,9.5713,9.5713,9.6057,9.6283,9.6399,9.7315,9.8478,9.9382,9.9178,9.8745,9.8252,9.7516,9.7016,9.6939,9.6557,9.6324,9.6283,9.6283,9.6283,9.6283,9.6283,9.6283,9.6283,9.6283,9.6283,9.6283,9.6283,9.6283,9.6283,9.6283,9.6283,9.6324,9.6603,9.679,9.2029,9.2051,9.2226,9.2255,9.2259,9.2299,9.2502,9.281,9.2998,9.2784,9.2336,9.2753,9.3212,9.3693,9.4552,9.4992,9.5209,9.591,9.6265,9.6283,9.6283,9.6283,9.6283,9.6283,9.6283,9.6283,9.6283,9.6283,9.6283,9.6283,9.6401,9.6747,9.8252,9.9435,10.0067,10.077,10.1072,10.093,10.077,10.0705,10.0705,10.0702,10.0407,9.9755,9.9162,9.8485,9.7708,9.6962,9.6158,9.5371,9.5317,9.4882,9.4065,9.3995,9.3907,9.3676,9.3136,9.3059,9.364,9.3708,9.3685,9.371,9.3907,9.3991,9.4,9.4181,9.4097,9.379,9.3597,9.3717,9.3919,9.3995,9.4048,9.423,9.4262,9.4386,9.4341,9.4895,9.5301,9.5367,9.5905,9.6285,9.6283,9.6283,9.6482,9.7064,9.8173,9.9379,10.0168,10.0368,10.0034,9.9435,9.8483,9.7867,9.775,9.7363,9.6901,9.667,9.6598,9.6521,9.6403,9.6283,9.6283,9.6283,9.6283,9.6283,9.6283,9.6283,9.6283,9.6283,9.6283,9.6362,9.6641,9.7275,9.7617,9.184,9.1835,9.1908,9.1858,9.1968,9.2125,9.232,9.25,9.2793,9.3175,9.3481,9.4138,9.4653,9.5162,9.5391,9.562,9.5924,9.6069,9.6196,9.6272,9.6283,9.6283,9.6279,9.6281,9.6283,9.6283,9.6283,9.6283,9.6285,9.6324,9.667,9.7519,9.9139,9.994,10.0035,10.0655,10.0913,10.0639,10.051,10.0441,10.0444,10.0441,10.0459,10.0504,9.9896,9.9258,9.8505,9.777,9.7016,9.6281,9.6168,9.5772,9.4977,9.4864,9.4534,9.3826,9.3638,9.3636,9.3715,9.3679,9.3778,9.3764,9.4482,9.4871,9.4895,9.5575,9.5365,9.4213,9.3751,9.414,9.4758,9.4889,9.5154,9.5735,9.5887,9.6048,9.5966,9.6125,9.6168,9.6168,9.6209,9.6283,9.6283,9.6362,9.6958,9.8297,9.9163,10.013,10.0882,10.1041,10.1043,10.0743,9.975,9.8832,9.8675,9.8639,9.8098,9.7557,9.7422,9.7194,9.68,9.6521,9.6324,9.6786,9.6403,9.6442,9.6362,9.6283,9.6324,9.6478,9.6519,9.6603,9.7275,9.81,9.8355,9.1812,9.1845,9.2354,9.2831,9.3253,9.3359,9.3207,9.2966,9.3303,9.3499,9.3554,9.3999,9.4547,9.517,9.548,9.5719,9.5908,9.5979,9.5991,9.6071,9.6071,9.6102,9.6158,9.616,9.6225,9.6279,9.6283,9.6283,9.636,9.6783,9.7673,9.8947,9.9796,10.0281,10.0632,10.0803,10.0775,10.0598,10.0325,10.0174,10.0196,10.0328,10.0428,10.0439,9.9956,9.9556,9.9158,9.8118,9.7329,9.6997,9.6562,9.6125,9.5808,9.5769,9.562,9.5249,9.5247,9.5247,9.5249,9.5208,9.5238,9.5215,9.5532,9.5769,9.5769,9.6125,9.5975,9.5401,9.5211,9.5403,9.5713,9.5758,9.5915,9.6209,9.6283,9.6283,9.6283,9.6283,9.6283,9.6283,9.6283,9.6283,9.6365,9.672,9.7701,9.9177,9.9938,10.0449,10.112,10.1279,10.1279,10.1243,10.0671,10.0135,9.9675,9.9101,9.8716,9.8411,9.8283,9.803,9.7869,9.7751,9.7785,9.7752,9.7331,9.7062,9.706,9.6593,9.6399,9.6788,9.7544,9.7902,9.823,9.8949,9.9276,9.1955,9.2285,9.3088,9.3749,9.4304,9.4304,9.3929,9.3389,9.369,9.3582,9.3338,9.3687,9.4189,9.4828,9.5212,9.5517,9.5721,9.5779,9.5852,9.5903,9.5872,9.5951,9.6056,9.6088,9.6175,9.6277,9.6505,9.6745,9.7057,9.7824,9.8868,9.9986,10.0308,10.0662,10.108,10.0897,10.0659,10.0483,10.0104,9.9934,9.9927,10.0123,10.0278,10.0304,10.011,9.9927,9.9699,9.8713,9.7951,9.7513,9.692,9.6523,9.6324,9.6283,9.6283,9.6283,9.6283,9.6283,9.6283,9.6283,9.6283,9.6283,9.6283,9.6283,9.6283,9.6283,9.6283,9.6245,9.6283,9.6247,9.6283,9.6283,9.6283,9.6283,9.6283,9.6283,9.6283,9.6283,9.6283,9.6283,9.6283,9.6401,9.6713,9.7576,9.8785,9.9786,10.0291,10.0603,10.112,10.1279,10.1279,10.1279,10.1281,10.1053,10.0483,10.0024,9.9483,9.9178,9.9163,9.9052,9.891,9.8792,9.8776,9.8253,9.8046,9.7908,9.7867,9.7403,9.7093,9.7795,9.8509,9.9103,9.9149,9.9889,10.03,9.2281,9.312,9.3942,9.4304,9.4341,9.4377,9.3966,9.3464,9.3572,9.3397,9.3103,9.3465,9.3954,9.4373,9.4677,9.5122,9.5565,9.5612,9.5724,9.5857,9.5882,9.5903,9.592,9.6054,9.6141,9.6316,9.6967,9.7779,9.8637,9.9486,10.0027,10.014,10.0744,10.1096,10.1005,10.0742,10.045,10.0212,9.996,9.9773,9.9631,9.9752,9.997,10.0199,10.0568,10.0385,9.9855,9.9871,9.9223,9.7588,9.7472,9.7078,9.6403,9.6324,9.6283,9.6283,9.6283,9.6283,9.6283,9.6283,9.6283,9.6283,9.6283,9.6283,9.6283,9.6283,9.6283,9.6283,9.6283,9.6283,9.6283,9.6283,9.6283,9.6283,9.6283,9.6283,9.6283,9.6399,9.6283,9.636,9.6476,9.6903,9.748,9.8927,9.9711,10.0245,10.0762,10.1205,10.1241,10.1279,10.1279,10.1279,10.1279,10.1279,10.1205,10.0861,10.0596,10.0291,9.9976,9.9846,9.9224,9.8793,9.8849,9.8872,9.8846,9.8789,9.874,9.8714,9.8598,9.899,9.95,9.9925,10.0024,10.0712,10.1007,9.3414,9.4657,9.4955,9.5359,9.5804,9.5846,9.5402,9.4701,9.4301,9.3941,9.353,9.3296,9.3493,9.4054,9.4161,9.4628,9.5292,9.5365,9.5376,9.5468,9.5535,9.5613,9.5737,9.5843,9.6283,9.694,9.7294,9.8193,9.9524,9.9952,10.037,10.0813,10.1075,10.116,10.0973,10.0647,10.0352,10.0088,9.9837,9.962,9.95,9.9613,9.9789,10.0088,10.0471,10.0611,10.0537,10.0192,9.9677,9.9192,9.8151,9.7345,9.7048,9.6589,9.6283,9.6283,9.6283,9.6283,9.6283,9.6283,9.6283,9.6283,9.6283,9.6283,9.6283,9.6283,9.6283,9.6283,9.6283,9.6283,9.6283,9.6283,9.6283,9.6283,9.6285,9.6324,9.6396,9.6735,9.7072,9.7151,9.7509,9.8252,9.8911,9.9738,10.0284,10.0762,10.1137,10.1284,10.1279,10.1279,10.1279,10.1279,10.1279,10.1279,10.1279,10.1279,10.1166,10.1015,10.0817,10.0777,10.0349,10.0192,10.0255,10.0096,9.993,9.9627,9.9591,9.9637,9.9639,9.9757,10.0308,10.0608,10.0866,10.113,10.1243,9.4258,9.5428,9.5758,9.6199,9.669,9.6727,9.6098,9.5126,9.4683,9.4108,9.3454,9.3029,9.3204,9.368,9.3866,9.4217,9.4854,9.4999,9.511,9.5188,9.5274,9.5417,9.5543,9.5664,9.6298,9.7308,9.8012,9.9077,10.0322,10.0486,10.0789,10.1241,10.1193,10.1066,10.0872,10.0542,10.0215,9.9944,9.9652,9.9468,9.9355,9.9464,9.9679,9.9947,10.0262,10.0644,10.0989,10.0579,10.0214,9.9945,9.894,9.8103,9.7516,9.6978,9.6557,9.6324,9.6283,9.6283,9.6283,9.6283,9.6283,9.6283,9.6283,9.6283,9.6283,9.6283,9.6283,9.6283,9.6285,9.6362,9.6634,9.6716,9.66,9.6403,9.6523,9.6682,9.6718,9.7435,9.7846,9.8038,9.8666,9.9409,9.9988,10.0308,10.0726,10.1286,10.1279,10.1279,10.1279,10.1279,10.1279,10.1279,10.1279,10.1279,10.1279,10.1279,10.1279,10.1205,10.1128,10.1241,10.1279,10.1279,10.1279,10.1161,10.0966,10.062,10.0471,10.0481,10.0483,10.0486,10.0714,10.1017,10.1166,10.1243,10.1279,9.4777,9.5611,9.635,9.6653,9.6727,9.6727,9.5804,9.4631,9.4485,9.3797,9.2809,9.2772,9.3023,9.3385,9.3668,9.3995,9.4265,9.46,9.4895,9.5113,9.5158,9.5242,9.5412,9.5657,9.6383,9.7534,9.9196,10.0438,10.1169,10.1166,10.1243,10.124,10.1119,10.0962,10.0784,10.0435,10.0094,9.9803,9.9553,9.9322,9.9148,9.9315,9.9557,9.9803,10.0104,10.0495,10.0948,10.107,10.0791,10.0274,10.0034,9.9233,9.7874,9.7526,9.7211,9.6632,9.6401,9.6401,9.6403,9.6482,9.66,9.6562,9.6442,9.6562,9.6641,9.6557,9.6555,9.6596,9.6593,9.6747,9.7406,9.7533,9.7271,9.6603,9.7117,9.7511,9.7653,9.8262,9.8829,9.8983,9.9601,10.0065,10.0296,10.0717,10.1171,10.1243,10.1279,10.1279,10.1279,10.1279,10.1279,10.1279,10.1279,10.1279,10.1279,10.1279,10.1279,10.1279,10.1241,10.1279,10.1279,10.1279,10.1279,10.1238,10.1238,10.093,10.0892,10.0938,10.0976,10.1053,10.1279,10.1279,10.1279,10.1279,10.1279,9.5575,9.6313,9.6607,9.6727,9.6727,9.6727,9.6061,9.507,9.4627,9.3837,9.3078,9.2696,9.2743,9.3061,9.3313,9.3626,9.3987,9.416,9.4377,9.4738,9.4879,9.5042,9.5391,9.6036,9.7251,9.8886,10.0265,10.1056,10.1243,10.1279,10.129,10.1208,10.1082,10.0905,10.0656,10.0371,10.0042,9.9662,9.9489,9.9264,9.9031,9.9249,9.9535,9.9786,10.0078,10.0433,10.0973,10.1043,10.1034,10.089,10.0377,9.9553,9.8632,9.8389,9.8291,9.8057,9.8019,9.8038,9.8025,9.7989,9.7948,9.7989,9.7989,9.803,9.8025,9.7958,9.7944,9.7951,9.8024,9.8173,9.8329,9.8411,9.8269,9.8063,9.8227,9.8391,9.8536,9.918,9.9882,10.0435,10.0786,10.0902,10.094,10.1243,10.1281,10.1279,10.1279,10.1279,10.1279,10.1279,10.1279,10.1279,10.1279,10.1279,10.1279,10.1279,10.1279,10.1279,10.1279,10.1279,10.1279,10.1279,10.1279,10.1279,10.1279,10.1279,10.1279,10.1279,10.1279,10.1279,10.1279,10.1279,10.1279,10.1279,10.1279,9.5983,9.669,9.6727,9.6727,9.6727,9.6727,9.624,9.5501,9.4997,9.4365,9.3703,9.3054,9.2948,9.3193,9.314,9.3285,9.3642,9.3762,9.4013,9.4349,9.462,9.5015,9.5761,9.7183,9.8358,9.9658,10.0801,10.1279,10.1279,10.1277,10.1273,10.1175,10.1064,10.082,10.0536,10.0272,10.0044,9.9942,9.9868,9.9781,9.9888,10.0165,10.0291,10.0317,10.0527,10.0785,10.0998,10.1008,10.1106,10.1199,10.0803,10.0168,9.9382,9.9269,9.9139,9.8868,9.8793,9.8766,9.8792,9.8677,9.8785,9.8771,9.8803,9.8764,9.8798,9.8772,9.8805,9.8786,9.8752,9.8945,9.918,9.9303,9.9391,9.9711,9.9432,9.9447,9.9702,10.0206,10.0647,10.1084,10.1241,10.1279,10.1279,10.1279,10.1279,10.1279,10.1279,10.1279,10.1279,10.1279,10.1279,10.1279,10.1279,10.1279,10.1279,10.1279,10.1279,10.1279,10.1279,10.1279,10.1279,10.1279,10.1279,10.1279,10.1279,10.1279,10.1279,10.1279,10.1279,10.1279,10.1279,10.1279,10.1279,10.1279,10.1279,9.6015,9.669,9.6727,9.6727,9.6727,9.6727,9.624,9.557,9.5465,9.5008,9.4352,9.3666,9.3559,9.3722,9.3461,9.3425,9.3413,9.3858,9.4141,9.4385,9.4726,9.5469,9.6764,9.8495,9.9474,9.9986,10.0839,10.1274,10.1279,10.1264,10.1263,10.1155,10.1013,10.077,10.0419,10.0133,10.0286,10.0462,10.0492,10.0777,10.1219,10.1596,10.1572,10.1109,10.1284,10.133,10.1195,10.1117,10.1137,10.1255,10.1238,10.0844,10.0293,10.0164,9.9832,9.9214,9.8983,9.9101,9.9026,9.9223,9.9166,9.9204,9.9195,9.8937,9.9151,9.9274,9.9281,9.9226,9.9166,9.9409,9.999,10.0154,10.0462,10.1015,10.0505,10.0495,10.1123,10.12,10.1238,10.1241,10.1279,10.1279,10.1279,10.1279,10.1279,10.1279,10.1279,10.1279,10.1279,10.1279,10.1279,10.1279,10.1279,10.1279,10.1279,10.1279,10.1279,10.1279,10.1279,10.1279,10.1279,10.1279,10.1279,10.1279,10.1279,10.1279,10.1279,10.1279,10.1279,10.1279,10.1279,10.1279,10.1279,10.1279,10.1279,9.6497,9.6685,9.6727,9.6727,9.6727,9.6727,9.624,9.5538,9.5501,9.5131,9.4439,9.4228,9.4227,9.4325,9.4467,9.4633,9.4751,9.499,9.5338,9.5633,9.5898,9.6928,9.8142,9.9098,9.9966,10.0599,10.1024,10.1279,10.1277,10.1256,10.1165,10.1045,10.082,10.0577,10.031,10.0566,10.0675,10.0689,10.1106,10.1322,10.1495,10.1784,10.1947,10.1988,10.1696,10.1686,10.1767,10.1467,10.1256,10.1269,10.1279,10.1241,10.0964,10.0935,10.0786,10.0553,10.0553,10.0591,10.0591,10.0553,10.0584,10.0651,10.0485,10.0644,10.0644,10.0606,10.0613,10.0623,10.0666,10.0668,10.0904,10.0947,10.1096,10.1207,10.1041,10.1002,10.12,10.1279,10.1279,10.1279,10.1279,10.1279,10.1279,10.1279,10.1279,10.1279,10.1279,10.1279,10.1279,10.1279,10.1279,10.1279,10.1279,10.1279,10.1279,10.1279,10.1279,10.1279,10.1279,10.1279,10.1279,10.1279,10.1279,10.1279,10.1279,10.1279,10.1279,10.1279,10.1279,10.1279,10.1279,10.1279,10.1279,10.1279,10.1279,9.6727,9.6727,9.6727,9.6727,9.6727,9.6727,9.6424,9.6052,9.602,9.5763,9.5319,9.4999,9.495,9.5023,9.4904,9.5013,9.5292,9.5474,9.5714,9.6156,9.6828,9.7863,9.8899,9.966,10.0396,10.0942,10.1182,10.1269,10.1305,10.1226,10.1121,10.0989,10.0727,10.0664,10.0821,10.0819,10.1212,10.1573,10.1957,10.2108,10.2383,10.2722,10.277,10.287,10.2623,10.2633,10.2284,10.1656,10.1279,10.1279,10.1279,10.1279,10.1279,10.1279,10.1279,10.1279,10.1279,10.1279,10.1279,10.1279,10.1279,10.1279,10.1279,10.1279,10.1241,10.1279,10.1279,10.1241,10.1279,10.1279,10.1279,10.1279,10.1279,10.1279,10.1279,10.1279,10.1279,10.1279,10.1279,10.1279,10.1279,10.1279,10.1279,10.1279,10.1279,10.1279,10.1279,10.1279,10.1279,10.1279,10.1279,10.1279,10.1279,10.1279,10.1279,10.1279,10.1279,10.1279,10.1279,10.1279,10.1279,10.1279,10.1279,10.1279,10.1279,10.1279,10.1279,10.1279,10.1279,10.1279,10.1279,10.1279,10.1279,10.1279,10.1279,9.6727,9.6727,9.6727,9.6727,9.6727,9.6727,9.669,9.6685,9.6653,9.6607,9.6433,9.5905,9.5762,9.5824,9.5364,9.5053,9.541,9.5794,9.605,9.667,9.7561,9.8561,9.922,10.0119,10.0683,10.1008,10.1216,10.1295,10.1288,10.1216,10.1108,10.0993,10.0811,10.0966,10.1267,10.1202,10.183,10.2603,10.2759,10.3016,10.3499,10.3834,10.3877,10.376,10.3893,10.3367,10.2571,10.1837,10.1438,10.1279,10.1279,10.1279,10.1279,10.1279,10.1279,10.1279,10.1279,10.1279,10.1279,10.1279,10.1279,10.1279,10.1279,10.1279,10.1279,10.1279,10.1279,10.1279,10.1279,10.1279,10.1279,10.1279,10.1279,10.1279,10.1279,10.1279,10.1279,10.1279,10.1279,10.1279,10.1279,10.1279,10.1279,10.1279,10.1279,10.1279,10.1279,10.1279,10.1279,10.1279,10.1279,10.1279,10.1279,10.1279,10.1279,10.1279,10.1279,10.1279,10.1279,10.1279,10.1279,10.1279,10.1279,10.1279,10.1279,10.1279,10.1279,10.1279,10.1279,10.1279,10.1279,10.1279,10.1279,10.1279,10.1279,9.6727,9.6727,9.6727,9.6727,9.6727,9.6727,9.6727,9.6727,9.6727,9.6727,9.6653,9.6502,9.6457,9.6478,9.6362,9.6501,9.6538,9.6867,9.743,9.8056,9.8542,9.9199,9.9712,10.0297,10.0629,10.0927,10.1142,10.1243,10.1263,10.115,10.1032,10.1028,10.1188,10.1309,10.1408,10.2174,10.2596,10.2947,10.3277,10.3633,10.3945,10.4204,10.4428,10.4581,10.4625,10.3889,10.2744,10.2345,10.1974,10.1474,10.1279,10.1279,10.1279,10.1279,10.1279,10.1279,10.1279,10.1279,10.1279,10.1279,10.1279,10.1279,10.1279,10.1279,10.1279,10.1279,10.1279,10.1279,10.1279,10.1279,10.1279,10.1279,10.1279,10.1279,10.1279,10.1279,10.1279,10.1279,10.1279,10.1279,10.1279,10.1279,10.1279,10.1279,10.1279,10.1279,10.1279,10.1279,10.1279,10.1279,10.1279,10.1279,10.1279,10.1279,10.1279,10.1279,10.1279,10.1279,10.1279,10.1279,10.1279,10.1279,10.1279,10.1279,10.1279,10.1279,10.1279,10.1279,10.1279,10.1279,10.1279,10.1279,10.1279,10.1279,10.1279,9.6727,9.6727,9.6727,9.6727,9.6727,9.6727,9.6727,9.6727,9.6727,9.6727,9.6727,9.6727,9.6727,9.6732,9.6805,9.6899,9.711,9.7474,9.7972,9.8462,9.888,9.937,9.987,10.0215,10.0545,10.0924,10.1124,10.1206,10.1195,10.1131,10.1179,10.1393,10.1504,10.1862,10.2191,10.2818,10.3131,10.3436,10.3641,10.39,10.4105,10.4239,10.4668,10.5072,10.4983,10.4366,10.3775,10.2908,10.2397,10.1933,10.1548,10.1317,10.1279,10.1279,10.1279,10.1279,10.1279,10.1279,10.1279,10.1279,10.1279,10.1279,10.1279,10.1279,10.1279,10.1279,10.1279,10.1279,10.1279,10.1279,10.1279,10.1279,10.1279,10.1279,10.1279,10.1279,10.1279,10.1279,10.1279,10.1279,10.1279,10.1279,10.1279,10.1279,10.1279,10.1279,10.1279,10.1279,10.1279,10.1279,10.1279,10.1279,10.1279,10.1279,10.1279,10.1279,10.1279,10.1279,10.1279,10.1279,10.1279,10.1279,10.1279,10.1279,10.1279,10.1279,10.1279,10.1279,10.1279,10.1279,10.1279,10.1279,10.1279,10.1279,10.1279,9.6727,9.6727,9.6727,9.6727,9.6727,9.6727,9.6727,9.6727,9.6727,9.6727,9.6727,9.6727,9.6727,9.6727,9.6732,9.6814,9.7091,9.7443,9.7891,9.8374,9.8795,9.9298,9.9783,10.0133,10.0507,10.0973,10.109,10.1147,10.1185,10.1209,10.1507,10.1829,10.1985,10.2413,10.3189,10.3319,10.3449,10.3786,10.3744,10.3868,10.4064,10.4255,10.4702,10.5317,10.5294,10.5018,10.4611,10.3825,10.29,10.2584,10.1894,10.1474,10.1317,10.1279,10.1279,10.1279,10.1279,10.1279,10.1279,10.1279,10.1279,10.1279,10.1279,10.1279,10.1279,10.1279,10.1279,10.1279,10.1279,10.1279,10.1279,10.1279,10.1279,10.1279,10.1279,10.1279,10.1279,10.1279,10.1279,10.1279,10.1279,10.1279,10.1279,10.1279,10.1279,10.1279,10.1279,10.1279,10.1279,10.1279,10.1279,10.1279,10.1279,10.1279,10.1279,10.1279,10.1279,10.1279,10.1279,10.1279,10.1279,10.1279,10.1279,10.1279,10.1279,10.1279,10.1279,10.1279,10.1279,10.1279,10.1279,10.1279,10.1279,10.1279,10.1279,9.6727,9.6727,9.6727,9.6727,9.6727,9.6727,9.6727,9.6727,9.6727,9.6727,9.6727,9.6727,9.6727,9.6727,9.6727,9.6805,9.704,9.7349,9.7719,9.8183,9.867,9.9199,9.9742,10.0091,10.0501,10.0894,10.1043,10.1128,10.139,10.1703,10.1966,10.2135,10.2788,10.3364,10.3422,10.3525,10.3605,10.3738,10.3701,10.3812,10.4044,10.4316,10.4734,10.5525,10.5591,10.552,10.52,10.4833,10.403,10.2773,10.2489,10.1979,10.1474,10.1279,10.1279,10.1279,10.1279,10.1279,10.1279,10.1279,10.1279,10.1279,10.1279,10.1279,10.1279,10.1279,10.1279,10.1279,10.1279,10.1279,10.1279,10.1279,10.1279,10.1279,10.1279,10.1279,10.1279,10.1279,10.1279,10.1279,10.1279,10.1279,10.1279,10.1279,10.1279,10.1279,10.1279,10.1279,10.1279,10.1279,10.1279,10.1279,10.1279,10.1279,10.1279,10.1279,10.1279,10.1279,10.1279,10.1279,10.1279,10.1279,10.1279,10.1279,10.1279,10.1279,10.1279,10.1279,10.1279,10.1279,10.1279,10.1279,10.1279,10.1279,10.1279,9.6727,9.6727,9.6727,9.6727,9.6727,9.6727,9.6727,9.6727,9.6727,9.6727,9.6727,9.6727,9.6727,9.6727,9.6727,9.6809,9.7003,9.7207,9.7618,9.8116,9.8614,9.9118,9.9687,10.0045,10.0468,10.0795,10.0973,10.1298,10.1688,10.1988,10.2483,10.3048,10.3545,10.3732,10.3791,10.3777,10.3738,10.3626,10.3606,10.3763,10.4148,10.4463,10.5108,10.5478,10.5862,10.5904,10.5779,10.5256,10.4513,10.3462,10.2815,10.2169,10.1589,10.1279,10.1279,10.1279,10.1279,10.1279,10.1279,10.1279,10.1279,10.1279,10.1279,10.1279,10.1279,10.1279,10.1279,10.1279,10.1279,10.1279,10.1279,10.1279,10.1279,10.1279,10.1279,10.1279,10.1279,10.1279,10.1279,10.1279,10.1279,10.1279,10.1279,10.1279,10.1279,10.1279,10.1279,10.1279,10.1279,10.1279,10.1279,10.1279,10.1279,10.1279,10.1279,10.1279,10.1279,10.1279,10.1279,10.1279,10.1279,10.1279,10.1279,10.1279,10.1279,10.1279,10.1279,10.1279,10.1279,10.1279,10.1279,10.1279,10.1279,10.1279,10.1279,9.6727,9.6727,9.6727,9.6727,9.6727,9.6727,9.6727,9.6727,9.6727,9.6727,9.6727,9.6727,9.6727,9.6727,9.6741,9.6781,9.6961,9.7161,9.7569,9.7948,9.8523,9.9035,9.9499,9.9983,10.0401,10.0816,10.1258,10.1575,10.2043,10.2454,10.3088,10.3601,10.3831,10.3988,10.4142,10.3822,10.3664,10.3514,10.3543,10.3734,10.4208,10.4783,10.5316,10.5606,10.5862,10.6093,10.6182,10.579,10.5074,10.4172,10.3375,10.2484,10.1712,10.1399,10.1317,10.1279,10.1279,10.1279,10.1279,10.1279,10.1279,10.1279,10.1279,10.1279,10.1279,10.1279,10.1279,10.1279,10.1279,10.1279,10.1279,10.1279,10.1279,10.1279,10.1279,10.1279,10.1279,10.1279,10.1279,10.1279,10.1279,10.132,10.1358,10.1279,10.1279,10.1279,10.1279,10.1279,10.1279,10.1279,10.1279,10.1279,10.1279,10.1279,10.1279,10.1279,10.1279,10.1279,10.1279,10.1279,10.1279,10.1279,10.1279,10.1279,10.1279,10.1279,10.1279,10.1279,10.1279,10.1279,10.1279,10.1279,10.1279,10.1279,10.1279,9.6727,9.6727,9.6727,9.6727,9.6727,9.6727,9.6727,9.6727,9.6727,9.6727,9.6727,9.6727,9.6727,9.6727,9.6727,9.6705,9.6833,9.7124,9.7448,9.7754,9.8365,9.8933,9.937,9.9837,10.0314,10.0856,10.163,10.2022,10.2479,10.3016,10.3523,10.4029,10.4367,10.4483,10.4032,10.3664,10.3267,10.3141,10.3245,10.3651,10.4258,10.4761,10.5215,10.554,10.5859,10.6131,10.6361,10.6131,10.569,10.49,10.4154,10.3338,10.2501,10.1676,10.1397,10.1279,10.1279,10.1279,10.1279,10.1279,10.1279,10.1279,10.1279,10.1279,10.1279,10.1279,10.1279,10.1279,10.1279,10.1279,10.1279,10.1279,10.1279,10.1279,10.1279,10.1279,10.1279,10.1279,10.1279,10.1279,10.1279,10.1397,10.1438,10.1358,10.1279,10.1279,10.1279,10.1317,10.1279,10.1279,10.1279,10.1279,10.1279,10.1279,10.1279,10.1279,10.1279,10.1279,10.1279,10.1279,10.1279,10.1279,10.1279,10.1279,10.1279,10.1279,10.1279,10.1279,10.1279,10.1279,10.1279,10.1279,10.1279,10.1279,10.1279,9.6727,9.6727,9.6727,9.6727,9.6727,9.6727,9.6727,9.6727,9.6727,9.6727,9.6727,9.6727,9.6727,9.6727,9.6727,9.6727,9.6776,9.7105,9.7453,9.7759,9.8377,9.8979,9.946,9.9896,10.0351,10.0904,10.1734,10.252,10.3005,10.3673,10.4278,10.4513,10.4552,10.4358,10.3944,10.3509,10.3223,10.3145,10.3277,10.3704,10.4251,10.4747,10.5195,10.5568,10.5856,10.6131,10.6302,10.6359,10.5962,10.5177,10.4351,10.3491,10.2655,10.1835,10.1279,10.1279,10.1279,10.1279,10.1279,10.1279,10.1279,10.1279,10.1279,10.1279,10.1279,10.1279,10.1279,10.1279,10.1279,10.1279,10.1279,10.1279,10.1279,10.1279,10.1279,10.1279,10.1279,10.1279,10.1279,10.1279,10.1356,10.1553,10.1748,10.1707,10.163,10.1476,10.1438,10.1358,10.1358,10.1279,10.1279,10.1279,10.1279,10.1279,10.1279,10.1279,10.1279,10.1279,10.1279,10.1279,10.1279,10.1279,10.1279,10.1279,10.1279,10.1279,10.1279,10.1279,10.1279,10.1279,10.1279,10.1279,10.1279,10.1279,10.1279,9.6727,9.6727,9.6727,9.6727,9.6727,9.6727,9.6727,9.6727,9.6727,9.6727,9.6727,9.6727,9.6727,9.6727,9.6727,9.6727,9.6714,9.7101,9.7416,9.7867,9.8434,9.8998,9.9456,9.9916,10.0345,10.0869,10.2131,10.2827,10.3549,10.4338,10.4893,10.4989,10.4578,10.4225,10.3762,10.3408,10.3132,10.3145,10.3327,10.3717,10.4251,10.4704,10.513,10.5516,10.5859,10.609,10.632,10.6397,10.5962,10.5533,10.4431,10.3612,10.2977,10.1993,10.1358,10.1279,10.1279,10.1279,10.1279,10.1279,10.1279,10.1279,10.1279,10.1279,10.1279,10.1279,10.1279,10.1279,10.1279,10.1279,10.1279,10.1279,10.1279,10.1279,10.1279,10.1279,10.1279,10.1279,10.1317,10.1394,10.1589,10.2015,10.2133,10.2133,10.2017,10.1712,10.1597,10.1517,10.1397,10.1317,10.1279,10.1279,10.1279,10.1279,10.1279,10.1279,10.1279,10.1279,10.1279,10.1279,10.1279,10.1279,10.1279,10.1279,10.1279,10.1279,10.1279,10.1279,10.1279,10.1279,10.1279,10.1279,10.1279,10.1279,10.1279,9.6727,9.6727,9.6727,9.6727,9.6727,9.6727,9.6727,9.6727,9.6727,9.6727,9.6727,9.6727,9.6727,9.6727,9.6727,9.6727,9.6746,9.7105,9.7379,9.7741,9.8275,9.8918,9.9421,9.9879,10.0328,10.1024,10.2329,10.3213,10.3771,10.4791,10.511,10.4992,10.4537,10.4016,10.3589,10.3223,10.3145,10.3184,10.3348,10.3688,10.4217,10.4683,10.5098,10.5531,10.5862,10.6129,10.6379,10.6397,10.6321,10.6044,10.471,10.3927,10.3372,10.2111,10.1399,10.1279,10.1279,10.1279,10.1279,10.1279,10.1279,10.1279,10.1279,10.1279,10.1279,10.1279,10.1279,10.1279,10.1279,10.1279,10.1279,10.1279,10.1279,10.1279,10.1279,10.1279,10.1279,10.1279,10.1356,10.1474,10.182,10.2402,10.3094,10.3212,10.2907,10.2602,10.2073,10.1993,10.1438,10.1279,10.1279,10.1279,10.1279,10.1279,10.1279,10.1279,10.1279,10.1279,10.1279,10.1279,10.1279,10.1279,10.1279,10.1279,10.1279,10.1279,10.1279,10.1279,10.1279,10.1279,10.1279,10.1279,10.1279,10.1279,10.1279,9.6727,9.6727,9.6727,9.6727,9.6727,9.6727,9.6727,9.6727,9.6727,9.6727,9.6727,9.6727,9.6727,9.6727,9.6727,9.6727,9.6784,9.7105,9.7402,9.7841,9.8368,9.9005,9.9541,9.9965,10.0416,10.1192,10.2594,10.3487,10.3643,10.4927,10.5135,10.4885,10.443,10.3883,10.3446,10.3075,10.3048,10.3245,10.34,10.3762,10.4324,10.4761,10.5185,10.57,10.5882,10.6139,10.632,10.6392,10.6397,10.5977,10.4753,10.4204,10.3651,10.2229,10.1476,10.1317,10.1279,10.1279,10.1279,10.1279,10.1279,10.1279,10.1279,10.1279,10.1279,10.1279,10.1279,10.1279,10.1279,10.1279,10.1279,10.1279,10.1279,10.1279,10.1279,10.1279,10.1279,10.1279,10.1628,10.1861,10.2402,10.2943,10.3712,10.4446,10.3989,10.3532,10.2963,10.235,10.1714,10.1279,10.1279,10.1279,10.1279,10.1279,10.1279,10.1279,10.1279,10.1279,10.1279,10.1279,10.1279,10.1279,10.1279,10.1279,10.1279,10.1279,10.1279,10.1279,10.1279,10.1279,10.1279,10.1279,10.1279,10.1279,10.1279,9.6727,9.6727,9.6727,9.6727,9.6727,9.6727,9.6727,9.6727,9.6727,9.6727,9.6727,9.6727,9.6727,9.6727,9.6727,9.6727,9.6837,9.7105,9.7493,9.7922,9.8469,9.914,9.9676,10.0085,10.0471,10.1285,10.2537,10.349,10.3542,10.4927,10.5129,10.4808,10.4281,10.3767,10.3331,10.2951,10.2884,10.3167,10.3447,10.3829,10.444,10.4839,10.5257,10.5727,10.5958,10.6137,10.6335,10.6397,10.6397,10.5979,10.5179,10.4281,10.348,10.2667,10.1714,10.1397,10.1279,10.1279,10.1279,10.1279,10.1279,10.1279,10.1279,10.1279,10.1279,10.1279,10.1279,10.1279,10.1279,10.1279,10.1279,10.1279,10.1279,10.1279,10.1279,10.1279,10.1279,10.1317,10.1861,10.2325,10.2904,10.3522,10.413,10.4782,10.4305,10.3741,10.3037,10.2342,10.1597,10.1279,10.1279,10.1279,10.1279,10.1279,10.1279,10.1279,10.1279,10.1279,10.1279,10.1279,10.1279,10.1279,10.1279,10.1279,10.1279,10.1279,10.1279,10.1279,10.1279,10.1279,10.1279,10.1279,10.1279,10.1279,10.1279,9.6727,9.6727,9.6727,9.6727,9.6727,9.6727,9.6727,9.6727,9.6727,9.6727,9.6727,9.6727,9.6727,9.6727,9.6727,9.6727,9.6776,9.7105,9.7493,9.7879,9.8485,9.9174,9.9683,10.0136,10.0518,10.1288,10.2594,10.352,10.3509,10.493,10.5167,10.4736,10.412,10.3597,10.3262,10.2911,10.283,10.304,10.3358,10.3889,10.4451,10.4874,10.5281,10.5742,10.5967,10.6134,10.6346,10.6397,10.6397,10.6169,10.5446,10.4584,10.3798,10.298,10.2111,10.1397,10.1317,10.1279,10.1279,10.1279,10.1279,10.1279,10.1279,10.1279,10.1279,10.1279,10.1279,10.1279,10.1279,10.1279,10.1279,10.1279,10.1279,10.1279,10.1279,10.1279,10.1279,10.1317,10.1822,10.2525,10.3333,10.41,10.4666,10.4962,10.4511,10.3905,10.3138,10.2335,10.1515,10.1279,10.1279,10.1279,10.1279,10.1279,10.1279,10.1279,10.1279,10.1279,10.1279,10.1279,10.1279,10.1279,10.1279,10.1279,10.1279,10.1279,10.1279,10.1279,10.1279,10.1279,10.1279,10.1279,10.1279,10.1279,10.1279,9.6727,9.6727,9.6727,9.6727,9.6727,9.6727,9.6727,9.6727,9.6727,9.6727,9.6727,9.6727,9.6727,9.6727,9.6727,9.6727,9.6762,9.7105,9.7493,9.7874,9.8485,9.9174,9.9742,10.0184,10.0572,10.1387,10.2631,10.3588,10.3514,10.4933,10.5167,10.4736,10.3915,10.331,10.2982,10.2776,10.2861,10.3197,10.3585,10.4026,10.4639,10.4992,10.5387,10.5885,10.5968,10.6137,10.6377,10.6395,10.6397,10.6323,10.5597,10.4805,10.3975,10.3122,10.2232,10.1517,10.1279,10.1279,10.1279,10.1279,10.1279,10.1279,10.1279,10.1279,10.1279,10.1279,10.1279,10.1279,10.1279,10.1279,10.1279,10.1279,10.1279,10.1279,10.1279,10.1279,10.1317,10.132,10.163,10.2491,10.3345,10.4105,10.4748,10.4538,10.4126,10.3554,10.2748,10.2178,10.1438,10.132,10.1279,10.1279,10.1279,10.1279,10.1279,10.1279,10.1279,10.1279,10.1279,10.1279,10.1279,10.1279,10.1279,10.1279,10.1279,10.1279,10.1279,10.1279,10.1279,10.1279,10.1279,10.1279,10.1279,10.1279,10.1279,9.6727,9.6727,9.6727,9.6727,9.6727,9.6727,9.6727,9.6727,9.6727,9.6727,9.6727,9.6727,9.6727,9.6727,9.6727,9.6727,9.6733,9.7105,9.7493,9.7878,9.8518,9.9174,9.9724,10.0222,10.0604,10.1409,10.263,10.3642,10.3585,10.4933,10.5036,10.4403,10.3713,10.3184,10.2848,10.2762,10.2857,10.3197,10.3535,10.4097,10.4654,10.5084,10.546,10.583,10.6013,10.6134,10.6294,10.6397,10.6397,10.6208,10.5787,10.4984,10.4069,10.3314,10.2426,10.1714,10.1279,10.1279,10.1279,10.1279,10.1279,10.1279,10.1279,10.1279,10.1279,10.1279,10.1279,10.1279,10.1279,10.1279,10.1279,10.1279,10.1279,10.1279,10.1279,10.1279,10.1317,10.132,10.1597,10.2458,10.3037,10.3835,10.4405,10.4,10.3593,10.2957,10.2325,10.1861,10.1438,10.1358,10.1279,10.1279,10.1279,10.1279,10.1279,10.1279,10.1279,10.1279,10.1279,10.1279,10.1279,10.1279,10.1279,10.1279,10.1279,10.1279,10.1279,10.1279,10.1279,10.1279,10.1279,10.1279,10.1279,10.1279,10.1279,9.6727,9.6727,9.6727,9.6727,9.6727,9.6727,9.6727,9.6727,9.6727,9.6727,9.6727,9.6727,9.6727,9.6727,9.6727,9.6727,9.6771,9.7147,9.7488,9.7897,9.8489,9.9174,9.9735,10.0202,10.0633,10.1483,10.2603,10.3709,10.3695,10.4776,10.4833,10.4069,10.3543,10.3097,10.2834,10.2739,10.2861,10.318,10.3556,10.4136,10.4731,10.506,10.5491,10.583,10.6004,10.6156,10.6286,10.6397,10.6397,10.6359,10.6285,10.5287,10.4494,10.3911,10.2778,10.1835,10.132,10.1279,10.1279,10.1279,10.1279,10.1279,10.1279,10.1279,10.1279,10.1279,10.1279,10.1279,10.1279,10.1279,10.1279,10.1279,10.1279,10.1279,10.1279,10.1279,10.1279,10.1438,10.1717,10.2183,10.2527,10.3099,10.3556,10.3385,10.3023,10.2423,10.1935,10.1705,10.1358,10.1358,10.1279,10.1279,10.1279,10.1279,10.1279,10.1279,10.1279,10.1279,10.1279,10.1279,10.1279,10.1279,10.1279,10.1279,10.1279,10.1279,10.1279,10.1279,10.1279,10.1279,10.1279,10.1279,10.1279,10.1279,10.1279,9.6727,9.6727,9.6727,9.6727,9.6727,9.6727,9.6727,9.6727,9.6727,9.6727,9.6727,9.6727,9.6727,9.6727,9.6727,9.6727,9.6843,9.7105,9.7456,9.7935,9.8485,9.9136,9.9755,10.0297,10.0673,10.1523,10.2642,10.3697,10.3753,10.4646,10.4695,10.3871,10.3472,10.3097,10.2848,10.2717,10.2929,10.3215,10.3572,10.4147,10.4683,10.5064,10.5516,10.5848,10.5996,10.6167,10.6343,10.6395,10.6397,10.6397,10.6397,10.5592,10.41,10.3829,10.3144,10.1597,10.1279,10.1279,10.1279,10.1279,10.1279,10.1279,10.1279,10.1279,10.1279,10.1279,10.1279,10.1279,10.1279,10.1279,10.1279,10.1279,10.1279,10.1279,10.1279,10.1279,10.1279,10.1358,10.1635,10.1753,10.2097,10.2404,10.2823,10.2851,10.2454,10.1887,10.1548,10.1356,10.1279,10.1279,10.1279,10.1279,10.1279,10.1279,10.1279,10.1279,10.1279,10.1279,10.1279,10.1279,10.1279,10.1279,10.1279,10.1279,10.1279,10.1279,10.1279,10.1279,10.1279,10.1279,10.1279,10.1279,10.1279,10.1279,10.1279,9.6727,9.6727,9.6727,9.6727,9.6727,9.6727,9.6727,9.6727,9.6727,9.6727,9.6727,9.6727,9.6727,9.6727,9.6727,9.6736,9.677,9.711,9.7456,9.7879,9.8485,9.9174,9.9772,10.0337,10.0702,10.1586,10.2665,10.3739,10.3842,10.425,10.4452,10.381,10.3463,10.3097,10.283,10.2744,10.2933,10.3267,10.3684,10.4167,10.4654,10.5108,10.5554,10.5891,10.6007,10.6196,10.6367,10.6395,10.6397,10.6397,10.6397,10.5592,10.3982,10.3316,10.2706,10.1358,10.1279,10.1279,10.1279,10.1279,10.1279,10.1279,10.1279,10.1279,10.1279,10.1279,10.1279,10.1279,10.1279,10.1279,10.1279,10.1279,10.1279,10.1279,10.1279,10.1279,10.1279,10.1279,10.1358,10.1397,10.163,10.1899,10.2087,10.2115,10.1998,10.162,10.1394,10.1356,10.1279,10.1279,10.1279,10.1279,10.1279,10.1279,10.1279,10.1279,10.1279,10.1279,10.1279,10.1279,10.1279,10.1279,10.1279,10.1279,10.1279,10.1279,10.1279,10.1279,10.1279,10.1279,10.1279,10.1279,10.1279,10.1279,10.1279,9.6727,9.6727,9.6727,9.6727,9.6727,9.6727,9.6727,9.6727,9.6727,9.6727,9.6727,9.6727,9.6727,9.6727,9.6727,9.6719,9.6843,9.7138,9.7496,9.7828,9.8485,9.9177,9.9772,10.034,10.071,10.1548,10.2691,10.3949,10.4037,10.4347,10.4452,10.3794,10.3463,10.3101,10.2776,10.2776,10.2986,10.3353,10.37,10.4159,10.4718,10.5188,10.5591,10.5931,10.6126,10.6242,10.6367,10.6397,10.6397,10.6397,10.6169,10.5518,10.4033,10.264,10.1863,10.1358,10.1317,10.1279,10.1279,10.1279,10.1279,10.1279,10.1279,10.1279,10.1279,10.1279,10.1279,10.1279,10.1279,10.1279,10.1279,10.1279,10.1279,10.1279,10.1279,10.1279,10.1279,10.1279,10.1317,10.1358,10.1397,10.1628,10.1628,10.1695,10.1733,10.1356,10.1279,10.1279,10.1279,10.1279,10.1279,10.1279,10.1279,10.1279,10.1279,10.1279,10.1279,10.1279,10.1279,10.1279,10.1279,10.1279,10.1279,10.1279,10.1279,10.1279,10.1279,10.1279,10.1279,10.1279,10.1279,10.1279,10.1279,10.1279,10.1279,9.6727,9.6727,9.6727,9.6727,9.6727,9.6727,9.6727,9.6727,9.6727,9.6727,9.6727,9.6727,9.6727,9.6727,9.6727,9.6748,9.6961,9.717,9.7563,9.8012,9.8594,9.9177,9.981,10.0349,10.0713,10.1548,10.2755,10.4225,10.477,10.4835,10.4493,10.3852,10.3463,10.3097,10.2753,10.2812,10.3097,10.3446,10.3856,10.4244,10.4765,10.5198,10.5588,10.5903,10.6139,10.6255,10.6369,10.6397,10.6397,10.6397,10.6397,10.5497,10.3993,10.2883,10.2017,10.1474,10.1279,10.1279,10.1279,10.1279,10.1279,10.1279,10.1279,10.1279,10.1279,10.1279,10.1279,10.1279,10.1279,10.1279,10.1279,10.1279,10.1279,10.1279,10.1279,10.1279,10.1279,10.1279,10.1279,10.1279,10.1279,10.1279,10.1279,10.1279,10.1279,10.1279,10.1279,10.1279,10.1279,10.1279,10.1279,10.1279,10.1279,10.1279,10.1279,10.1279,10.1279,10.1279,10.1279,10.1279,10.1279,10.1279,10.1279,10.1279,10.1279,10.1279,10.1279,10.1279,10.1279,10.1279,10.1279,10.1279,10.1279,10.1279,10.1279,9.6727,9.6727,9.6727,9.6727,9.6727,9.6727,9.6727,9.6727,9.6727,9.6727,9.6727,9.6727,9.6727,9.6727,9.6727,9.6809,9.7017,9.7198,9.7594,9.8116,9.8626,9.9199,9.9775,10.0352,10.0693,10.1419,10.2878,10.4229,10.5317,10.5057,10.4493,10.3872,10.3467,10.3114,10.2798,10.2924,10.3197,10.351,10.3935,10.4403,10.486,10.5287,10.5643,10.594,10.6175,10.6328,10.6367,10.6397,10.6397,10.6208,10.6018,10.5218,10.4007,10.303,10.2171,10.1551,10.1279,10.1279,10.1279,10.1279,10.1279,10.1279,10.1279,10.1279,10.1279,10.1279,10.1279,10.1279,10.1279,10.1279,10.1279,10.1279,10.1279,10.1279,10.1279,10.1279,10.1279,10.1279,10.1279,10.1279,10.1279,10.1279,10.1279,10.1279,10.1279,10.1279,10.1279,10.1279,10.1279,10.1279,10.1279,10.1279,10.1279,10.1279,10.1279,10.1279,10.1279,10.1279,10.1279,10.1279,10.1279,10.1279,10.1279,10.1279,10.1279,10.1279,10.1279,10.1279,10.1279,10.1279,10.1279,10.1279,10.1279,10.1279,10.1279,9.6727,9.6727,9.6727,9.6727,9.6727,9.6727,9.6727,9.6727,9.6727,9.6727,9.6727,9.6727,9.6727,9.6727,9.6736,9.6862,9.7031,9.7211,9.764,9.8154,9.8577,9.9199,9.9775,10.0305,10.0957,10.1808,10.3032,10.4336,10.553,10.5057,10.4508,10.3904,10.3476,10.311,10.2915,10.2969,10.3249,10.363,10.4069,10.4563,10.4975,10.5425,10.5733,10.599,10.6228,10.6385,10.6397,10.6397,10.6397,10.6092,10.5636,10.4833,10.3989,10.3063,10.221,10.1551,10.1279,10.1279,10.1279,10.1279,10.1279,10.1279,10.1279,10.1279,10.1279,10.1279,10.1279,10.1279,10.1279,10.1279,10.1279,10.1279,10.1279,10.1279,10.1279,10.1279,10.1279,10.1279,10.1279,10.1279,10.1279,10.1279,10.1279,10.1279,10.1279,10.1279,10.1279,10.1279,10.1279,10.1279,10.1279,10.1279,10.1279,10.1279,10.1279,10.1279,10.1279,10.1279,10.1279,10.1279,10.1279,10.1279,10.1279,10.1279,10.1279,10.1279,10.1279,10.1279,10.1279,10.1279,10.1279,10.1279,10.1279,10.1279,10.1279,9.6727,9.6727,9.6727,9.6727,9.6727,9.6727,9.6727,9.6727,9.6727,9.6727,9.6727,9.6727,9.6727,9.6727,9.6727,9.6862,9.717,9.7303,9.7768,9.8341,9.8689,9.9225,9.9806,10.0464,10.1726,10.2623,10.3407,10.4266,10.5149,10.4984,10.4553,10.4012,10.3497,10.3197,10.3044,10.3158,10.3395,10.3774,10.4236,10.4718,10.5158,10.5523,10.5804,10.6065,10.6242,10.6361,10.6397,10.6397,10.6397,10.6131,10.5559,10.4756,10.3912,10.3063,10.2207,10.1551,10.1279,10.1279,10.1279,10.1279,10.1279,10.1279,10.1279,10.1279,10.1279,10.1279,10.1279,10.1279,10.1279,10.1279,10.1279,10.1279,10.1279,10.1279,10.1279,10.1279,10.1279,10.1279,10.1279,10.1279,10.1279,10.1279,10.1279,10.1279,10.1279,10.1279,10.1279,10.1279,10.1279,10.1279,10.1279,10.1279,10.1279,10.1279,10.1279,10.1279,10.1279,10.1279,10.1279,10.1279,10.1279,10.1279,10.1279,10.1279,10.1279,10.1279,10.1279,10.1279,10.1279,10.1279,10.1279,10.1279,10.1279,10.1279,10.1279]},{"header":{"parameterUnit":"m.s-1","parameterCategory":1,"la1":31.0,"la2":29.5877,"lo1":-88.7671,"lo2":-86.6584,"dx":0.0162,"dy":0.0185,"nx":115,"ny":88,"refTime":"2022-11-12T06:00:00:Z","depth":0,"parameterNumber":3,"parameterNumberName":"V-component_of_WINDS"},"data":[0.0,0.0,0.0,0.0,0.0,0.0,0.0,0.0,0.0,0.0,0.0,0.0,0.0,0.0,0.0,0.0,0.0,0.0,0.0,0.0,0.0,0.0,0.0,0.0,0.0,0.0,0.0,0.0,0.0,0.0,0.0,0.0,0.0,0.0,0.0,0.0,0.0,0.0,0.0,0.0,0.0,0.0,0.0,0.0,0.0,0.0,0.0,0.0,0.0,0.0,0.0,0.0,0.0,0.0,0.0,0.0,0.0,0.0,0.0,0.0,0.0,0.0,0.0,0.0,0.0,0.0,0.0,0.0,0.0,0.0,0.0,0.0,0.0,0.0,0.0,0.0,0.0,0.0,0.0,0.0,0.0,0.0,0.0,0.0,0.0,0.0,0.0,0.0,0.0,0.0,0.0,0.0,0.0,0.0,0.0,0.0,0.0,0.0,0.0,0.0,0.0,0.0,0.0,0.0,0.0,0.0,0.0,0.0,0.0,0.0,0.0,0.0,0.0,0.0,0.0,0.0,0.0,0.0,0.0,0.0,0.0,0.0,0.0,0.0,0.0,0.0,0.0,0.0,0.0,0.0,0.0,0.0,0.0,0.0,0.0,0.0,0.0,0.0,0.0,0.0,0.0,0.0,0.0,0.0,0.0,0.0,0.0,0.0,0.0,0.0,0.0,0.0,0.0,0.0,0.0,0.0,0.0,0.0,0.0,0.0,0.0,0.0,0.0,0.0,0.0,0.0,0.0,0.0,0.0,0.0,0.0,0.0,0.0,0.0,0.0,0.0,0.0,0.0,0.0,0.0,0.0,0.0,0.0,0.0,0.0,0.0,0.0,0.0,0.0,0.0,0.0,0.0,0.0,0.0,0.0,0.0,0.0,0.0,0.0,0.0,0.0,0.0,0.0,0.0,0.0,0.0,0.0,0.0,0.0,0.0,0.0,0.0,0.0,0.0,0.0,0.0,0.0,0.0,0.0,0.0,0.0,0.0,0.0,0.0,0.0,0.0,0.0,0.0,0.0,0.0,0.0,0.0,0.0,0.0,0.0,0.0,0.0,0.0,0.0,0.0,0.0,0.0,0.0,0.0,0.0,0.0,0.0,0.0,0.0,0.0,0.0,0.0,0.0,0.0,0.0,0.0,0.0,0.0,0.0,0.0,0.0,0.0,0.0,0.0,0.0,0.0,0.0,0.0,0.0,0.0,0.0,0.0,0.0,0.0,0.0,0.0,0.0,0.0,0.0,0.0,0.0,0.0,0.0,0.0,0.0,0.0,0.0,0.0,0.0,0.0,0.0,0.0,0.0,0.0,0.0,0.0,0.0,0.0,0.0,0.0,0.0,0.0,0.0,0.0,0.0,0.0,0.0,0.0,0.0,0.0,0.0,0.0,0.0,0.0,0.0,0.0,0.0,0.0,0.0,0.0,0.0,0.0,0.0,0.0,0.0,0.0,0.0,0.0,0.0,0.0,0.0,0.0,0.0,0.0,0.0,0.0,0.0,0.0,0.0,0.0,0.0,0.0,0.0,0.0,0.0,0.0,0.0,0.0,0.0,0.0,0.0,0.0,0.0,0.0,0.0,0.0,0.0,0.0,0.0,0.0,0.0,0.0,0.0,0.0,0.0,0.0,0.0,0.0,0.0,0.0,0.0,0.0,0.0,0.0,0.0,0.0,0.0,0.0,0.0,0.0,0.0,0.0,0.0,0.0,0.0,0.0,0.0,0.0,0.0,0.0,0.0,0.0,0.0,0.0,0.0,0.0,0.0,0.0,0.0,0.0,0.0,0.0,0.0,0.0,0.0,0.0,0.0,0.0,0.0,0.0,0.0,0.0,0.0,0.0,0.0,0.0,0.0,0.0,0.0,0.0,0.0,0.0,0.0,0.0,0.0,0.0,0.0,0.0,0.0,0.0,0.0,0.0,0.0,0.0,0.0,0.0,0.0,0.0,0.0,0.0,0.0,0.0,0.0,0.0,0.0,0.0,0.0,0.0,0.0,0.0,0.0,0.0,0.0,0.0,0.0,0.0,0.0,0.0,0.0,0.0,0.0,0.0,0.0,0.0,0.0,0.0,0.0,0.0,0.0,0.0,0.0,0.0,0.0,0.0,0.0,0.0,0.0,0.0,0.0,0.0,0.0,0.0,0.0,0.0,0.0,0.0,0.0,0.0,0.0,0.0,0.0,0.0,0.0,0.0,0.0,0.0,0.0,0.0,0.0,0.0,0.0,0.0,0.0,0.0,0.0,0.0,0.0,0.0,0.0,0.0,0.0,0.0,0.0,0.0,0.0,0.0,0.0,0.0,0.0,0.0,0.0,0.0,0.0,0.0,0.0,0.0,0.0,0.0,0.0,0.0,0.0,0.0,0.0,0.0,0.0,0.0,0.0,0.0,0.0,0.0,0.0,0.0,0.0,0.0,0.0,0.0,0.0,0.0,0.0,0.0,0.0,0.0,0.0,0.0,0.0,0.0,0.0,0.0,0.0,0.0,0.0,0.0,0.0,0.0,0.0,0.0,0.0,0.0,0.0,0.0,0.0,0.0,0.0,0.0,0.0,0.0,0.0,0.0,0.0,0.0,0.0,0.0,0.0,0.0,0.0,0.0,0.0,0.0,0.0,0.0,0.0,0.0,0.0,0.0,0.0,0.0,0.0,0.0,0.0,0.0,0.0,0.0,0.0,0.0,0.0,0.0,0.0,0.0,0.0,0.0,0.0,0.0,0.0,0.0,0.0,0.0,0.0,0.0,0.0,0.0,0.0,0.0,0.0,0.0,0.0,0.0,0.0,0.0,0.0,0.0,0.0,0.0,0.0,0.0,0.0,0.0,0.0,0.0,0.0,0.0,0.0,0.0,0.0,0.0,0.0,0.0,0.0,0.0,0.0,0.0,0.0,0.0,0.0,0.0,0.0,0.0,0.0,0.0,0.0,0.0,0.0,0.0,0.0,0.0,0.0,0.0,0.0,0.0,0.0,0.0,0.0,0.0,0.0,0.0,0.0,0.0,0.0,0.0,0.0,0.0,0.0,0.0,0.0,0.0,0.0,0.0,0.0,0.0,0.0,0.0,0.0,0.0,0.0,0.0,0.0,0.0,0.0,0.0,0.0,0.0,0.0,0.0,0.0,0.0,0.0,0.0,0.0,0.0,0.0,0.0,0.0,0.0,0.0,0.0,0.0,0.0,0.0,0.0,0.0,0.0,0.0,0.0,0.0,0.0,0.0,0.0,0.0,0.0,0.0,0.0,0.0,0.0,0.0,0.0,0.0,0.0,0.0,0.0,0.0,0.0,0.0,0.0,0.0,0.0,0.0,0.0,0.0,0.0,0.0,0.0,0.0,0.0,0.0,0.0,0.0,0.0,0.0,0.0,0.0,0.0,0.0,0.0,0.0,0.0,0.0,0.0,0.0,0.0,0.0,0.0,0.0,0.0,0.0,0.0,0.0,0.0,0.0,0.0,0.0,0.0,0.0,0.0,0.0,0.0,0.0,0.0,0.0,0.0,0.0,0.0,0.0,0.0,0.0,0.0,0.0,0.0,0.0,0.0,0.0,0.0,0.0,0.0,0.0,0.0,0.0,0.0,0.0,0.0,0.0,0.0,0.0,0.0,0.0,0.0,0.0,0.0,0.0,0.0,0.0,0.0,0.0,0.0,0.0,0.0,0.0,0.0,0.0,0.0,0.0,0.0,0.0,0.0,0.0,0.0,0.0,0.0,0.0,0.0,0.0,0.0,0.0,0.0,0.0,0.0,0.0,0.0,0.0,0.0,0.0,0.0,0.0,0.0,0.0,0.0,0.0,0.0,0.0,0.0,0.0,0.0,0.0,0.0,0.0,0.0,0.0,0.0,0.0,0.0,0.0,0.0,0.0,0.0,0.0,0.0,0.0,0.0,0.0,0.0,0.0,0.0,0.0,0.0,0.0,0.0,0.0,0.0,0.0,0.0,0.0,0.0,0.0,0.0,0.0,0.0,0.0,0.0,0.0,0.0,0.0,0.0,0.0,0.0,0.0,0.0,0.0,0.0,0.0,0.0,0.0,0.0,0.0,0.0,0.0,0.0,0.0,0.0,0.0,0.0,0.0,0.0,0.0,0.0,0.0,0.0,0.0,0.0,0.0,0.0,0.0,0.0,0.0,0.0,0.0,0.0,0.0,0.0,0.0,0.0,0.0,0.0,0.0,0.0,0.0,0.0,0.0,0.0,0.0,0.0,0.0,0.0,0.0,0.0,0.0,0.0,0.0,0.0,0.0,0.0,0.0,0.0,0.0,0.0,0.0,0.0,0.0,0.0,0.0,0.0,0.0,0.0,0.0,0.0,0.0,0.0,0.0,0.0,0.0,0.0,0.0,0.0,0.0,0.0,0.0,0.0,0.0,0.0,0.0,0.0,0.0,0.0,0.0,0.0,0.0,0.0,0.0,0.0,0.0,0.0,0.0,0.0,0.0,0.0,0.0,0.0,0.0,0.0,0.0,0.0,0.0,0.0,0.0,0.0,0.0,0.0,0.0,0.0,0.0,0.0,0.0,0.0,0.0,0.0,0.0,0.0,0.0,0.0,0.0,0.0,0.0,0.0,0.0,0.0,0.0,0.0,0.0,0.0,0.0,0.0,0.0,0.0,0.0,0.0,0.0,0.0,0.0,0.0,0.0,0.0,0.0,0.0,0.0,0.0,0.0,0.0,0.0,0.0,0.0,0.0,0.0,0.0,0.0,0.0,0.0,0.0,0.0,0.0,0.0,0.0,0.0,0.0,0.0,0.0,0.0,0.0,0.0,0.0,0.0,0.0,0.0,0.0,0.0,0.0,0.0,0.0,0.0,0.0,0.0,0.0,0.0,0.0,0.0,0.0,0.0,0.0,0.0,0.0,0.0,0.0,0.0,0.0,0.0,0.0,0.0,0.0,0.0,0.0,0.0,0.0,0.0,0.0,0.0,0.0,0.0,0.0,0.0,0.0,0.0,0.0,0.0,0.0,0.0,0.0,0.0,0.0,0.0,0.0,0.0,0.0,0.0,0.0,0.0,0.0,0.0,0.0,0.0,0.0,0.0,0.0,0.0,0.0,0.0,0.0,0.0,0.0,0.0,0.0,0.0,0.0,0.0,0.0,0.0,0.0,0.0,0.0,0.0,0.0,0.0,0.0,0.0,0.0,0.0,0.0,0.0,0.0,0.0,0.0,0.0,0.0,0.0,0.0,0.0,0.0,0.0,0.0,0.0,0.0,0.0,0.0,0.0,0.0,0.0,0.0,0.0,0.0,0.0,0.0,0.0,0.0,0.0,0.0,0.0,0.0,0.0,0.0,0.0,0.0,0.0,0.0,0.0,0.0,0.0,0.0,0.0,0.0,0.0,0.0,0.0,0.0,0.0,0.0,0.0,0.0,0.0,0.0,0.0,0.0,0.0,0.0,0.0,0.0,0.0,0.0,0.0,0.0,0.0,0.0,0.0,0.0,0.0,0.0,0.0,0.0,0.0,0.0,0.0,0.0,0.0,0.0,0.0,0.0,0.0,0.0,0.0,0.0,0.0,0.0,0.0,0.0,0.0,0.0,0.0,0.0,0.0,0.0,0.0,0.0,0.0,0.0,0.0,0.0,0.0,0.0,0.0,0.0,0.0,0.0,0.0,0.0,0.0,0.0,0.0,0.0,0.0,0.0,0.0,0.0,0.0,0.0,0.0,0.0,0.0,0.0,0.0,0.0,0.0,0.0,0.0,0.0,0.0,0.0,0.0,0.0,0.0,0.0,0.0,0.0,0.0,0.0,0.0,0.0,0.0,0.0,0.0,0.0,0.0,0.0,0.0,0.0,0.0,0.0,0.0,0.0,0.0,0.0,0.0,0.0,0.0,0.0,0.0,0.0,0.0,0.0,0.0,0.0,0.0,0.0,0.0,0.0,0.0,0.0,0.0,0.0,0.0,0.0,0.0,0.0,0.0,0.0,0.0,0.0,0.0,0.0,0.0,0.0,0.0,0.0,0.0,0.0,0.0,0.0,0.0,0.0,0.0,0.0,0.0,0.0,0.0,0.0,0.0,0.0,0.0,0.0,0.0,0.0,0.0,0.0,0.0,0.0,0.0,0.0,0.0,0.0,0.0,0.0,0.0,0.0,0.0,0.0,0.0,0.0,0.0,0.0,0.0,0.0,0.0,0.0,0.0,0.0,0.0,0.0,0.0,0.0,0.0,0.0,0.0,0.0,0.0,0.0,0.0,0.0,0.0,0.0,0.0,0.0,0.0,0.0,0.0,0.0,0.0,0.0,0.0,0.0,0.0,0.0,0.0,0.0,0.0,0.0,0.0,0.0,0.0,0.0,0.0,0.0,0.0,0.0,0.0,0.0,0.0,0.0,0.0,0.0,0.0,0.0,0.0,0.0,0.0,0.0,0.0,0.0,0.0,0.0,0.0,0.0,0.0,0.0,0.0,0.0,0.0,0.0,0.0,0.0,0.0,0.0,0.0,0.0,0.0,0.0,0.0,0.0,0.0,0.0,0.0,0.0,0.0,0.0,0.0,0.0,0.0,0.0,0.0,0.0,0.0,0.0,0.0,0.0,0.0,0.0,0.0,0.0,0.0,0.0,0.0,0.0,0.0,0.0,0.0,0.0,0.0,0.0,0.0,0.0,0.0,0.0,0.0,0.0,0.0,0.0,0.0,0.0,0.0,0.0,0.0,0.0,0.0,0.0,0.0,0.0,0.0,0.0,0.0,0.0,0.0,0.0,0.0,0.0,0.0,0.0,0.0,0.0,0.0,0.0,0.0,0.0,0.0,0.0,0.0,0.0,0.0,0.0,0.0,0.0,0.0,0.0,0.0,0.0,0.0296,0.0441,0.0425,0.0278,0.0202,0.0191,0.0,0.0,0.0,0.0,0.0,0.0,0.0,0.0,0.0,0.0,0.0,0.0,0.0,0.0,0.0,0.0,0.0,0.0,0.0,0.0,0.0,0.0,0.0,0.0,0.0,0.0,0.0,0.0,0.0,0.0,0.0,0.0,0.0,0.0,0.0,0.0,0.0,0.0,0.0,0.0,0.0,0.0,0.0,0.0,0.0,0.0,0.0,0.0,0.0,0.0,0.0,0.0,0.0,0.0,0.0,0.0,0.0,0.0,0.0,0.0,0.0,0.0,0.0,0.0,0.0,0.0,0.0,0.0,0.0,0.0,0.0,0.0,0.0,0.0,0.0,0.0,0.0,0.0,0.0,0.0,0.0,0.0,0.0,0.0,0.0,0.0,0.0,0.0,0.0,0.0,0.0,0.0,0.0,0.0,0.0,0.0,0.0,0.0,0.0,0.0,0.0,0.0,0.0,0.0,0.0,0.0,0.0,0.0,0.0,0.1,0.1513,0.1488,0.0964,0.0671,0.0,0.0,0.0,0.0,0.0,0.0,0.0,0.0,0.0,0.0,0.0,0.0,0.0,0.0,0.0,0.0,0.0,0.0,0.0,0.0,0.0,0.0,0.0,0.0,0.0,0.0,0.0,0.0,0.0,0.0,0.0,0.0,0.0,0.0,0.0,0.0,0.0,0.0,0.0,0.0,0.0,0.0,0.0,0.0,0.0,0.0,0.0,0.0,0.0,0.0,0.0,0.0,0.0,0.0,0.0,0.0,0.0,0.0,0.0,0.0,0.0,0.0,0.0,0.0,0.0,0.0,0.0,0.0,0.0,0.0,0.0,0.0,0.0,0.0,0.0,0.0,0.0,0.0,0.0,0.0,0.0,0.0,0.0,0.0,0.0,0.0,0.0,0.0,0.0,0.0,0.0,0.0,0.0,0.0,0.0,0.0,0.0,0.0,0.0,0.0,0.0,0.0,0.0,0.0,0.0,0.0,0.0,0.0,0.0,0.1123,0.1532,0.1682,0.1599,0.1392,0.1229,0.0,0.0,0.0,0.0,0.0,0.0,0.0,0.0,0.0,0.0,0.0,0.0,0.0,0.0,0.0,0.0,0.0,0.0,0.0,0.0,0.0,0.0,0.0,0.0,0.0,0.0,0.0,0.0,0.0,0.0,0.0,0.0,0.0,0.0,0.0,0.0,0.0,0.0,0.0,0.0,0.0,0.0,0.0,0.0,0.0,0.0,0.0,0.0,0.0,0.0,0.0,0.0,0.0,0.0,0.0,0.0,0.0,0.0,0.0,0.0,0.0,0.0,0.0,0.0,0.0,0.0,0.0,0.0,0.0,0.0,0.0,0.0,0.0,0.0,0.0,0.0,0.0,0.0,0.0,0.0,0.0,0.0,0.0,0.0,0.0,0.0,0.0,0.0,0.0,0.0,0.0,0.0,0.0,0.0,0.0,0.0,0.0,0.0,0.0,0.0,0.0,0.0,0.0,0.0,0.0,0.0,0.0,0.0,0.0,0.1827,0.1972,0.2048,0.2085,0.1975,0.1872,0.0,0.0,0.0,0.0,0.0,0.0,0.0,0.0,0.0,0.0,0.0,0.0,0.0,0.0,0.0,0.0,0.0,0.0,0.0,0.0,0.0,0.0,0.0,0.0,0.0,0.0,0.0,0.0,0.0,0.0,0.0,0.0,0.0,0.0,0.0,0.0,0.0,0.0,0.0,0.0,0.0,0.0,0.0,0.0,0.0,0.0,0.0,0.0,0.0,0.0,0.0,0.0,0.0,0.0,0.0,0.0,0.0,0.0,0.0,0.0,0.0,0.0,0.0,0.0,0.0,0.0,0.0,0.0,0.0,0.0,0.0,0.0,0.0,0.0,0.0,0.0,0.0,0.0,0.0,0.0,0.0,0.0,0.0,0.0,0.0,0.0,0.0,0.0,0.0,0.0,0.0,0.0,0.0,0.0,0.0,0.0,0.0,0.0,0.0,0.0,0.0,0.0,0.0,0.0,0.0,0.0,0.0,0.0,0.129,0.1999,0.2372,0.272,0.3085,0.2784,0.254,0.0,0.0,0.0,0.0,0.0,0.0,0.0,0.0,0.0,0.0,0.0,0.0,0.0,0.0,0.0,0.0,0.0,0.0,0.0,0.0,0.0,0.0,0.0,0.0,0.0,0.0,0.0,0.0,0.0,0.0,0.0,0.0,0.0,0.0,0.0,0.0,0.0,0.0,0.0,0.0,0.0,0.0,0.0,0.0,0.0,0.0,0.0,0.0,0.0,0.0,0.0,0.0,0.0,0.0,0.0,0.0,0.0,0.0,0.0,0.0,0.0,0.0,0.0,0.0,0.0,0.0,0.0,0.0,0.0,0.0,0.0,0.0,0.0,0.0,0.0,0.0,0.0,0.0,0.0,0.0,0.0,0.0,0.0,0.0,0.0,0.0,0.0,0.0,0.0,0.0,0.0,0.0,0.0,0.0,0.0,0.0,0.0,0.0,0.0,0.0,0.0,0.0,0.0,0.0,0.0,0.0,0.0,0.0,0.0,0.2963,0.342,0.3655,0.3653,0.3495,0.334,0.0,0.0,0.0,0.0,0.0,0.0,0.0,0.0,0.0,0.0,0.0,0.0,0.0,0.0,0.0,0.0,0.0,0.0,0.0,0.0,0.0,0.0,0.0,0.0,0.0,0.0,0.0,0.0,0.0,0.0,0.0,0.0,0.0,0.0,0.0,0.0,0.0,0.0,0.0,0.0,0.0,0.0,0.0,0.0,0.0,0.0,0.0,0.0,0.0,0.0,0.0,0.0,0.0,0.0,0.0,0.0,0.0,0.0,0.0,0.0,0.0,0.0,0.0,0.0,0.0,0.0,0.0,0.0,0.0,0.0,0.0,0.0,0.0,0.0,0.0,0.0,0.0,0.0,0.0,0.0,0.0,0.0,0.0,0.0,0.0,0.0,0.0,0.0,0.0,0.0,0.0,0.0,0.0,0.0,0.0,0.0,0.0,0.0,0.0,0.0,0.0,0.0,0.0,0.0,0.0,0.0,0.0,0.0,0.0,0.4506,0.4622,0.4677,0.4695,0.466,0.4557,0.4334,0.0,0.0,0.0,0.0,0.0,0.0,0.0,0.0,0.0,0.0,0.0,0.0,0.0,0.0,0.0,0.0,0.0,0.0,0.0,0.0,0.0,0.0,0.0,0.0,0.0,0.0,0.0,0.0,0.0,0.0,0.0,0.0,0.0,0.0,0.0,0.0,0.0,0.0,0.0,0.0,0.0,0.0,0.0,0.0,0.0,0.0,0.0,0.0,0.0,0.0,0.0,0.0,0.0,0.0,0.0,0.0,0.0,0.0,0.0,0.0,0.0,0.0,0.0,0.0,0.0,0.0,0.0,0.0,0.0,0.0,0.0,0.0,0.0,0.0,0.0,0.0,0.0,0.0,0.0,0.0,0.0,0.0,0.0,0.0,0.0,0.0,0.0,0.0,0.0,0.0,0.0,0.0,0.0,0.0,0.0,0.0,0.0,0.0,0.0,0.0,0.0,0.0,0.0,0.0,0.0,0.0,0.0,0.0,0.6422,0.5986,0.5871,0.6099,0.6167,0.6067,0.0,0.0,0.0,0.0,0.0,0.0,0.0,0.0,0.0,0.0,0.0,0.0,0.0,0.0,0.0,0.0,0.0,0.0,0.0,0.0,0.0,0.0,0.0,0.0,0.0,0.0,0.0,0.0,0.0,0.0,0.0,0.0,0.0,0.0,0.0,0.0,0.0,0.0,0.0,0.0,0.0,0.0,0.0,0.0,0.0,0.0,0.0,0.0,0.0,0.0,0.0,0.0,0.0,0.0,0.0,0.0,0.0,0.0,0.0,0.0,0.0,0.0,0.0,0.0,0.0,0.0,0.0,0.0,0.0,0.0,0.0,0.0,0.0,0.0,0.0,0.0,0.0,0.0,0.0,0.0,0.0,0.0,0.0,0.0,0.0,0.0,0.0,0.0,0.0,0.0,0.0,0.0,0.0,0.0,0.0,0.0,0.0,0.0,0.0,0.0,0.0,0.0,0.0,0.0,0.0,0.0,0.0,0.0,0.0,0.7116,0.8093,0.8226,0.7442,0.7512,0.7239,0.0,0.0,0.0,0.0,0.0,0.0,0.0,0.0,0.0,0.0,0.0,0.0,0.0,0.0,0.0,0.0,0.0,0.0,0.0,0.0,0.0,0.0,0.0,0.0,0.0,0.0,0.0,0.0,0.0,0.0,0.0,0.0,0.0,0.0,0.0,0.0,0.0,0.0,0.0,0.0,0.0,0.0,0.0,0.0,0.0,0.0,0.0,0.0,0.0,0.0,0.0,0.0,0.0,0.0,0.0,0.0,0.0,0.0,0.0,0.0,0.0,0.0,0.0,0.0,0.0,0.0,0.0,0.0,0.0,0.0,0.0,0.0,0.0,0.0,0.0,0.0,0.0,0.0,0.0,0.0,0.0,0.0,0.0,0.0,0.0,0.0,0.0,0.0,0.0,0.0,0.0,0.0,0.0,0.0,0.0,0.0,0.0,0.0,0.0,0.0,0.0,0.0,0.0,0.0,0.0,0.0,0.0,0.0,0.7138,0.8587,0.9518,0.9784,0.9341,0.9138,0.8709,0.0,0.0,0.0,0.0,0.0,0.0,0.0,0.0,0.0,0.0,0.0,0.0,0.0,0.0,0.0,0.0,0.0,0.0,0.0,0.0,0.0,0.0,0.0,0.0,0.0,0.0,0.0,0.0,0.0,0.0,0.0,0.0,0.0,0.0,0.0,0.0,0.0,0.0,0.0,0.0,0.0,0.0,0.0,0.0,0.0,0.0,0.0,0.0,0.0,0.0,0.0,0.0,0.0,0.0,0.0,0.0,0.0,0.0,0.0,0.0,0.0,0.0,0.0,0.0,0.0,0.0,0.0,0.0,0.0,0.0,0.0,0.0,0.0,0.0,0.0,0.0,0.0,0.0,0.0,0.0,0.0,0.0,0.0,0.0,0.0,0.0,0.0,0.0,0.0,0.0,0.0,0.0,0.0,0.0,0.0,0.0,0.0,0.0,0.0,0.0,0.0,0.0,0.0,0.0,0.0,0.0,0.0,0.0,0.835,1.0307,1.0507,1.0857,1.141,1.0773,1.0189,0.0,0.0,0.0,0.0,0.0,0.0,0.0,0.0,0.0,0.0,0.0,0.0,0.0,0.0,0.0,0.0,0.0,0.0,0.0,0.0,0.0,0.0,0.0,0.0,0.0,0.0,0.0,0.0,0.0,0.0,0.0,0.0,0.0,0.0,0.0,0.0,0.0,0.0,0.0,0.0,0.0,0.0,0.0,0.0,0.0,0.0,0.0,0.0,0.0,0.0,0.0,0.0,0.0,0.0,0.0,0.0,0.0,0.0,0.0,0.0,0.0,0.0,0.0,0.0,0.0,0.0,0.0,0.0,0.0,0.0,0.0,0.0,0.0,0.0,0.0,0.0,0.0,0.0,0.0,0.0,0.0,0.0,0.0,0.0,0.0,0.0,0.0,0.0,0.0,0.0,0.0,0.0,0.0,0.0,0.0,0.0,0.0,0.0,0.0,0.0,0.0,0.0,0.0,0.0,0.0,0.0,0.0,0.0,0.8885,1.0658,1.1377,1.1948,1.2389,1.16,1.0705,0.0,0.0,0.0,0.0,0.0,0.0,0.0,0.0,0.0,0.0,0.0,0.0,0.0,0.0,0.0,0.0,0.0,0.0,0.0,0.0,0.0,0.0,0.0,0.0,0.0,0.0,0.0,0.0,0.0,0.0,0.0,0.0,0.0,0.0,0.0,0.0,0.0,0.0,0.0,0.0,0.0,0.0,0.0,0.0,0.0,0.0,0.0,0.0,0.0,0.0,0.0,0.0,0.0,0.0,0.0,0.0,0.0,0.0,0.0,0.0,0.0,0.0,0.0,0.0,0.0,0.0,0.0,0.0,0.0,0.0,0.0,0.0,0.0,0.0,0.0,0.0,0.0,0.0,0.0,0.0,0.0,0.0,0.0,0.0,0.0,0.0,0.0,0.0,0.0,0.0,0.0,0.0,0.0,0.0,0.0,0.0,0.0,0.0,0.0,0.0,0.0,0.0,0.0,0.0,0.0,0.0,0.0,0.0,0.9993,1.1468,1.2238,1.2743,1.299,1.246,1.1659,0.0,0.0,0.0,0.0,0.0,0.0,0.0,0.0,0.0,0.0,0.0,0.0,0.0,0.0,0.0,0.0,0.0,0.0,0.0,0.0,0.0,0.0,0.0,0.0,0.0,0.0,0.0,0.0,0.0,0.0,0.0,0.0,0.0,0.0,0.0,0.0,0.0,0.0,0.0,0.0,0.0,0.0,0.0,0.0,0.0,0.0,0.0,0.0,0.0,0.0,0.0,0.0,0.0,0.0,0.0,0.0,0.0,0.0,0.0,0.0,0.0,0.0,0.0,0.0,0.0,0.0,0.0,0.0,0.0,0.0,0.0,0.0,0.0,0.0,0.0,0.0,0.0,0.0,0.0,0.0,0.0,0.0,0.0,0.0,0.0,0.0,0.0,0.0,0.0,0.0,0.0,0.0,0.0,0.0,0.0,0.0,0.0,0.0,0.0,0.0,0.0,0.0,0.0,0.0,0.0,0.0,0.0,0.9721,1.118,1.235,1.298,1.3372,1.3525,1.3244,1.2673,1.1739,0.0,0.0,0.0,0.0,0.0,0.0,0.0,0.0,0.0,0.0,0.0,0.0,0.0,0.0,0.0,0.0,0.0,0.0,0.0,0.0,0.0,0.0,0.0,0.0,0.0,0.0,0.0,0.0,0.0,0.0,0.0,0.0,0.0,0.0,0.0,0.0,0.0,0.0,0.0,0.0,0.0,0.0,0.0,0.0,0.0,0.0,0.0,0.0,0.0,0.0,0.0,0.0,0.0,0.0,0.0,0.0,0.0,0.0,0.0,0.0,0.0,0.0,0.0,0.0,0.0,0.0,0.0,0.0,0.0,0.0,0.0,0.0,0.0,0.0,0.0,0.0,0.0,0.0,0.0,0.0,0.0,0.0,0.0,0.0,0.0,0.0,0.0,0.0,0.0,0.0,0.0,0.0,0.0,0.0,0.0,0.0,0.0,0.0,0.0,0.0,0.0,0.0,0.0,0.0,0.0,0.8236,1.0069,1.1584,1.2771,1.3406,1.3843,1.4128,1.3721,1.3088,1.2205,0.0,0.0,0.0,0.0,0.0,0.0,0.0,0.0,0.0,0.0,0.0,0.0,0.0,0.0,0.0,0.0,0.0,0.0,0.0,0.0,0.0,0.0,0.0,0.0,0.0,0.0,0.0,0.0,0.0,0.0,0.0,0.0,0.0,0.0,0.0,0.0,0.0,0.0,0.0,0.0,0.0,0.0,0.0,0.0,0.0,0.0,0.0,0.0,0.0,0.0,0.0,0.0,0.0,0.0,0.0,0.0,0.0,0.0,0.0,0.0,0.0,0.0,0.0,0.0,0.0,0.0,0.0,0.0,0.0,0.0,0.0,0.0,0.0,0.0,0.0,0.0,0.0,0.0,0.0,0.0,0.0,0.0,0.0,0.0,0.0,0.0,0.0,0.0,0.0,0.0,0.0,0.0,0.0,0.0,0.0,0.0,0.0,0.0,0.0,0.0,0.0,0.0,0.0,0.0,0.0,0.9291,1.1,1.2317,1.3246,1.3921,1.4276,1.4283,1.3911,1.3261,0.0,0.0,0.0,0.0,0.0,0.0,0.0,0.0,0.0,0.0,0.0,0.0,0.0,0.0,0.0,0.0,0.0,0.0,0.0,0.0,0.0,0.0,0.0,0.0,0.0,0.0,0.0,0.0,0.0,0.0,0.0,0.0,0.0,0.0,0.0,0.0,0.0,0.0,0.0,0.0,0.0,0.0,0.0,0.0,0.0,0.0,0.0,0.0,0.0,0.0,0.0,0.0,0.0,0.0,0.0,0.0,0.0,0.0,0.0,0.0,0.0,0.0,0.0,0.0,0.0,0.0,0.0,0.0,0.0,0.0,0.0,0.0,0.0,0.0,0.0,0.0,0.0,0.0,0.0,0.0,0.0,0.0,0.0,0.0,0.0,0.0,0.0,0.0,0.0,0.0,0.0,0.0,0.0,0.0,0.0,0.0,0.0,0.0,0.0,0.0,0.0,0.0,0.0,0.0,0.0,0.0,1.028,1.1872,1.3002,1.3668,1.4384,1.4636,1.4394,1.4051,1.34,0.0,0.0,0.0,0.0,0.0,0.0,0.0,0.0,0.0,0.0,0.0,0.0,0.0,0.0,0.0,0.0,0.0,0.0,0.0,0.0,0.0,0.0,0.0,0.0,0.0,0.0,0.0,0.0,0.0,0.0,0.0,0.0,0.0,0.0,0.0,0.0,0.0,0.0,0.0,0.0,0.0,0.0,0.0,0.0,0.0,0.0,0.0,0.0,0.0,0.0,0.0,0.0,0.0,0.0,0.0,0.0,0.0,0.0,0.0,0.0,0.0,0.0,0.0,0.0,0.0,0.0,0.0,0.0,0.0,0.0,0.0,0.0,0.0,0.0,0.0,0.0,0.0,0.0,0.0,0.0,0.0,0.0,0.0,0.0,0.0,0.0,0.0,0.0,0.0,0.0,0.0,0.0,0.0,0.0,0.0,0.0,0.0,0.0,0.0,0.0,0.0,0.0,0.0,0.0,0.0,0.0,1.0634,1.2166,1.3273,1.394,1.4625,1.4873,1.464,1.4272,1.3624,0.0,0.0,0.0,0.0,0.0,0.0,0.0,0.0,0.0,0.0,0.0,0.0,0.0,0.0,0.0,0.0,0.0,0.0,0.0,0.0,0.0,0.0,0.0,0.0,0.0,0.0,0.0,0.0,0.0,0.0,0.0,0.0,0.0,0.0,0.0,0.0,0.0,0.0,0.0,0.0,0.0,0.0,0.0,0.0,0.0,0.0,0.0,0.0,0.0,0.0,0.0,0.0,0.0,0.0,0.0,0.0,0.0,0.0,0.0,0.0,0.0,0.0,0.0,0.0,0.0,0.0,0.0,0.0,0.0,0.0,0.0,0.0,0.0,0.0,0.0,0.0,0.0,0.0,0.0,0.0,0.0,0.0,0.0,0.0,0.0,0.0,0.0,0.0,0.0,0.0,0.0,0.0,0.0,0.0,0.0,0.0,0.0,0.0,0.0,0.0,0.0,0.0,0.0,0.0,0.0,0.9711,1.1507,1.2545,1.3537,1.4528,1.493,1.4989,1.4712,1.4446,1.3817,0.0,0.0,0.0,0.0,0.0,0.0,0.0,0.0,0.0,0.0,0.0,0.0,0.0,0.0,0.0,0.0,0.0,0.0,0.0,0.0,0.0,0.0,0.0,0.0,0.0,0.0,0.0,0.0,0.0,0.0,0.0,0.0,0.0,0.0,0.0,0.0,0.0,0.0,0.0,0.0,0.0,0.0,0.0,0.0,0.0,0.0,0.0,0.0367,0.1381,0.0,0.0,0.0,0.0,0.0,0.0,0.0,0.0,0.0,0.0,0.0,0.0,0.0,0.0,0.0,0.0,0.0,0.0,0.0,0.0,0.0,0.0,0.0,0.0,0.0,0.0,0.0,0.0,0.0,0.0,0.0,0.0,0.0,0.0,0.0,0.0,0.0,0.0,0.0,0.0,0.0,0.0,0.0,0.0,0.0,0.0,0.0,0.0,0.0,0.0,0.0,0.0,0.0,0.0,0.0,0.0,0.0,1.2195,1.2854,1.379,1.5006,1.5191,1.5113,1.4832,1.4609,0.0,0.0,0.0,0.0,0.0,0.0,0.0,0.0,0.0,0.0,0.0,0.0,0.0,0.0,0.0,0.0,0.0,0.0,0.0,0.0,0.0,0.0,0.0,0.0,0.0,0.0,0.0,0.0,0.0,0.0,0.0,0.0,0.0,0.0,0.0,0.0,0.0,0.0,0.0,0.0,0.0,0.0,0.0636,0.068,0.0287,0.0171,0.0,0.0,0.1103,0.2184,0.2464,0.2118,0.0,0.0,0.0,0.0,0.0,0.0,0.0,0.0,0.0,0.0,0.0,0.0,0.0,0.0,0.0,0.0,0.0,0.0,0.0,0.0,0.0,0.0,0.0,0.0,0.0,0.0,0.0,0.0,0.0,0.0,0.0,0.0,0.0,0.0,0.0,0.0,0.0,0.0,0.0,0.0,0.0,0.0,0.0,0.0,0.0,0.0,0.0,0.0,0.0,0.0,0.0,0.0,0.0,0.0,0.0,1.232,1.3058,1.3971,1.5149,1.5316,1.5328,1.5165,1.4722,1.415,0.0,0.0,0.0,0.0,0.0,0.0,0.0,0.0,0.0,0.0,0.0,0.0,0.0,0.0,0.0,0.0,0.0,0.0,0.0,0.0,0.0,0.0,0.0,0.0,0.0,0.0,0.0,0.0,0.0,0.0,0.0,0.0,0.0,0.0,0.0,0.0,0.0,0.0,0.0,0.0,0.0,0.2384,0.2509,0.1085,0.0652,0.0,0.0,0.2408,0.1536,0.2141,0.2613,0.2361,0.0,0.0,0.0,0.0,0.0,0.0,0.0,0.0,0.0,0.0,0.0,0.0,0.0,0.0,0.0,0.0,0.0,0.0,0.0,0.0,0.0,0.0,0.0,0.0,0.0,0.0,0.0,0.0,0.0,0.0,0.0,0.0,0.0,0.0,0.0,0.0,0.0,0.0,0.0,0.0,0.0,0.0,0.0,0.0,0.0,0.0,0.0,0.0,0.0,0.0,0.0,0.0,0.0,1.0956,1.2627,1.3514,1.4408,1.5281,1.546,1.542,1.5199,1.4941,1.4441,0.0,0.0,0.0,0.0,0.0,0.0,0.0,0.0,0.0,0.0,0.0,0.0,0.0,0.0,0.0,0.0,0.0,0.0,0.0,0.0,0.0,0.0,0.0,0.0,0.0,0.0,0.0,0.0,0.0,0.0,0.0,0.0,0.0,0.0,0.0,0.0,0.0,0.0,0.0,0.0,0.0,0.2642,0.2686,0.2247,0.0,0.0,0.2902,0.29,0.2843,0.3099,0.3151,0.2703,0.2015,0.0,0.0,0.0,0.0,0.0,0.0,0.0,0.0,0.0,0.0,0.0,0.0,0.0,0.0,0.0,0.0,0.0,0.0,0.0,0.0,0.0,0.0,0.0,0.0,0.0,0.0,0.0,0.0,0.0,0.0,0.0,0.0,0.0,0.0,0.0,0.0,0.0,0.0,0.0,0.0,0.0,0.0,0.0,0.0,0.0,0.0,0.0,0.0,0.0,0.0,0.0,0.0,1.1494,1.2849,1.3898,1.477,1.5521,1.5637,1.5601,1.5427,1.5177,1.4731,0.0,0.0,0.0,0.0,0.0,0.0,0.0,0.0,0.0,0.0,0.0,0.0,0.0,0.0,0.0,0.0,0.0,0.0,0.0,0.0,0.0,0.0,0.0,0.0,0.0,0.0,0.0,0.0,0.0,0.0,0.0,0.0,0.0,0.0,0.0,0.0,0.0,0.0,0.0,0.0,0.0,0.2922,0.3511,0.3819,0.3863,0.3471,0.3473,0.3623,0.3945,0.3946,0.3691,0.3042,0.0,0.0,0.0,0.0,0.0,0.0,0.0,0.0,0.0,0.0,0.0,0.0,0.0,0.0,0.0,0.0,0.0,0.0,0.0,0.0,0.0,0.0,0.0,0.0,0.0,0.0,0.0,0.0,0.0,0.0,0.7801,0.0,0.0,0.0,0.0,0.0,0.0,0.0,0.0,0.0,0.0,0.0,0.0,0.0,0.0,0.0,0.0,0.0,0.0,0.0,0.0,0.0,0.0,1.1726,1.298,1.4123,1.5083,1.5856,1.5894,1.5882,1.5874,1.5435,1.4975,1.4466,0.0,0.0,0.0,0.0,0.0,0.0,0.0,0.0,0.0,0.0,0.0,0.0,0.0,0.0,0.0,0.0,0.0,0.0,0.0,0.0,0.0,0.0,0.0,0.0,0.0,0.0,0.0196,0.0,0.0,0.0,0.0,0.0,0.0,0.0,0.0,0.0,0.0,0.0,0.0,0.2591,0.3416,0.5317,0.5861,0.5705,0.4748,0.4783,0.4823,0.4479,0.4417,0.4181,0.0,0.0,0.0,0.0,0.0,0.0,0.0,0.0,0.0,0.0,0.0,0.0,0.0,0.0,0.0,0.0,0.0,0.0,0.0,0.0,0.0,0.0,0.0,0.0,0.0,0.0,0.0,0.9117,0.9022,0.0,0.0,0.0,0.0,0.0,0.0,0.0,0.0,0.0,0.0,0.0,1.1615,1.164,0.0,0.0,0.0,0.0,0.0,0.0,0.0,0.0,0.0,0.0,0.0,0.0,1.2214,1.3278,1.4518,1.5444,1.6013,1.6026,1.6045,1.6026,1.5598,1.4995,1.4256,0.0,0.0,0.0,0.0,0.0,0.0,0.0,0.0,0.0,0.0,0.0,0.0,0.0,0.0,0.0,0.0,0.0,0.0,0.0,0.0,0.0,0.0,0.0,0.0,0.0,0.2144,0.0,0.0,0.0,0.0,0.0,0.0,0.0,0.0,0.0,0.0,0.0,0.2034,0.2563,0.3211,0.4211,0.574,0.7177,0.774,0.0,0.0,0.0,0.0,0.0,0.0,0.0,0.0,0.0,0.0,0.0,0.0,0.0,0.0,0.0744,0.0123,0.0,0.0,0.0,0.0,0.0,0.0,0.0,0.0,0.0,0.0,0.0,0.0,0.0,0.0,0.0,0.0,0.0,1.0011,0.0,0.9837,0.0,0.0,0.0,0.0,0.0,0.0,0.0,0.0,1.2051,1.2341,1.2541,1.2557,1.2548,0.0,1.2548,1.2252,0.0,0.0,0.0,0.0,0.0,0.0,0.0,0.0,1.283,1.3775,1.5022,1.5811,1.6144,1.6212,1.6212,1.6151,1.5676,1.5086,1.4441,1.392,1.3315,0.0,0.0,0.0,0.0,0.0,0.0,0.0,0.0,0.0,0.0,0.0,0.0,0.0,0.0,0.0,0.0,0.0,0.0,0.0,0.0,0.0,0.0,0.0,0.3163,0.0,0.0,0.0,0.0,0.0,0.0,0.0,0.0,0.0,0.2724,0.2457,0.237,0.2729,0.3901,0.5317,0.6929,0.0,0.0,0.0,0.0,0.0,0.0,0.0,0.7126,0.655,0.5563,0.4398,0.3006,0.338,0.3873,0.388,0.0,0.0,0.0731,0.0487,0.0497,0.0478,0.0492,0.0488,0.0482,0.0233,0.0,0.0,0.0,0.0,0.0,0.0,0.0,0.0,0.0,1.0938,1.0939,0.0,1.0926,0.0,0.0,0.0,0.0,0.0,1.1592,0.0,0.0,1.2945,1.3166,1.341,1.3424,1.3434,1.3431,1.3424,1.3417,1.3346,1.217,0.0,0.0,0.0,0.0,0.0,0.0,1.3519,1.4494,1.5563,1.617,1.6308,1.6424,1.6424,1.6274,1.5744,1.5296,1.5005,1.443,1.3856,1.3258,1.265,0.0,0.0,0.0,0.0,0.0,0.0,0.0,0.0,0.0,0.0,0.0,0.0,0.0,0.0,0.0,0.0,0.0,0.0,0.0,0.0,0.4225,0.0,0.0,0.0,0.0,0.0,0.0,0.0,0.0,0.0,0.0,0.2961,0.3453,0.3582,0.3036,0.0,0.0,0.0,0.0,1.1056,1.1029,1.0188,0.9463,0.9278,0.8869,0.8366,0.7702,0.0,0.0,0.335,0.4522,0.5731,0.5741,0.4951,0.3748,0.1933,0.1599,0.1546,0.1557,0.1581,0.1512,0.1443,0.0908,0.0,1.4168,0.0,0.0,0.0,0.0,1.1728,1.1812,1.1764,1.1848,1.1843,1.1751,1.1751,0.0,0.0,0.0,0.0,0.0,0.0,1.2973,1.3362,1.3634,1.3879,1.4052,1.403,1.4052,1.403,1.4041,1.4041,1.4027,1.3677,1.3159,1.2526,0.0,0.0,0.0,0.0,1.4113,1.4791,1.564,1.6247,1.658,1.6519,1.6376,1.6163,1.5993,1.5661,1.5152,1.4878,1.4457,1.3859,1.3261,0.0,0.0,0.0,0.0,0.0,0.0,0.0,0.0,0.0,0.0,0.0,0.0,0.0,0.0,0.0,0.0,0.0,0.0,0.0,0.4484,0.4771,0.4822,0.0,0.0,0.0,0.0,0.0,0.0,0.0,0.0,0.0,0.4922,0.4344,0.3898,0.0,0.0,0.7394,1.1281,1.2128,1.2358,1.2359,0.0,0.0,0.0,1.0366,1.0106,0.9573,0.7575,0.5845,0.5287,0.6138,0.6924,0.6924,0.6143,0.531,0.4802,0.4014,0.3541,0.358,0.3616,0.361,0.356,0.2803,0.2054,1.6839,1.4697,1.3867,1.3284,1.2939,1.3179,1.3246,1.3171,1.327,1.3148,1.2888,1.2898,1.2736,1.2441,1.2617,0.0,0.0,0.0,1.3706,1.3976,1.4163,1.4337,1.4446,1.4464,1.4464,1.4464,1.4453,1.4498,1.4563,1.4647,1.4419,1.3945,0.0,0.0,1.3786,1.4212,1.4737,1.5358,1.5954,1.6402,1.6689,1.6608,1.6498,1.6335,1.619,1.5925,1.5566,1.5233,1.4896,1.4464,1.3883,1.3292,0.0,0.0,0.0,0.0,0.0,0.0,0.0,0.0,0.0,0.0,0.0,0.7437,0.7336,0.0,0.0,0.0,0.5471,0.5676,0.6161,0.6131,0.0,0.0,0.0,0.0,0.0,0.0,0.0,0.6309,0.564,0.5342,0.5889,0.5673,0.5199,0.4543,0.6135,0.8732,1.2387,0.0,1.4132,1.3614,1.2923,1.2441,1.2331,1.2132,1.1688,1.0717,0.8786,0.7335,0.7313,0.8129,0.877,0.8625,0.7902,0.7238,0.7238,0.6649,0.5817,0.4967,0.4771,0.4735,0.4563,0.3975,0.3519,1.9594,1.7989,1.6037,1.5025,1.4724,1.4818,1.4878,1.4878,1.4878,1.4647,1.4249,1.4186,1.3919,1.3478,1.3624,0.0,1.3887,1.4068,1.4317,1.4561,1.4561,1.4642,1.4773,1.4769,1.4773,1.4769,1.4762,1.4871,1.5036,1.5177,1.5301,1.5406,1.4584,1.4453,1.5015,1.5022,1.5371,1.6109,1.6375,1.6573,1.6709,1.6729,1.6722,1.6689,1.6335,1.6129,1.6094,1.5571,1.5197,1.5019,1.4482,1.3893,1.3295,0.0,0.0,0.0,0.0,0.0,0.0,0.0,0.0,0.0,0.0,0.0,0.0,0.0,0.0,0.0,0.6858,0.0,0.7971,0.8115,0.0,0.0,0.0,0.7831,0.7866,0.751,0.7338,0.7513,0.0,0.0,0.6389,0.0,0.7267,0.5282,0.7619,1.032,1.2591,1.4944,1.6089,1.4892,1.4696,1.4598,1.4186,1.3817,1.2995,1.1471,1.0176,0.9464,0.9518,1.0448,1.1129,1.1056,1.0071,0.9294,0.9313,0.9211,0.8489,0.6151,0.5618,0.5387,0.5015,0.4773,0.4635,2.156,2.0107,1.9113,1.7463,1.5519,1.5556,1.556,1.5549,1.5571,1.5495,1.5376,1.4974,1.4539,1.4084,1.4227,1.4354,1.4496,1.4685,1.4928,1.5176,1.5182,1.5264,1.5389,1.5389,1.5377,1.5389,1.5389,1.5421,1.5467,1.5489,1.5523,1.5551,1.5581,1.556,1.5463,1.5689,1.597,1.624,1.6518,1.6736,1.6917,1.6924,1.6857,1.6702,1.662,1.6416,1.6109,1.5972,1.5666,1.5165,1.493,1.4522,1.3928,1.3319,0.0,0.0,0.0,0.0,0.0,0.0,0.0,0.0,0.0,0.8493,0.7351,0.0,0.9076,0.0,0.8848,0.8803,0.9297,0.9991,0.0,0.0,1.1423,1.0688,1.1047,1.0195,0.9571,0.9568,0.883,0.8548,0.9143,0.9548,0.9723,0.9477,0.9459,1.0337,1.2594,1.5202,1.6799,1.635,1.5513,1.4844,1.4783,1.4565,1.3964,1.2652,1.2172,1.2,1.2006,1.2928,1.3655,1.3512,1.2255,1.13,1.1145,1.0842,1.0262,0.9253,0.841,0.7646,0.7183,0.6357,0.572,2.3271,2.2265,2.1442,2.0102,1.8464,1.7713,1.7476,1.7591,1.758,1.732,1.6857,1.5895,1.5294,1.5058,1.494,1.4945,1.5022,1.5194,1.5345,1.5482,1.5501,1.5524,1.5599,1.5599,1.5599,1.5599,1.5599,1.5633,1.5737,1.5805,1.5866,1.5928,1.6164,1.6186,1.6005,1.6179,1.6388,1.6605,1.6871,1.7067,1.7168,1.712,1.7032,1.6938,1.6789,1.6594,1.6375,1.6185,1.5951,1.5606,1.5279,1.4935,1.4601,1.397,1.3329,0.0,0.0,0.0,0.0,0.0,0.0,0.0,0.0,0.0,0.0,0.0,1.0613,1.081,1.0723,1.0636,1.0567,1.1411,1.2583,1.4131,1.281,1.2355,1.3781,1.2818,1.1994,1.1862,1.1131,1.0826,1.1368,1.1708,1.1689,1.1242,1.1577,1.2586,1.4396,1.6091,1.7001,1.6962,1.6279,1.5673,1.5629,1.5348,1.4981,1.4425,1.3917,1.3751,1.4237,1.4803,1.5202,1.5119,1.3957,1.2913,1.2907,1.2687,1.2336,1.187,1.1304,1.0236,0.8495,0.7483,0.6798,2.4945,2.4248,2.3304,2.2663,2.2201,2.069,2.0055,2.0059,1.9987,1.936,1.8284,1.6854,1.616,1.6033,1.561,1.544,1.5467,1.5572,1.5653,1.5699,1.5699,1.57,1.5714,1.5702,1.5702,1.5702,1.5714,1.5806,1.5965,1.6088,1.6217,1.6341,1.6457,1.6525,1.6525,1.6572,1.6735,1.7046,1.7277,1.7392,1.7392,1.729,1.7209,1.7195,1.6918,1.6749,1.6689,1.6354,1.6129,1.6087,1.5573,1.5258,1.519,1.4572,1.3947,0.0,1.3047,0.0,0.0,0.0,0.0,0.0,0.0,0.0,0.0,1.1554,1.2012,1.195,1.2368,1.2397,1.1791,1.2478,1.335,1.4259,1.3322,1.3516,1.5671,1.5036,1.4223,1.3914,1.3194,1.287,1.3165,1.3638,1.3339,1.2308,1.3447,1.5051,1.66,1.6938,1.6997,1.6996,1.6846,1.6579,1.6431,1.6116,1.5897,1.5956,1.5322,1.5063,1.5834,1.6027,1.6093,1.6034,1.5258,1.4552,1.449,1.4397,1.4205,1.3807,1.3656,1.2624,0.9834,0.8696,0.795,2.6859,2.5566,2.4788,2.45,2.4527,2.3772,2.2714,2.1482,2.1055,2.0045,1.8666,1.783,1.7035,1.6304,1.5798,1.5655,1.5807,1.5841,1.5972,1.6172,1.6159,1.6233,1.6322,1.6341,1.6329,1.6329,1.6341,1.6342,1.6382,1.6409,1.6436,1.647,1.6606,1.6655,1.6669,0.0,0.0,0.0,1.7365,1.7392,1.7392,1.7365,1.7304,1.7208,1.7141,0.0,1.6722,1.6525,1.6327,1.6114,1.5889,0.0,0.0,0.0,0.0,0.0,0.0,0.0,0.0,0.0,0.0,0.0,1.332,1.2876,1.1532,1.2571,1.3282,1.3182,1.3353,1.3332,1.3005,1.311,1.3721,1.485,1.4774,1.4911,1.5629,1.5698,1.5337,1.433,1.4139,1.4185,1.4365,1.4561,1.4574,1.4254,1.4598,1.545,1.6793,1.7003,1.7003,1.699,1.695,1.6863,1.6688,1.6565,1.6453,1.6383,1.6107,1.5908,1.6073,1.6142,1.6219,1.6375,1.6199,1.5843,1.5507,1.5094,1.4795,1.4698,1.4692,1.3973,1.1661,1.0888,1.0327,2.839,0.0,2.6738,2.6445,0.0,2.6241,2.5651,2.4758,2.3443,2.187,2.0126,1.9033,1.7973,1.7023,1.6549,1.6256,1.6108,1.6163,1.6278,1.6396,1.6415,1.6424,1.6504,1.6504,1.6504,1.6504,1.6504,1.6504,1.6511,1.6573,1.6606,1.66,1.6775,1.6871,1.6965,1.725,1.7433,1.7507,1.7847,1.8052,1.8045,1.7976,1.7892,1.7739,0.0,0.0,0.0,0.0,0.0,0.0,0.0,0.0,0.0,0.0,0.0,1.4776,1.4511,1.4333,1.4248,1.3881,1.3689,1.385,1.4412,1.4405,1.3561,1.423,1.4515,1.4236,1.4466,1.4594,1.4462,1.445,1.4756,1.5532,1.5653,1.5703,1.5853,1.6108,1.6039,1.546,1.5415,1.555,1.5673,1.5738,1.5828,1.5924,1.5949,1.6184,1.6828,1.6993,1.7004,1.7004,1.7004,1.6971,1.689,1.685,1.6822,1.6744,1.6645,1.656,1.6537,1.6536,1.66,1.6709,1.6652,1.6448,1.616,1.5859,1.5692,1.568,1.568,1.5424,1.426,1.3472,1.304,2.9775,2.9602,2.8701,2.8366,2.8441,2.8366,2.8267,2.8021,0.0,0.0,0.0,2.0101,1.8845,1.7899,1.7393,1.6865,1.6354,1.6457,1.6505,1.6532,1.6526,1.6565,1.6592,1.6579,1.6585,1.6605,1.6592,1.6592,1.6579,1.6701,1.6749,1.6776,1.6917,1.7093,1.7249,1.7575,1.7759,1.7813,1.8384,1.8757,1.8847,1.8745,1.8575,1.835,1.7725,1.7267,1.7052,1.6816,1.6642,1.6539,1.6307,1.6126,1.6091,1.5735,1.5452,1.5269,1.502,1.4861,1.4861,1.4647,1.455,1.4622,1.5065,1.5454,1.5685,1.5685,1.5521,1.5117,1.5433,1.566,1.5738,1.5696,1.5807,1.6079,1.611,1.6104,1.6128,1.6338,1.6425,1.6391,1.6399,1.6579,1.6623,1.6677,1.681,1.6938,1.6873,1.7073,1.7122,1.7087,1.7019,1.7032,1.7025,1.6991,1.7004,1.6998,1.6996,1.6978,1.6977,1.6994,1.7,1.6997,1.6997,1.6961,1.6843,1.6721,1.6625,1.6548,1.6592,1.6579,1.6605,1.6585,1.6508,1.5725,1.5332,3.1189,3.0722,3.0193,3.0181,3.0538,3.012,2.9664,2.8985,2.6495,2.4434,2.2763,2.067,1.9385,1.8754,1.7794,1.7045,1.6497,1.6472,1.6566,0.0,1.6675,1.6762,1.6936,1.693,1.6943,1.6943,1.691,1.693,1.693,1.6951,1.6977,1.6964,1.6998,1.7121,1.7405,1.8043,1.8422,1.8557,1.8647,1.8943,1.9453,1.9445,1.9137,1.8514,1.8256,1.7832,1.7208,1.6871,1.6689,1.6675,1.6474,1.6283,1.6106,1.6033,1.5853,1.5577,1.5485,1.5477,1.5477,1.5453,1.5539,1.582,1.5935,1.599,1.602,1.6025,1.5961,1.5787,1.5826,1.5983,1.6233,1.6123,1.6056,1.6107,1.6128,1.6116,1.6154,1.6352,1.6552,1.6611,1.6651,1.6682,1.6729,1.6837,1.6951,1.6992,1.706,1.7189,1.7518,1.7323,1.7088,1.7114,1.7073,1.7018,1.7005,1.6998,1.6991,1.699,1.7003,1.7002,1.6994,1.6994,1.6994,1.6995,1.6948,1.6929,1.691,1.6943,1.6903,1.6889,1.6889,1.6896,1.6896,1.6642,1.6661,3.2097,3.1811,3.1313,3.1238,3.1413,3.1201,3.0615,2.9715,2.8149,2.6121,2.3853,2.1866,2.041,1.9386,1.8394,1.7636,1.7096,1.6876,1.6809,1.6857,1.6876,1.6897,1.6998,1.7004,1.7004,1.7004,1.7004,1.7004,1.7004,1.7004,1.7004,1.7005,1.7141,1.7304,1.7555,1.8237,1.8789,1.9192,1.9508,1.9811,2.0079,2.0079,1.9879,1.9488,1.8737,1.8108,1.7694,1.7162,1.6862,1.6858,1.6661,1.657,1.6581,1.6371,1.6209,1.6086,1.6017,1.5998,1.6085,1.5948,1.5942,1.6092,1.6113,1.6253,1.6568,1.6423,1.6275,1.6237,1.6231,1.6253,1.6383,1.6346,1.6385,1.6568,1.6588,1.6588,1.6594,1.6682,1.6749,1.6724,1.6807,1.6863,1.6863,1.6937,1.7004,1.7025,1.7228,1.76,1.7873,1.7683,1.7439,1.7311,1.7208,1.712,1.7107,1.7026,1.6998,1.7004,1.7004,1.7004,1.7004,1.7004,1.7004,1.7004,1.7004,1.7004,1.7004,1.7004,1.7004,1.7004,1.7004,1.7004,1.6998,1.6993,1.7053,3.2787,3.2724,3.2348,3.2146,3.2134,3.202,3.1428,3.0506,2.9671,2.7856,2.5309,2.326,2.152,2.0075,1.921,1.8397,1.7673,1.7316,1.7109,1.7004,1.7004,1.7004,1.7004,1.7004,1.7004,1.7004,1.7004,1.7004,1.7004,1.7004,1.7012,1.7073,1.7311,1.7575,1.7813,1.8535,1.926,1.999,2.0588,2.0904,2.0904,2.0917,2.0799,2.048,1.9261,1.8434,1.8123,1.7424,1.7036,1.7004,1.6861,1.685,1.6983,1.6706,1.6532,1.6491,1.6409,1.6396,1.6472,1.6312,1.6216,1.63,1.6308,1.6507,1.6905,1.6779,1.6579,1.6524,1.6491,1.6485,1.6468,1.6481,1.6636,1.6947,1.6992,1.6962,1.6993,1.7,1.6952,1.6802,1.6897,1.6991,1.7004,1.7004,1.6999,1.7074,1.7532,1.7887,1.7916,1.7909,1.7779,1.7575,1.7351,1.7243,1.7236,1.7181,1.71,1.7059,1.7019,1.7006,1.6998,1.7004,1.7004,1.7004,1.7004,1.7004,1.7004,1.7004,1.7004,1.7004,1.7004,1.7005,1.7,1.7002,1.7089,3.3314,3.3326,3.3239,3.3263,3.319,3.275,3.2197,3.1554,3.0557,2.9113,2.715,2.462,2.256,2.1042,2.0358,1.9251,1.7887,1.7751,1.749,1.707,1.7004,1.7004,1.7031,1.7018,1.7004,1.7004,1.7004,1.7004,1.6991,1.6998,1.7059,1.7195,1.7453,1.7861,1.8428,1.9153,2.0073,2.1219,2.1823,2.2138,2.2124,2.2138,2.1869,2.1291,1.9984,1.8971,1.8326,1.757,1.712,1.7018,1.6984,1.6981,1.6987,1.6954,1.6802,1.6544,1.6485,1.6497,1.6498,1.6479,1.6588,1.6889,1.6872,1.6915,1.7,1.6973,1.6815,1.6599,1.6518,1.656,1.6655,1.6585,1.6658,1.6962,1.7002,1.699,1.7002,1.7003,1.6984,1.6984,1.6978,1.7004,1.7004,1.7005,1.7001,1.7056,1.7541,1.7909,1.7916,1.7916,1.7902,1.7806,1.7589,1.7399,1.7385,1.7365,1.7284,1.7202,1.7069,1.7015,1.7,1.7006,1.6998,1.708,1.6998,1.7005,1.7005,1.7004,1.6998,1.7025,1.7019,1.6993,1.7002,1.7049,1.7177,3.3389,3.3415,3.3614,3.3788,3.3884,3.3706,3.3207,3.2479,3.1375,2.9901,2.8143,2.6331,2.4287,2.2067,2.0867,1.9746,1.8806,1.8439,1.817,1.7955,1.7955,1.7784,1.7483,1.747,1.7333,1.7031,1.7004,1.7004,1.7018,1.7093,1.7222,1.7419,1.7555,1.795,1.8637,1.9623,2.056,2.1411,2.2658,2.3314,2.3218,2.2644,2.2193,2.1779,2.0279,1.9281,1.8868,1.7839,1.7148,1.7008,1.6999,1.7003,1.7001,1.6994,1.6941,1.6795,1.6808,1.6808,1.6795,1.6801,1.686,1.699,1.6993,1.6994,1.6994,1.7003,1.695,1.6835,1.6788,1.6822,1.6863,1.6831,1.6845,1.6978,1.7004,1.7004,1.7004,1.7004,1.7004,1.7004,1.7004,1.7004,1.6992,1.7,1.7062,1.7237,1.765,1.7896,1.7916,1.7915,1.7915,1.7895,1.7765,1.7656,1.7561,1.7446,1.7379,1.7311,1.7136,1.6996,1.7009,1.7003,1.7036,1.7223,1.7135,1.7087,1.7101,1.7046,1.7025,1.7066,1.7049,1.7043,1.721,1.7406,1.7575,3.3455,3.3575,3.3881,3.4122,3.4309,3.4309,3.3854,3.3042,3.206,3.0661,2.8982,2.7696,2.5789,2.3492,2.1886,2.0698,1.9733,1.9255,1.8889,1.8628,1.8581,1.838,1.8033,1.7863,1.7608,1.7261,1.7098,1.7086,1.7114,1.7263,1.7419,1.7602,1.78,1.8259,1.9005,2.0155,2.1123,2.1946,2.3442,2.4324,2.4351,2.3533,2.2863,2.2395,2.0695,1.9622,1.9365,1.8059,1.7216,1.7002,1.6994,1.6993,1.6998,1.7004,1.7004,1.7004,1.7004,1.7004,1.7004,1.7004,1.7004,1.7004,1.7004,1.7004,1.7004,1.7004,1.7004,1.6998,1.7004,1.6984,1.7004,1.7004,1.7004,1.7004,1.7004,1.7004,1.7004,1.7004,1.7004,1.7004,1.7004,1.7012,1.704,1.7096,1.721,1.7385,1.767,1.7923,1.7916,1.7915,1.7915,1.7915,1.7901,1.7847,1.7704,1.7609,1.7528,1.746,1.7318,1.7271,1.7176,1.717,1.7264,1.7532,1.7357,1.7236,1.7243,1.7175,1.7134,1.7203,1.7204,1.721,1.7399,1.7697,1.7841,3.3587,3.3907,3.4163,3.4309,3.4323,3.4336,3.3867,3.3183,3.252,3.1463,2.9985,2.8436,2.6775,2.5108,2.3935,2.2275,2.0476,2.0255,1.972,1.8863,1.8733,1.8628,1.8536,1.8046,1.7792,1.7702,1.7398,1.7296,1.7378,1.7514,1.7595,1.7629,1.8246,1.8922,1.9605,2.0725,2.191,2.2977,2.4215,2.5136,2.5535,2.5059,2.4174,2.3032,2.1362,2.0124,1.9382,1.8242,1.7426,1.7029,1.7009,1.6995,1.6998,1.6998,1.7004,1.7004,1.7004,1.7004,1.7004,1.7004,1.7004,1.7004,1.7004,1.7004,1.7004,1.7004,1.7004,1.7004,1.7004,1.7004,1.7004,1.7004,1.7004,1.7004,1.7004,1.7004,1.7004,1.7025,1.7004,1.7018,1.7038,1.7087,1.7188,1.7305,1.7358,1.7479,1.7696,1.7888,1.7908,1.7915,1.7915,1.7915,1.7915,1.7915,1.7888,1.7813,1.7738,1.767,1.7657,1.7718,1.7649,1.7614,1.7749,1.7837,1.7763,1.7641,1.7466,1.7392,1.7372,1.7399,1.7433,1.7493,1.7609,1.7758,1.7881,3.4014,3.4482,3.4576,3.4723,3.487,3.487,3.4606,3.4132,3.3394,3.2289,3.0941,2.9766,2.8208,2.6277,2.5892,2.4129,2.1535,2.1388,2.1158,2.0742,2.0429,2.0064,1.9655,1.9132,1.8511,1.798,1.7785,1.7646,1.7521,1.7568,1.767,1.7861,1.8391,1.9006,1.977,2.1178,2.2535,2.3683,2.4878,2.5735,2.6196,2.5762,2.4909,2.3683,2.2001,2.0584,1.9557,1.8654,1.7997,1.7602,1.721,1.7055,1.7167,1.7072,1.7004,1.7004,1.7004,1.7004,1.7004,1.7004,1.7004,1.7004,1.7004,1.7004,1.7004,1.7004,1.7004,1.7004,1.7004,1.7004,1.7004,1.7004,1.7004,1.7004,1.6991,1.6998,1.7038,1.7139,1.7253,1.7253,1.7248,1.7311,1.7399,1.7432,1.7485,1.7696,1.7819,1.7888,1.7915,1.7915,1.7915,1.7915,1.7915,1.7915,1.7915,1.7915,1.7881,1.784,1.7834,1.784,1.7793,1.7779,1.7875,1.7875,1.7916,1.7833,1.7589,1.7555,1.7541,1.7548,1.7574,1.7669,1.7785,1.786,1.7895,3.4322,3.4762,3.4883,3.5043,3.5177,3.5191,3.4977,3.4564,3.3834,3.2763,3.1539,3.0592,2.915,2.7583,2.7082,2.5687,2.3389,2.2794,2.2327,2.199,2.1613,2.1154,2.0581,2.0007,1.925,1.8351,1.7986,1.7804,1.7718,1.769,1.7772,1.7908,1.8612,1.9288,2.0079,2.1672,2.3137,2.4283,2.5453,2.6318,2.6738,2.6332,2.5504,2.4269,2.2759,2.1192,1.9687,1.8925,1.8319,1.7834,1.746,1.7257,1.7208,1.7113,1.7026,1.6998,1.7004,1.7004,1.7004,1.7004,1.7004,1.7004,1.7004,1.7004,1.7004,1.7004,1.7004,1.7004,1.6991,1.7005,1.7039,1.7026,1.7006,1.6998,1.6993,1.6993,1.7013,1.7221,1.7363,1.7397,1.7439,1.75,1.7588,1.7574,1.7676,1.7874,1.7915,1.7915,1.7915,1.7915,1.7915,1.7915,1.7915,1.7915,1.7915,1.7915,1.7915,1.7888,1.7874,1.7908,1.7915,1.7915,1.7915,1.7909,1.7888,1.7827,1.7772,1.7717,1.7704,1.769,1.7744,1.7826,1.7881,1.7895,1.7915,3.4496,3.4829,3.5083,3.5164,3.5191,3.5191,3.487,3.4326,3.3807,3.2942,3.1858,3.0746,2.9721,2.8565,2.7621,2.6634,2.5658,2.4396,2.3221,2.2314,2.2119,2.1756,2.118,2.0605,1.9815,1.8834,1.8021,1.7738,1.7867,1.7881,1.7895,1.8136,1.9012,1.9825,2.0519,2.2165,2.3655,2.4855,2.5993,2.686,2.7351,2.6887,2.5979,2.4855,2.3615,2.1891,1.9694,1.906,1.8425,1.7766,1.7779,1.7595,1.7203,1.7155,1.7141,1.7052,1.7012,1.7012,1.6998,1.6999,1.7006,1.6999,1.7005,1.6999,1.7,1.7026,1.7039,1.7032,1.7046,1.7073,1.7162,1.7115,1.7028,1.6993,1.7001,1.7016,1.7109,1.7257,1.7412,1.7439,1.7534,1.7602,1.7643,1.7731,1.7853,1.7895,1.7915,1.7915,1.7915,1.7915,1.7915,1.7915,1.7915,1.7915,1.7915,1.7915,1.7915,1.7915,1.7908,1.7915,1.7915,1.7915,1.7915,1.7922,1.7922,1.7868,1.7861,1.7826,1.7833,1.7847,1.7915,1.7915,1.7915,1.7915,1.7915,3.4816,3.507,3.5177,3.5191,3.5191,3.5191,3.4963,3.4603,3.4222,3.3532,3.2632,3.1706,3.0708,2.9733,2.8932,2.79,2.6659,2.6044,2.5095,2.3854,2.3285,2.2612,2.1804,2.125,2.0436,1.9249,1.8258,1.7833,1.7895,1.7915,1.8074,1.853,1.9205,2.0114,2.1137,2.2453,2.3874,2.5412,2.6237,2.7077,2.7915,2.7131,2.606,2.4923,2.3724,2.1993,1.977,1.9412,1.8825,1.7875,1.7855,1.7806,1.7627,1.7432,1.7317,1.729,1.7283,1.7176,1.7023,1.7003,1.7009,1.7003,1.7003,1.6996,1.7023,1.7176,1.7256,1.7216,1.7257,1.7311,1.7324,1.7311,1.7217,1.7029,1.7003,1.7197,1.7499,1.7669,1.7738,1.7752,1.7786,1.7806,1.7813,1.7895,1.7901,1.7915,1.7915,1.7915,1.7915,1.7915,1.7915,1.7915,1.7915,1.7915,1.7915,1.7915,1.7915,1.7915,1.7915,1.7915,1.7915,1.7915,1.7915,1.7915,1.7915,1.7915,1.7915,1.7915,1.7915,1.7915,1.7915,1.7915,1.7915,1.7915,1.7915,3.495,3.5177,3.5191,3.5191,3.5191,3.5191,3.5043,3.4789,3.4576,3.4026,3.3211,3.2581,3.1693,3.0716,2.9997,2.9022,2.7849,2.744,2.657,2.535,2.4319,2.3387,2.2287,2.1128,2.0291,1.9372,1.837,1.7915,1.7915,1.7929,1.8171,1.8709,1.9302,2.034,2.1699,2.289,2.4365,2.605,2.6789,2.7554,2.8186,2.7484,2.6258,2.5055,2.3859,2.2027,1.9846,1.9591,1.9081,1.8143,1.7916,1.7916,1.7873,1.7616,1.7453,1.7419,1.7392,1.7318,1.717,1.715,1.721,1.7291,1.7338,1.7331,1.7365,1.7513,1.7547,1.7433,1.7399,1.7433,1.7446,1.7426,1.7372,1.7358,1.7365,1.7507,1.7861,1.7923,1.7902,1.7895,1.7908,1.7915,1.7915,1.7915,1.7915,1.7915,1.7915,1.7915,1.7915,1.7915,1.7915,1.7915,1.7915,1.7915,1.7915,1.7915,1.7915,1.7915,1.7915,1.7915,1.7915,1.7915,1.7915,1.7915,1.7915,1.7915,1.7915,1.7915,1.7915,1.7915,1.7915,1.7915,1.7915,1.7915,1.7915,3.4976,3.5177,3.5191,3.5191,3.5191,3.5191,3.5043,3.4829,3.4776,3.4316,3.36,3.3198,3.2558,3.1601,3.0777,3.0004,2.9397,2.8486,2.7676,2.6689,2.5451,2.4149,2.2799,2.0781,1.9702,1.9322,1.8377,1.7943,1.7915,1.7998,1.8226,1.8819,1.9564,2.0588,2.2234,2.3492,2.5019,2.6684,2.7471,2.82,2.8934,2.7877,2.6609,2.5268,2.4053,2.2276,2.0057,1.9441,1.8916,1.8053,1.7922,1.7909,1.7882,1.7718,1.7575,1.748,1.7439,1.7446,1.7419,1.7426,1.7527,1.7758,1.7812,1.7919,1.7832,1.7812,1.7771,1.7636,1.7527,1.75,1.7575,1.7547,1.7601,1.784,1.7807,1.7861,1.7902,1.7915,1.7922,1.7908,1.7915,1.7915,1.7915,1.7915,1.7915,1.7915,1.7915,1.7915,1.7915,1.7915,1.7915,1.7915,1.7915,1.7915,1.7915,1.7915,1.7915,1.7915,1.7915,1.7915,1.7915,1.7915,1.7915,1.7915,1.7915,1.7915,1.7915,1.7915,1.7915,1.7915,1.7915,1.7915,1.7915,1.7915,1.7915,3.5137,3.5191,3.5191,3.5191,3.5191,3.5191,3.5043,3.4802,3.4789,3.4551,3.4052,3.3599,3.3252,3.2853,3.1837,3.1091,3.0473,2.9851,2.8991,2.8002,2.6792,2.4912,2.2912,2.0951,1.9828,1.9441,1.8453,1.7915,1.7929,1.8267,1.8764,1.9398,2.034,2.1507,2.2899,2.4202,2.5553,2.6891,2.7743,2.8427,2.8819,2.7929,2.6721,2.5458,2.418,2.2296,1.9983,1.8849,1.8267,1.797,1.7915,1.7908,1.7902,1.784,1.7786,1.7758,1.7758,1.7765,1.7765,1.7758,1.7806,1.7875,1.7916,1.7916,1.7916,1.7909,1.7868,1.7813,1.7793,1.7779,1.7792,1.7771,1.7826,1.7874,1.7916,1.7909,1.7915,1.7915,1.7915,1.7915,1.7915,1.7915,1.7915,1.7915,1.7915,1.7915,1.7915,1.7915,1.7915,1.7915,1.7915,1.7915,1.7915,1.7915,1.7915,1.7915,1.7915,1.7915,1.7915,1.7915,1.7915,1.7915,1.7915,1.7915,1.7915,1.7915,1.7915,1.7915,1.7915,1.7915,1.7915,1.7915,1.7915,1.7915,1.7915,3.5191,3.5191,3.5191,3.5191,3.5191,3.5191,3.511,3.499,3.4963,3.487,3.4605,3.4225,3.3901,3.3577,3.2852,3.205,3.1336,3.0777,2.9892,2.8711,2.7237,2.5195,2.2932,2.1127,2.007,1.9521,1.8454,1.797,1.7991,1.8433,1.8999,1.9687,2.0794,2.2029,2.3291,2.4816,2.6131,2.7216,2.8185,2.8948,2.9267,2.8201,2.6967,2.5633,2.4164,2.2167,1.9781,1.8468,1.7915,1.7915,1.7915,1.7915,1.7915,1.7915,1.7915,1.7915,1.7915,1.7915,1.7915,1.7915,1.7915,1.7915,1.7915,1.7915,1.7908,1.7915,1.7915,1.7908,1.7915,1.7915,1.7915,1.7915,1.7915,1.7915,1.7915,1.7915,1.7915,1.7915,1.7915,1.7915,1.7915,1.7915,1.7915,1.7915,1.7915,1.7915,1.7915,1.7915,1.7915,1.7915,1.7915,1.7915,1.7915,1.7915,1.7915,1.7915,1.7915,1.7915,1.7915,1.7915,1.7915,1.7915,1.7915,1.7915,1.7915,1.7915,1.7915,1.7915,1.7915,1.7915,1.7915,1.7915,1.7915,1.7915,1.7915,3.5191,3.5191,3.5191,3.5191,3.5191,3.5191,3.5177,3.5191,3.5164,3.5177,3.5084,3.4936,3.4529,3.4007,3.3668,3.302,3.2097,3.1559,3.0385,2.9037,2.7371,2.5303,2.3106,2.1595,2.0427,1.9591,1.8488,1.8046,1.8088,1.8488,1.9067,1.9874,2.0969,2.2297,2.3787,2.5379,2.6706,2.7747,2.88,2.9327,2.9342,2.843,2.7212,2.5615,2.3524,2.153,1.9532,1.8344,1.7915,1.7915,1.7915,1.7915,1.7915,1.7915,1.7915,1.7915,1.7915,1.7915,1.7915,1.7915,1.7915,1.7915,1.7915,1.7915,1.7915,1.7915,1.7915,1.7915,1.7915,1.7915,1.7915,1.7915,1.7915,1.7915,1.7915,1.7915,1.7915,1.7915,1.7915,1.7915,1.7915,1.7915,1.7915,1.7915,1.7915,1.7915,1.7915,1.7915,1.7915,1.7915,1.7915,1.7915,1.7915,1.7915,1.7915,1.7915,1.7915,1.7915,1.7915,1.7915,1.7915,1.7915,1.7915,1.7915,1.7915,1.7915,1.7915,1.7915,1.7915,1.7915,1.7915,1.7915,1.7915,1.7915,1.7915,3.5191,3.5191,3.5191,3.5191,3.5191,3.5191,3.5191,3.5191,3.5191,3.5191,3.5164,3.5124,3.5018,3.4847,3.436,3.3966,3.3506,3.2543,3.1202,2.9176,2.7922,2.5958,2.391,2.2422,2.1074,1.9804,1.8888,1.8336,1.8226,1.8847,1.9467,1.9895,2.1826,2.3433,2.4375,2.6157,2.7625,2.8414,2.9264,2.9441,2.9056,2.8409,2.7113,2.5213,2.2567,2.0532,1.9245,1.8392,1.8024,1.7935,1.7915,1.7915,1.7915,1.7915,1.7915,1.7915,1.7915,1.7915,1.7915,1.7915,1.7915,1.7915,1.7915,1.7915,1.7915,1.7915,1.7915,1.7915,1.7915,1.7915,1.7915,1.7915,1.7915,1.7915,1.7915,1.7915,1.7915,1.7915,1.7915,1.7915,1.7915,1.7915,1.7915,1.7915,1.7915,1.7915,1.7915,1.7915,1.7915,1.7915,1.7915,1.7915,1.7915,1.7915,1.7915,1.7915,1.7915,1.7915,1.7915,1.7915,1.7915,1.7915,1.7915,1.7915,1.7915,1.7915,1.7915,1.7915,1.7915,1.7915,1.7915,1.7915,1.7915,1.7915,1.7915,3.5191,3.5191,3.5191,3.5191,3.5191,3.5191,3.5191,3.5191,3.5191,3.5191,3.5191,3.5191,3.5191,3.5178,3.4861,3.4597,3.4001,3.2821,3.1302,2.959,2.8164,2.638,2.4583,2.3137,2.1658,1.9818,1.8985,1.8543,1.8599,1.9157,1.9939,2.0658,2.2575,2.3985,2.5124,2.6785,2.789,2.87,2.9413,2.9502,2.8917,2.8281,2.6491,2.4152,2.1627,1.9918,1.8824,1.8348,1.8099,1.8031,1.7963,1.7922,1.7915,1.7915,1.7915,1.7915,1.7915,1.7915,1.7915,1.7915,1.7915,1.7915,1.7915,1.7915,1.7915,1.7915,1.7915,1.7915,1.7915,1.7915,1.7915,1.7915,1.7915,1.7915,1.7915,1.7915,1.7915,1.7915,1.7915,1.7915,1.7915,1.7915,1.7915,1.7915,1.7915,1.7915,1.7915,1.7915,1.7915,1.7915,1.7915,1.7915,1.7915,1.7915,1.7915,1.7915,1.7915,1.7915,1.7915,1.7915,1.7915,1.7915,1.7915,1.7915,1.7915,1.7915,1.7915,1.7915,1.7915,1.7915,1.7915,1.7915,1.7915,1.7915,1.7915,3.5191,3.5191,3.5191,3.5191,3.5191,3.5191,3.5191,3.5191,3.5191,3.5191,3.5191,3.5191,3.5191,3.5191,3.5178,3.4834,3.4054,3.2914,3.1556,3.0149,2.846,2.665,2.4936,2.3492,2.1836,1.977,1.9164,1.8861,1.8868,1.9372,2.0292,2.163,2.3106,2.4543,2.5967,2.7337,2.8507,2.9332,2.9764,2.9615,2.8921,2.8225,2.6196,2.3062,2.1273,1.9834,1.8814,1.8322,1.8173,1.8161,1.8024,1.7935,1.7922,1.7915,1.7915,1.7915,1.7915,1.7915,1.7915,1.7915,1.7915,1.7915,1.7915,1.7915,1.7915,1.7915,1.7915,1.7915,1.7915,1.7915,1.7915,1.7915,1.7915,1.7915,1.7915,1.7915,1.7915,1.7915,1.7915,1.7915,1.7915,1.7915,1.7915,1.7915,1.7915,1.7915,1.7915,1.7915,1.7915,1.7915,1.7915,1.7915,1.7915,1.7915,1.7915,1.7915,1.7915,1.7915,1.7915,1.7915,1.7915,1.7915,1.7915,1.7915,1.7915,1.7915,1.7915,1.7915,1.7915,1.7915,1.7915,1.7915,1.7915,1.7915,1.7915,3.5191,3.5191,3.5191,3.5191,3.5191,3.5191,3.5191,3.5191,3.5191,3.5191,3.5191,3.5191,3.5191,3.5191,3.5191,3.4861,3.42,3.3312,3.2208,3.0634,2.8891,2.7016,2.51,2.3669,2.1864,2.0169,1.9412,1.9171,1.9049,1.9496,2.0586,2.1884,2.3627,2.5263,2.6792,2.8376,2.954,3.0068,3.0334,2.9952,2.8991,2.7845,2.6068,2.2656,2.1183,1.9914,1.8846,1.8455,1.8285,1.7992,1.8028,1.7996,1.7935,1.7915,1.7915,1.7915,1.7915,1.7915,1.7915,1.7915,1.7915,1.7915,1.7915,1.7915,1.7915,1.7915,1.7915,1.7915,1.7915,1.7915,1.7915,1.7915,1.7915,1.7915,1.7915,1.7915,1.7915,1.7915,1.7915,1.7915,1.7915,1.7915,1.7915,1.7915,1.7915,1.7915,1.7915,1.7915,1.7915,1.7915,1.7915,1.7915,1.7915,1.7915,1.7915,1.7915,1.7915,1.7915,1.7915,1.7915,1.7915,1.7915,1.7915,1.7915,1.7915,1.7915,1.7915,1.7915,1.7915,1.7915,1.7915,1.7915,1.7915,1.7915,1.7915,3.5191,3.5191,3.5191,3.5191,3.5191,3.5191,3.5191,3.5191,3.5191,3.5191,3.5191,3.5191,3.5191,3.5191,3.5191,3.4848,3.4306,3.3723,3.2515,3.0848,2.9079,2.7313,2.5317,2.386,2.2015,2.0464,1.977,1.9533,1.9364,1.9666,2.0981,2.283,2.4337,2.5728,2.7386,2.8932,3.0068,3.0588,3.0659,3.0121,2.8761,2.729,2.4689,2.2871,2.1222,1.9987,1.8934,1.853,1.8472,1.8359,1.8201,1.8044,1.7956,1.7915,1.7915,1.7915,1.7915,1.7915,1.7915,1.7915,1.7915,1.7915,1.7915,1.7915,1.7915,1.7915,1.7915,1.7915,1.7915,1.7915,1.7915,1.7915,1.7915,1.7915,1.7915,1.7915,1.7915,1.7915,1.7915,1.7915,1.7915,1.7915,1.7915,1.7915,1.7915,1.7915,1.7915,1.7915,1.7915,1.7915,1.7915,1.7915,1.7915,1.7915,1.7915,1.7915,1.7915,1.7915,1.7915,1.7915,1.7915,1.7915,1.7915,1.7915,1.7915,1.7915,1.7915,1.7915,1.7915,1.7915,1.7915,1.7915,1.7915,1.7915,1.7915,3.5191,3.5191,3.5191,3.5191,3.5191,3.5191,3.5191,3.5191,3.5191,3.5191,3.5191,3.5191,3.5191,3.5191,3.5151,3.4927,3.4425,3.3856,3.2661,3.125,2.9388,2.761,2.5891,2.4119,2.2316,2.0554,1.9941,1.9744,1.9792,1.993,2.153,2.3398,2.4658,2.6153,2.8042,2.9633,3.0323,3.0831,3.087,3.022,2.8395,2.6034,2.3785,2.2462,2.1222,2.0037,1.8902,1.8654,1.866,1.8603,1.8402,1.8056,1.7935,1.7908,1.7922,1.7915,1.7915,1.7915,1.7915,1.7915,1.7915,1.7915,1.7915,1.7915,1.7915,1.7915,1.7915,1.7915,1.7915,1.7915,1.7915,1.7915,1.7915,1.7915,1.7915,1.7915,1.7915,1.7915,1.7915,1.7915,1.7915,1.7908,1.7915,1.7915,1.7915,1.7915,1.7915,1.7915,1.7915,1.7915,1.7915,1.7915,1.7915,1.7915,1.7915,1.7915,1.7915,1.7915,1.7915,1.7915,1.7915,1.7915,1.7915,1.7915,1.7915,1.7915,1.7915,1.7915,1.7915,1.7915,1.7915,1.7915,1.7915,1.7915,1.7915,3.5191,3.5191,3.5191,3.5191,3.5191,3.5191,3.5191,3.5191,3.5191,3.5191,3.5191,3.5191,3.5191,3.5191,3.5191,3.5138,3.4782,3.3962,3.302,3.1851,2.9912,2.7975,2.638,2.4719,2.2526,2.0749,2.0072,1.9903,2.0007,2.0112,2.1548,2.3808,2.5433,2.69,2.8744,3.0323,3.1649,3.2057,3.1719,3.0365,2.821,2.612,2.423,2.2584,2.1237,2.0045,1.9009,1.8744,1.877,1.8748,1.8482,1.8163,1.7958,1.7914,1.7922,1.7915,1.7915,1.7915,1.7915,1.7915,1.7915,1.7915,1.7915,1.7915,1.7915,1.7915,1.7915,1.7915,1.7915,1.7915,1.7915,1.7915,1.7915,1.7915,1.7915,1.7915,1.7915,1.7915,1.7915,1.7915,1.7915,1.7922,1.7915,1.7915,1.7915,1.7915,1.7915,1.7922,1.7915,1.7915,1.7915,1.7915,1.7915,1.7915,1.7915,1.7915,1.7915,1.7915,1.7915,1.7915,1.7915,1.7915,1.7915,1.7915,1.7915,1.7915,1.7915,1.7915,1.7915,1.7915,1.7915,1.7915,1.7915,1.7915,1.7915,3.5191,3.5191,3.5191,3.5191,3.5191,3.5191,3.5191,3.5191,3.5191,3.5191,3.5191,3.5191,3.5191,3.5191,3.5191,3.5191,3.494,3.4015,3.3007,3.1837,2.9872,2.7813,2.6041,2.4314,2.2362,2.0902,2.015,2.0,2.0168,2.0813,2.2135,2.4489,2.5992,2.7536,2.9346,3.0845,3.179,3.2043,3.1482,3.0043,2.8086,2.6177,2.4316,2.2454,2.1251,2.0045,1.9118,1.8799,1.8803,1.8753,1.8488,1.819,1.7985,1.7913,1.7915,1.7915,1.7915,1.7915,1.7915,1.7915,1.7915,1.7915,1.7915,1.7915,1.7915,1.7915,1.7915,1.7915,1.7915,1.7915,1.7915,1.7915,1.7915,1.7915,1.7915,1.7915,1.7915,1.7915,1.7915,1.7915,1.7929,1.7935,1.7955,1.7962,1.7949,1.7922,1.7915,1.7915,1.7915,1.7915,1.7915,1.7915,1.7915,1.7915,1.7915,1.7915,1.7915,1.7915,1.7915,1.7915,1.7915,1.7915,1.7915,1.7915,1.7915,1.7915,1.7915,1.7915,1.7915,1.7915,1.7915,1.7915,1.7915,1.7915,1.7915,3.5191,3.5191,3.5191,3.5191,3.5191,3.5191,3.5191,3.5191,3.5191,3.5191,3.5191,3.5191,3.5191,3.5191,3.5191,3.5191,3.5111,3.4028,3.2994,3.1504,2.9684,2.7745,2.6054,2.4233,2.2389,2.0493,2.0156,2.006,2.0436,2.1272,2.2805,2.519,2.6529,2.8186,2.9845,3.1184,3.2085,3.2043,3.1452,3.0001,2.8086,2.6348,2.4422,2.2699,2.1237,2.0052,1.9016,1.8806,1.8803,1.8757,1.8487,1.8182,1.7955,1.7913,1.7915,1.7915,1.7915,1.7915,1.7915,1.7915,1.7915,1.7915,1.7915,1.7915,1.7915,1.7915,1.7915,1.7915,1.7915,1.7915,1.7915,1.7915,1.7915,1.7915,1.7915,1.7915,1.7915,1.7915,1.7922,1.7936,1.7956,1.8017,1.8023,1.8023,1.8003,1.7935,1.7914,1.7914,1.7922,1.7922,1.7915,1.7915,1.7915,1.7915,1.7915,1.7915,1.7915,1.7915,1.7915,1.7915,1.7915,1.7915,1.7915,1.7915,1.7915,1.7915,1.7915,1.7915,1.7915,1.7915,1.7915,1.7915,1.7915,1.7915,1.7915,3.5191,3.5191,3.5191,3.5191,3.5191,3.5191,3.5191,3.5191,3.5191,3.5191,3.5191,3.5191,3.5191,3.5191,3.5191,3.5191,3.5138,3.4015,3.31,3.1891,3.0207,2.8029,2.619,2.4383,2.2644,2.0711,2.0166,2.0121,2.0524,2.1588,2.3272,2.5176,2.7005,2.88,3.0439,3.179,3.2043,3.1916,3.1381,3.01,2.8214,2.6434,2.4732,2.2627,2.1222,2.0059,1.8907,1.8806,1.8792,1.8788,1.8478,1.8194,1.7966,1.7919,1.7908,1.7915,1.7915,1.7915,1.7915,1.7915,1.7915,1.7915,1.7915,1.7915,1.7915,1.7915,1.7915,1.7915,1.7915,1.7915,1.7915,1.7915,1.7915,1.7915,1.7915,1.7915,1.7915,1.7915,1.7929,1.7935,1.7997,1.8071,1.8193,1.8199,1.8131,1.8063,1.7912,1.7913,1.7915,1.7915,1.7915,1.7915,1.7915,1.7915,1.7915,1.7915,1.7915,1.7915,1.7915,1.7915,1.7915,1.7915,1.7915,1.7915,1.7915,1.7915,1.7915,1.7915,1.7915,1.7915,1.7915,1.7915,1.7915,1.7915,1.7915,3.5191,3.5191,3.5191,3.5191,3.5191,3.5191,3.5191,3.5191,3.5191,3.5191,3.5191,3.5191,3.5191,3.5191,3.5191,3.5191,3.5032,3.4015,3.3034,3.1584,2.9766,2.7573,2.5729,2.4028,2.2247,2.0473,2.0029,2.0145,2.0366,2.1705,2.3699,2.562,2.757,2.942,3.1057,3.2268,3.2352,3.1719,3.1074,2.9845,2.7664,2.612,2.4359,2.2016,2.1121,2.0001,1.9016,1.8835,1.8806,1.8716,1.8456,1.8198,1.7956,1.7925,1.7922,1.7922,1.7915,1.7915,1.7915,1.7915,1.7915,1.7915,1.7915,1.7915,1.7915,1.7915,1.7915,1.7915,1.7915,1.7915,1.7915,1.7915,1.7915,1.7915,1.7915,1.7915,1.7915,1.7915,1.7963,1.7989,1.8071,1.8152,1.8287,1.8402,1.8292,1.8183,1.8039,1.7918,1.7921,1.7915,1.7915,1.7915,1.7915,1.7915,1.7915,1.7915,1.7915,1.7915,1.7915,1.7915,1.7915,1.7915,1.7915,1.7915,1.7915,1.7915,1.7915,1.7915,1.7915,1.7915,1.7915,1.7915,1.7915,1.7915,1.7915,3.5191,3.5191,3.5191,3.5191,3.5191,3.5191,3.5191,3.5191,3.5191,3.5191,3.5191,3.5191,3.5191,3.5191,3.5191,3.5191,3.4887,3.4015,3.2887,3.133,2.9431,2.7087,2.5199,2.3524,2.2001,2.0204,1.9917,2.0131,2.0273,2.1705,2.3728,2.5934,2.8125,2.9969,3.1437,3.2661,3.2872,3.1972,3.0919,2.9466,2.7223,2.5806,2.4044,2.1886,2.0941,2.0016,1.9154,1.8806,1.8806,1.8702,1.8516,1.8212,1.8028,1.7915,1.7921,1.7922,1.7915,1.7915,1.7915,1.7915,1.7915,1.7915,1.7915,1.7915,1.7915,1.7915,1.7915,1.7915,1.7915,1.7915,1.7915,1.7915,1.7915,1.7915,1.7915,1.7915,1.7915,1.7922,1.7989,1.8057,1.8145,1.8239,1.839,1.852,1.8524,1.8351,1.8067,1.7959,1.7914,1.7915,1.7915,1.7915,1.7915,1.7915,1.7915,1.7915,1.7915,1.7915,1.7915,1.7915,1.7915,1.7915,1.7915,1.7915,1.7915,1.7915,1.7915,1.7915,1.7915,1.7915,1.7915,1.7915,1.7915,1.7915,1.7915,3.5191,3.5191,3.5191,3.5191,3.5191,3.5191,3.5191,3.5191,3.5191,3.5191,3.5191,3.5191,3.5191,3.5191,3.5191,3.5191,3.494,3.4015,3.2887,3.1464,2.9377,2.711,2.5172,2.3478,2.1782,2.0191,1.9826,1.9976,2.0237,2.1691,2.3737,2.622,2.8569,3.0549,3.1663,3.2787,3.304,3.238,3.1215,2.9254,2.718,2.5663,2.3762,2.1814,2.0898,2.003,1.9096,1.8806,1.8806,1.875,1.8578,1.8294,1.8025,1.7941,1.7919,1.7922,1.7922,1.7915,1.7915,1.7915,1.7915,1.7915,1.7915,1.7915,1.7915,1.7915,1.7915,1.7915,1.7915,1.7915,1.7915,1.7915,1.7915,1.7915,1.7915,1.7915,1.7915,1.7922,1.7983,1.8049,1.8191,1.8341,1.85,1.8626,1.8707,1.8541,1.8171,1.8001,1.7928,1.7915,1.7915,1.7915,1.7915,1.7915,1.7915,1.7915,1.7915,1.7915,1.7915,1.7915,1.7915,1.7915,1.7915,1.7915,1.7915,1.7915,1.7915,1.7915,1.7915,1.7915,1.7915,1.7915,1.7915,1.7915,1.7915,3.5191,3.5191,3.5191,3.5191,3.5191,3.5191,3.5191,3.5191,3.5191,3.5191,3.5191,3.5191,3.5191,3.5191,3.5191,3.5191,3.498,3.4015,3.2887,3.1609,2.9377,2.711,2.51,2.3273,2.1535,2.0095,1.963,1.9828,2.0209,2.1677,2.3737,2.622,2.9307,3.1508,3.2563,3.3208,3.2942,3.1874,3.0591,2.891,2.6605,2.5176,2.3469,2.1107,2.0688,2.0016,1.8922,1.882,1.8806,1.8778,1.862,1.8391,1.8144,1.8038,1.7911,1.7914,1.7915,1.7915,1.7915,1.7915,1.7915,1.7915,1.7915,1.7915,1.7915,1.7915,1.7915,1.7915,1.7915,1.7915,1.7915,1.7915,1.7915,1.7915,1.7915,1.7915,1.7922,1.7908,1.7949,1.8014,1.8121,1.8313,1.8485,1.8551,1.8639,1.8507,1.8132,1.7988,1.7915,1.7908,1.7915,1.7915,1.7915,1.7915,1.7915,1.7915,1.7915,1.7915,1.7915,1.7915,1.7915,1.7915,1.7915,1.7915,1.7915,1.7915,1.7915,1.7915,1.7915,1.7915,1.7915,1.7915,1.7915,1.7915,1.7915,3.5191,3.5191,3.5191,3.5191,3.5191,3.5191,3.5191,3.5191,3.5191,3.5191,3.5191,3.5191,3.5191,3.5191,3.5191,3.5191,3.5059,3.4015,3.2887,3.1596,2.9402,2.711,2.5009,2.3109,2.1384,1.9985,1.9427,1.9545,2.0252,2.1677,2.431,2.7517,3.0153,3.1916,3.2984,3.325,3.2956,3.1874,3.0622,2.8655,2.6548,2.4789,2.3139,2.1381,2.0457,2.003,1.9161,1.8806,1.8806,1.8757,1.8668,1.8497,1.8292,1.8072,1.7931,1.7921,1.7915,1.7915,1.7915,1.7915,1.7915,1.7915,1.7915,1.7915,1.7915,1.7915,1.7915,1.7915,1.7915,1.7915,1.7915,1.7915,1.7915,1.7915,1.7915,1.7915,1.7922,1.7908,1.7914,1.798,1.8067,1.8265,1.8409,1.8455,1.8514,1.8299,1.8057,1.7989,1.7915,1.7915,1.7915,1.7915,1.7915,1.7915,1.7915,1.7915,1.7915,1.7915,1.7915,1.7915,1.7915,1.7915,1.7915,1.7915,1.7915,1.7915,1.7915,1.7915,1.7915,1.7915,1.7915,1.7915,1.7915,1.7915,1.7915,3.5191,3.5191,3.5191,3.5191,3.5191,3.5191,3.5191,3.5191,3.5191,3.5191,3.5191,3.5191,3.5191,3.5191,3.5191,3.5191,3.4953,3.4014,3.29,3.1411,2.9364,2.711,2.4968,2.3018,2.1247,2.0014,1.9364,1.9397,2.0303,2.242,2.5501,2.8754,3.0732,3.2197,3.3026,3.332,3.2942,3.193,3.0552,2.8513,2.6401,2.489,2.2995,2.1381,2.05,1.9914,1.9205,1.8806,1.8806,1.8799,1.8771,1.858,1.8352,1.8059,1.7964,1.7913,1.7908,1.7915,1.7915,1.7915,1.7915,1.7915,1.7915,1.7915,1.7915,1.7915,1.7915,1.7915,1.7915,1.7915,1.7915,1.7915,1.7915,1.7915,1.7915,1.7915,1.7915,1.7915,1.7907,1.796,1.8035,1.8165,1.8274,1.8346,1.8369,1.8175,1.8017,1.7976,1.7915,1.7915,1.7915,1.7915,1.7915,1.7915,1.7915,1.7915,1.7915,1.7915,1.7915,1.7915,1.7915,1.7915,1.7915,1.7915,1.7915,1.7915,1.7915,1.7915,1.7915,1.7915,1.7915,1.7915,1.7915,1.7915,1.7915,3.5191,3.5191,3.5191,3.5191,3.5191,3.5191,3.5191,3.5191,3.5191,3.5191,3.5191,3.5191,3.5191,3.5191,3.5191,3.5191,3.4755,3.4015,3.2874,3.129,2.9377,2.71,2.4886,2.2781,2.1055,1.9806,1.9154,1.9248,2.0814,2.302,2.6225,2.9463,3.0972,3.2197,3.2984,3.339,3.2731,3.1818,3.0495,2.847,2.6434,2.4875,2.288,2.1295,2.0544,1.9857,1.911,1.882,1.8806,1.8806,1.8806,1.8648,1.8341,1.8074,1.7912,1.7914,1.7915,1.7915,1.7915,1.7915,1.7915,1.7915,1.7915,1.7915,1.7915,1.7915,1.7915,1.7915,1.7915,1.7915,1.7915,1.7915,1.7915,1.7915,1.7915,1.7915,1.7915,1.7915,1.7921,1.7927,1.8002,1.8057,1.8159,1.8222,1.8224,1.8066,1.7963,1.7929,1.7915,1.7915,1.7915,1.7915,1.7915,1.7915,1.7915,1.7915,1.7915,1.7915,1.7915,1.7915,1.7915,1.7915,1.7915,1.7915,1.7915,1.7915,1.7915,1.7915,1.7915,1.7915,1.7915,1.7915,1.7915,1.7915,1.7915,3.5191,3.5191,3.5191,3.5191,3.5191,3.5191,3.5191,3.5191,3.5191,3.5191,3.5191,3.5191,3.5191,3.5191,3.5191,3.5164,3.5072,3.4001,3.2874,3.1464,2.9377,2.711,2.4818,2.2603,2.0917,1.9689,1.9028,1.9022,2.0965,2.4068,2.7332,2.9675,3.1,3.2197,3.304,3.3306,3.2717,3.1649,3.0252,2.8399,2.6548,2.4689,2.2707,2.1078,2.0486,1.9697,1.898,1.882,1.8806,1.8806,1.8806,1.8648,1.8335,1.8058,1.7922,1.7915,1.7915,1.7915,1.7915,1.7915,1.7915,1.7915,1.7915,1.7915,1.7915,1.7915,1.7915,1.7915,1.7915,1.7915,1.7915,1.7915,1.7915,1.7915,1.7915,1.7915,1.7915,1.7915,1.7915,1.7922,1.7949,1.7996,1.8058,1.8121,1.8114,1.8004,1.7936,1.7929,1.7915,1.7915,1.7915,1.7915,1.7915,1.7915,1.7915,1.7915,1.7915,1.7915,1.7915,1.7915,1.7915,1.7915,1.7915,1.7915,1.7915,1.7915,1.7915,1.7915,1.7915,1.7915,1.7915,1.7915,1.7915,1.7915,1.7915,3.5191,3.5191,3.5191,3.5191,3.5191,3.5191,3.5191,3.5191,3.5191,3.5191,3.5191,3.5191,3.5191,3.5191,3.5191,3.5098,3.4755,3.3922,3.2755,3.1624,2.9377,2.7097,2.4818,2.259,2.0876,1.9681,1.9105,1.9178,2.1181,2.4165,2.7332,2.9732,3.1,3.2183,3.3208,3.3208,3.2549,3.1367,3.0057,2.8427,2.6291,2.4345,2.2534,2.0876,2.0074,1.9451,1.898,1.8806,1.8806,1.8806,1.875,1.862,1.8271,1.8069,1.7976,1.7915,1.7922,1.7915,1.7915,1.7915,1.7915,1.7915,1.7915,1.7915,1.7915,1.7915,1.7915,1.7915,1.7915,1.7915,1.7915,1.7915,1.7915,1.7915,1.7915,1.7915,1.7915,1.7915,1.7922,1.7915,1.7922,1.7963,1.7963,1.8032,1.8038,1.7929,1.7915,1.7915,1.7915,1.7915,1.7915,1.7915,1.7915,1.7915,1.7915,1.7915,1.7915,1.7915,1.7915,1.7915,1.7915,1.7915,1.7915,1.7915,1.7915,1.7915,1.7915,1.7915,1.7915,1.7915,1.7915,1.7915,1.7915,1.7915,1.7915,3.5191,3.5191,3.5191,3.5191,3.5191,3.5191,3.5191,3.5191,3.5191,3.5191,3.5191,3.5191,3.5191,3.5191,3.5191,3.5019,3.4425,3.3829,3.2555,3.105,2.9146,2.7097,2.4828,2.2549,2.0862,1.9681,1.9189,1.9611,2.1882,2.4655,2.7328,2.9672,3.1,3.2197,3.3278,3.3096,3.2197,3.1057,2.9658,2.8115,2.6106,2.4302,2.2549,2.102,2.0001,1.9379,1.8965,1.8806,1.8806,1.8806,1.8806,1.8513,1.8044,1.804,1.8003,1.7935,1.7915,1.7915,1.7915,1.7915,1.7915,1.7915,1.7915,1.7915,1.7915,1.7915,1.7915,1.7915,1.7915,1.7915,1.7915,1.7915,1.7915,1.7915,1.7915,1.7915,1.7915,1.7915,1.7915,1.7915,1.7915,1.7915,1.7915,1.7915,1.7915,1.7915,1.7915,1.7915,1.7915,1.7915,1.7915,1.7915,1.7915,1.7915,1.7915,1.7915,1.7915,1.7915,1.7915,1.7915,1.7915,1.7915,1.7915,1.7915,1.7915,1.7915,1.7915,1.7915,1.7915,1.7915,1.7915,1.7915,1.7915,1.7915,1.7915,3.5191,3.5191,3.5191,3.5191,3.5191,3.5191,3.5191,3.5191,3.5191,3.5191,3.5191,3.5191,3.5191,3.5191,3.5191,3.4848,3.4266,3.375,3.2462,3.0848,2.9039,2.7016,2.4805,2.2535,2.0959,1.9728,1.959,2.0422,2.2506,2.4904,2.7328,2.9601,3.0986,3.2141,3.3138,3.2745,3.1874,3.0707,2.9236,2.7517,2.572,2.3915,2.2289,2.0833,1.9813,1.9197,1.898,1.8806,1.8806,1.8757,1.8709,1.8523,1.8193,1.8109,1.803,1.7949,1.7915,1.7915,1.7915,1.7915,1.7915,1.7915,1.7915,1.7915,1.7915,1.7915,1.7915,1.7915,1.7915,1.7915,1.7915,1.7915,1.7915,1.7915,1.7915,1.7915,1.7915,1.7915,1.7915,1.7915,1.7915,1.7915,1.7915,1.7915,1.7915,1.7915,1.7915,1.7915,1.7915,1.7915,1.7915,1.7915,1.7915,1.7915,1.7915,1.7915,1.7915,1.7915,1.7915,1.7915,1.7915,1.7915,1.7915,1.7915,1.7915,1.7915,1.7915,1.7915,1.7915,1.7915,1.7915,1.7915,1.7915,1.7915,1.7915,3.5191,3.5191,3.5191,3.5191,3.5191,3.5191,3.5191,3.5191,3.5191,3.5191,3.5191,3.5191,3.5191,3.5191,3.5164,3.4702,3.4226,3.371,3.2448,3.0727,2.9068,2.7016,2.4805,2.2567,2.0841,1.9977,1.9823,2.0887,2.2446,2.4904,2.7271,2.9488,3.0958,3.2155,3.2773,3.2605,3.1705,3.0298,2.8754,2.6905,2.5081,2.3297,2.1857,2.0572,1.9524,1.8878,1.8806,1.8806,1.8806,1.8737,1.8626,1.8455,1.8292,1.8144,1.8037,1.7949,1.7915,1.7915,1.7915,1.7915,1.7915,1.7915,1.7915,1.7915,1.7915,1.7915,1.7915,1.7915,1.7915,1.7915,1.7915,1.7915,1.7915,1.7915,1.7915,1.7915,1.7915,1.7915,1.7915,1.7915,1.7915,1.7915,1.7915,1.7915,1.7915,1.7915,1.7915,1.7915,1.7915,1.7915,1.7915,1.7915,1.7915,1.7915,1.7915,1.7915,1.7915,1.7915,1.7915,1.7915,1.7915,1.7915,1.7915,1.7915,1.7915,1.7915,1.7915,1.7915,1.7915,1.7915,1.7915,1.7915,1.7915,1.7915,1.7915,3.5191,3.5191,3.5191,3.5191,3.5191,3.5191,3.5191,3.5191,3.5191,3.5191,3.5191,3.5191,3.5191,3.5191,3.5191,3.4702,3.3829,3.3445,3.2062,3.0257,2.8824,2.6921,2.4682,2.2215,2.0393,1.9672,1.9735,2.1036,2.2545,2.4872,2.71,2.9105,3.0888,3.1874,3.2366,3.2001,3.1226,2.9803,2.8143,2.6291,2.4474,2.2851,2.1511,2.0392,1.9451,1.9009,1.8806,1.8806,1.8806,1.8744,1.8613,1.8442,1.8279,1.8144,1.8051,1.7949,1.7915,1.7915,1.7915,1.7915,1.7915,1.7915,1.7915,1.7915,1.7915,1.7915,1.7915,1.7915,1.7915,1.7915,1.7915,1.7915,1.7915,1.7915,1.7915,1.7915,1.7915,1.7915,1.7915,1.7915,1.7915,1.7915,1.7915,1.7915,1.7915,1.7915,1.7915,1.7915,1.7915,1.7915,1.7915,1.7915,1.7915,1.7915,1.7915,1.7915,1.7915,1.7915,1.7915,1.7915,1.7915,1.7915,1.7915,1.7915,1.7915,1.7915,1.7915,1.7915,1.7915,1.7915,1.7915,1.7915,1.7915,1.7915,1.7915]}]]